GFSGL_sfc_rhum_000.txt.gz
RH
34 39 39 32 31 33 35 36 35 37 36 38 39 41 42 42 42 44 46 46 48 47 45 47 49 46 46 41 39 38 39 39 45 40 33 43 61 81 94 97 97 97 96
34 38 36 33 35 37 36 36 38 40 41 42 42 41 40 39 40 42 46 45 47 49 47 46 45 35 48 48 43 43 40 38 39 48 40 42 61 64 81 94 95 99 98
32 34 36 38 37 37 37 38 38 41 41 39 38 39 38 40 41 43 45 48 49 50 51 50 48 47 49 47 45 43 41 34 38 42 44 38 48 68 94 96 98 99 99
32 32 37 39 40 40 40 40 43 42 41 37 38 39 43 41 41 45 46 50 53 55 62 65 63 59 62 54 45 47 42 45 44 43 41 40 42 60 92 96 98 96 99
34 34 34 41 42 40 40 43 42 40 36 36 38 40 42 43 40 49 49 55 60 63 67 66 66 67 70 70 63 60 53 55 51 47 51 49 49 58 92 92 96 98 97
36 34 37 42 39 40 41 42 39 35 34 36 39 42 47 40 57 67 66 69 70 71 76 69 66 70 69 75 75 79 85 82 72 58 51 50 48 48 64 93 95 98 99
35 36 39 40 41 41 39 34 33 35 36 38 41 47 51 52 64 66 69 74 84 80 75 73 65 54 67 62 74 78 78 80 81 74 70 50 46 43 48 89 95 88 92
36 38 37 40 40 39 35 32 33 35 38 42 50 52 54 52 69 70 73 79 88 82 79 74 74 74 70 66 67 74 73 69 70 61 57 59 44 40 43 72 88 93 94
37 37 37 40 40 35 33 36 36 40 44 50 54 58 64 70 73 74 78 91 94 88 76 76 74 78 78 76 75 79 73 78 82 76 72 66 68 85 88 68 99 97 98
37 39 39 39 36 33 33 35 37 44 50 60 66 69 73 87 80 79 86 95 99 86 81 80 79 80 82 82 82 87 91 77 70 91 97 85 77 72 93 86 89 96 91
40 41 39 35 33 32 34 36 39 54 73 90 92 92 88 89 95 82 84 99 94 89 81 78 80 83 86 90 88 89 82 67 72 74 74 82 80 66 65 95 94 82 86
41 40 38 36 32 30 36 40 50 63 81 88 91 91 84 97 91 95 90 88 95 97 92 82 87 87 94 98 97 97 88 81 83 95 83 87 91 83 64 65 90 95 72
42 41 39 36 32 33 41 54 58 55 69 82 85 84 86 84 86 84 80 83 87 94 86 85 87 87 90 97 98 98 96 88 93 90 95 77 80 76 78 82 98 97 98
44 45 42 36 39 39 43 47 56 65 74 73 81 87 88 78 84 83 81 84 84 86 87 81 91 96 99 100 97 98 97 97 92 85 76 74 71 94 96 87 92 93 93
51 50 41 41 50 51 50 56 63 68 76 91 87 89 94 92 88 94 92 87 88 86 93 95 89 86 85 88 97 95 92 93 95 95 99 92 81 91 88 94 85 85 83
57 50 52 58 59 56 58 62 63 64 69 74 81 94 93 94 95 92 86 85 86 85 84 89 93 94 86 83 92 95 98 95 90 99 95 86 82 84 91 92 92 85 88
81 74 56 59 59 60 66 69 72 71 65 71 81 87 93 96 94 82 83 91 73 72 82 84 90 90 88 84 85 88 89 91 96 91 90 92 93 86 89 90 91 91 93
80 67 67 63 64 68 73 76 75 79 83 78 77 90 93 94 92 84 80 68 67 72 69 77 89 89 82 82 85 86 89 90 91 89 92 93 94 90 92 87 88 89 88
58 57 76 75 76 77 76 75 75 76 77 79 79 77 90 93 90 92 87 77 72 67 64 78 84 72 80 87 92 92 94 93 93 93 91 89 95 89 91 89 91 93 92
46 64 70 71 73 72 70 74 74 77 77 82 84 86 87 84 88 91 91 95 90 87 90 76 73 82 83 78 83 88 93 93 91 86 93 94 95 91 92 93 93 92 82
51 54 74 66 68 70 71 73 76 80 80 84 89 92 93 88 90 90 90 92 89 87 91 89 92 82 76 77 73 81 81 84 77 80 86 88 92 92 88 87 86 80 69
65 67 70 74 71 76 74 70 79 81 78 82 89 89 92 91 90 90 91 93 94 92 91 92 90 89 89 88 85 84 81 82 79 79 81 80 76 78 77 77 76 75 72
77 80 73 67 73 74 75 71 78 84 84 84 87 89 89 92 92 90 92 94 92 93 92 89 92 90 90 92 92 91 90 91 90 89 88 87 82 80 79 76 73 73 71
83 88 73 76 81 76 79 81 79 76 85 86 88 91 91 92 93 93 93 93 92 93 93 92 90 90 88 92 91 90 86 84 79 82 87 89 88 86 83 78 76 77 74
92 90 88 84 81 82 81 78 81 80 82 89 89 90 89 91 90 92 92 92 91 91 89 89 88 86 89 90 90 90 88 84 82 76 77 78 78 75 72 72 73 71 73
85 86 87 85 84 83 83 80 82 81 82 83 88 90 91 90 90 90 90 88 87 84 81 81 80 80 79 79 84 88 87 87 84 77 76 73 75 74 74 74 71 73 73

GFSGL_sfc_rhum_003.txt.gz
RH
27 36 38 35 34 33 33 32 34 35 34 34 33 34 35 36 37 40 42 43 46 47 48 49 50 48 45 44 47 50 51 46 48 42 35 35 42 65 75 83 92 97 98
31 35 36 35 32 33 35 34 36 36 37 36 35 34 34 34 35 36 40 37 41 43 45 47 46 34 47 47 45 53 52 48 45 49 41 38 42 43 48 65 78 92 97
29 33 35 34 35 36 35 36 36 36 35 34 34 36 36 36 35 37 36 40 42 44 46 48 48 49 52 48 47 48 50 41 45 47 44 39 39 39 49 59 74 82 89
29 30 36 38 37 35 37 39 38 36 37 36 36 35 37 35 34 36 36 41 45 46 54 56 55 56 57 57 56 58 48 53 52 50 46 45 43 40 44 65 97 92 97
33 37 45 40 37 38 39 39 38 38 36 34 35 36 37 35 30 38 40 47 52 57 60 58 63 66 68 68 61 66 69 65 57 55 55 54 51 48 51 64 82 88 97
42 46 39 37 37 39 39 40 39 36 33 34 36 38 39 30 51 67 64 58 62 67 76 68 62 66 66 74 76 75 70 74 83 84 69 64 58 52 47 54 75 97 96
43 40 38 37 38 40 36 35 36 36 36 38 38 39 42 45 59 67 70 65 75 78 77 77 69 54 68 64 70 77 79 78 77 67 81 80 64 53 50 56 77 87 84
45 37 33 35 37 38 37 34 34 35 38 38 42 44 49 47 67 72 76 78 84 82 79 76 77 79 75 73 75 78 71 71 71 62 64 63 66 59 67 64 70 84 97
33 32 32 35 39 36 34 36 36 38 40 41 46 55 62 68 72 76 80 94 92 87 75 76 76 81 82 77 90 95 90 87 70 75 82 75 65 65 70 76 96 95 100
33 34 34 36 34 33 36 38 37 39 41 54 62 66 70 81 78 80 84 96 99 91 86 80 80 80 87 92 97 94 93 84 72 71 82 92 93 68 70 73 96 92 90
34 36 35 32 32 35 36 35 36 44 63 86 92 86 80 83 89 86 90 98 92 89 84 86 89 88 96 90 87 95 91 77 74 71 86 96 88 75 70 71 85 99 94
35 36 34 34 34 32 35 36 42 52 73 87 88 86 80 89 77 74 81 96 90 95 92 86 86 96 97 94 89 92 98 98 91 96 90 88 82 94 72 64 71 90 98
38 37 38 40 39 34 37 44 49 46 67 82 84 82 81 78 77 74 84 85 97 96 93 91 86 84 85 86 85 88 90 97 96 96 96 80 72 66 68 66 99 99 98
40 44 45 45 40 37 40 42 48 62 72 71 80 84 85 78 78 81 88 90 84 86 86 82 85 91 96 96 98 98 96 97 95 92 83 94 72 72 77 70 96 97 94
47 50 48 46 46 47 46 47 54 66 75 82 81 88 94 91 84 95 95 90 91 88 94 96 87 81 86 84 93 99 95 96 96 93 84 78 99 91 92 97 90 89 93
58 56 61 54 53 53 51 53 60 70 72 71 81 91 91 86 94 95 95 97 83 88 89 90 89 89 88 87 94 94 90 86 84 87 98 93 95 97 93 97 93 91 90
81 76 58 59 55 56 58 61 77 74 69 70 85 84 89 94 96 95 95 80 80 77 86 86 90 92 91 85 88 85 95 98 99 96 99 98 96 88 85 90 94 92 94
87 73 60 61 63 64 67 72 79 80 87 83 76 88 90 93 94 88 94 76 79 79 81 88 92 89 84 85 86 90 91 93 94 93 95 99 98 90 90 87 92 91 93
63 58 74 73 73 70 70 70 69 77 76 82 78 78 85 92 93 78 82 87 88 86 85 84 87 85 86 85 89 92 95 95 95 94 93 92 98 92 93 91 90 91 90
46 65 64 66 69 66 65 65 68 76 76 85 83 87 88 87 91 93 93 92 92 90 91 91 90 88 91 87 94 93 92 94 94 93 96 93 93 92 90 89 89 88 85
51 53 66 63 64 65 67 66 70 79 80 85 89 93 93 90 91 92 93 94 93 92 94 93 94 94 93 93 90 88 92 96 95 93 88 89 91 93 92 92 93 87 77
63 66 67 70 67 71 68 67 76 84 82 84 88 90 92 92 90 91 92 95 96 93 92 94 93 92 93 93 93 94 94 93 88 86 89 91 92 94 94 94 93 91 90
73 77 73 64 70 68 72 71 77 79 87 88 89 89 91 92 92 91 92 94 93 94 93 92 93 92 94 95 95 92 92 94 95 95 94 94 94 94 94 90 87 87 81
73 78 72 72 74 73 77 80 81 77 80 89 89 91 92 93 93 93 94 93 92 92 93 93 91 91 90 93 93 93 93 94 92 92 92 93 92 90 89 89 88 86 90
80 80 76 78 78 79 78 77 80 82 83 87 90 90 88 91 91 92 92 92 91 90 86 85 86 83 84 88 90 90 89 84 86 82 85 86 90 90 90 90 91 90 91
82 79 76 79 78 77 78 80 79 78 85 81 86 90 90 90 90 91 89 83 80 78 77 82 78 72 72 74 76 84 88 88 86 82 76 70 75 75 73 75 72 72 70

GFSGL_sfc_rhum_006.txt.gz
RH
44 48 56 51 52 49 47 47 47 52 49 50 50 50 48 48 49 53 54 54 54 53 54 55 54 53 54 53 54 54 55 56 65 58 54 53 58 59 63 93 96 98 97
44 51 51 50 48 50 49 49 52 52 52 52 48 45 44 44 47 49 51 47 50 51 50 52 52 41 52 53 54 55 56 53 62 66 60 59 56 54 48 64 82 90 96
38 46 49 50 49 49 54 54 50 52 51 48 44 48 47 49 47 48 47 48 49 50 51 52 52 53 56 56 56 57 57 49 57 65 64 58 55 63 62 59 61 86 94
38 40 50 48 50 54 54 54 55 53 53 50 49 48 50 45 42 43 41 46 49 49 57 61 62 64 67 66 63 64 59 66 69 75 68 63 60 55 65 71 70 95 96
39 40 49 61 59 54 54 56 55 57 50 49 47 48 50 46 37 46 52 58 60 62 64 62 64 65 66 69 67 72 70 70 73 83 82 76 69 66 70 73 77 83 98
47 66 71 63 53 53 56 57 58 55 52 49 52 52 53 39 56 69 74 70 69 70 74 71 68 67 68 70 72 73 73 78 78 88 89 97 89 80 70 79 83 94 90
77 70 65 64 51 54 50 50 57 58 56 56 55 55 55 55 64 71 73 75 78 78 78 78 73 61 70 68 72 75 77 77 78 74 74 71 78 80 84 89 92 94 89
70 70 59 48 48 50 54 54 55 55 57 55 58 59 61 58 70 72 74 76 82 84 84 81 81 81 78 77 77 84 87 82 75 72 76 70 65 61 68 74 92 96 98
57 43 40 44 47 51 51 55 57 56 55 56 60 68 70 73 73 74 77 84 95 93 85 82 81 81 78 78 88 97 94 87 74 81 76 74 71 70 66 72 90 98 99
42 41 40 45 47 47 52 56 55 57 53 69 66 76 77 78 75 77 81 92 97 94 84 89 86 94 92 89 91 96 96 90 86 79 76 79 80 81 85 86 76 84 98
39 40 43 43 42 47 53 52 51 58 70 79 91 84 79 79 81 77 75 89 96 94 93 88 82 78 81 92 97 94 93 82 81 81 80 79 77 89 88 83 77 75 91
41 44 45 46 44 41 54 51 55 63 74 88 85 85 81 81 75 72 81 88 94 97 95 93 91 91 90 94 96 94 95 98 98 97 97 91 91 86 82 83 78 75 83
46 49 52 52 51 47 52 61 64 64 75 82 87 82 82 80 80 72 74 83 93 96 94 94 94 90 87 93 92 91 88 94 95 97 95 95 85 82 98 87 98 93 99
53 59 59 62 61 56 54 60 66 74 80 86 84 87 87 85 81 82 89 94 96 92 95 95 93 97 97 97 97 98 97 97 94 93 96 88 96 95 94 94 99 99 99
66 67 66 71 66 62 63 66 74 82 82 84 87 94 96 93 89 94 97 96 96 96 97 88 91 91 89 88 91 99 98 99 97 98 97 93 96 98 96 99 97 96 95
74 74 80 76 71 70 68 69 67 72 74 74 74 91 95 87 92 94 95 97 92 91 91 95 94 92 96 95 96 98 99 98 97 97 98 99 99 99 98 98 96 95 95
90 86 76 74 72 73 75 75 82 78 71 73 75 85 85 91 95 93 93 94 98 83 87 89 92 96 92 93 95 97 97 99 99 100 100 100 97 98 98 96 98 98 97
86 84 86 82 81 82 82 83 80 86 88 84 78 77 86 92 95 92 92 86 85 85 93 93 95 90 96 91 94 96 97 97 97 98 99 98 95 95 97 98 96 96 96
78 80 88 91 90 85 88 84 80 87 85 86 86 82 86 91 93 88 89 95 95 94 91 90 95 95 93 94 95 94 95 95 97 98 98 98 99 98 96 97 98 95 96
67 76 79 87 86 85 84 81 80 86 87 91 92 94 91 91 94 94 95 95 93 93 94 93 93 95 96 95 93 93 93 95 95 94 95 95 97 97 97 97 94 95 95
73 74 82 80 86 86 88 84 86 87 92 94 96 96 95 95 96 95 95 95 94 94 94 94 94 94 95 96 95 95 94 94 94 95 96 96 95 95 95 94 94 91 90
84 84 82 84 88 87 87 87 90 90 88 95 95 95 95 96 95 95 95 95 96 95 95 94 94 94 94 94 96 94 95 95 95 96 96 96 95 95 95 95 94 95 95
88 89 88 84 90 88 89 88 91 90 90 95 95 95 95 96 96 95 95 96 95 94 94 94 93 93 93 94 94 95 96 96 96 96 94 92 93 96 96 95 95 94 94
93 93 91 89 91 90 90 92 93 89 92 93 95 96 96 96 96 96 96 95 94 94 94 91 91 90 90 93 94 93 93 96 96 96 96 96 95 94 94 94 95 96 95
94 95 94 93 92 93 90 91 91 90 92 93 95 96 96 96 95 95 95 95 94 91 87 86 84 82 84 87 89 90 90 90 92 91 89 91 94 95 95 95 95 95 96
93 94 94 93 93 94 92 93 92 91 92 94 93 95 96 96 96 96 95 90 86 85 85 87 85 84 83 84 86 88 86 88 88 87 86 87 90 89 90 90 87 94 91

GFSGL_sfc_rhum_009.txt.gz
RH
50 59 61 60 57 57 55 55 57 59 63 70 70 69 61 56 54 57 62 62 66 65 67 65 65 64 65 64 64 61 61 61 68 60 53 53 64 63 63 75 84 93 96
54 60 61 58 55 55 54 55 58 59 61 57 60 56 54 56 58 62 62 60 58 58 59 68 62 48 59 60 62 62 61 60 65 67 58 59 67 68 67 68 62 85 95
53 57 57 55 53 56 61 58 56 60 62 61 52 61 60 61 60 62 58 56 55 58 58 60 58 59 60 62 65 66 65 57 69 77 77 75 76 77 70 73 75 80 95
49 55 58 56 55 62 64 63 61 58 61 62 60 62 65 58 51 52 49 54 61 61 71 75 75 76 77 75 70 72 68 73 72 74 72 68 71 71 81 74 80 82 82
47 59 79 77 68 63 64 61 64 62 59 62 63 62 63 57 44 55 65 74 78 79 79 74 71 71 67 70 65 68 69 73 74 75 76 72 71 78 82 84 86 87 87
80 82 80 77 73 65 57 58 62 62 64 60 63 66 68 48 62 77 76 84 83 81 82 74 71 69 71 74 74 75 73 77 79 77 78 80 78 77 92 96 99 94 96
81 78 82 83 85 82 62 56 61 65 63 65 66 66 70 73 71 70 70 72 78 81 82 83 79 67 75 73 75 76 76 77 77 79 85 79 76 70 72 92 93 99 98
83 82 82 82 75 54 56 61 62 62 64 65 68 72 77 66 72 74 75 78 84 84 84 84 86 86 83 82 81 82 80 76 77 71 79 80 76 72 69 67 77 93 98
85 80 66 54 54 56 58 61 61 63 64 70 70 76 81 87 78 78 79 86 90 89 85 86 83 94 84 82 85 96 93 86 75 80 80 78 78 78 75 80 84 84 86
54 51 51 52 53 54 58 62 63 66 64 77 74 86 83 88 80 76 75 88 95 90 85 82 80 82 83 88 94 97 96 89 84 88 84 81 80 83 88 82 93 94 87
50 50 51 51 52 57 63 65 62 68 78 90 94 88 89 87 87 74 71 90 95 94 90 90 84 85 87 89 92 97 94 87 86 87 87 86 86 83 82 84 95 98 97
50 53 56 60 55 55 62 65 69 77 92 94 93 94 93 90 81 78 77 79 83 96 95 92 91 92 92 91 96 95 94 96 96 97 96 93 90 90 82 86 85 86 88
60 63 65 63 65 62 68 72 84 83 96 98 96 92 90 85 90 79 77 81 88 96 95 96 94 93 92 96 92 94 95 97 95 95 92 95 88 82 82 87 95 98 91
66 72 73 80 76 72 71 76 94 95 97 86 92 93 93 91 86 86 90 93 96 93 94 95 88 87 93 92 92 91 97 98 97 94 92 91 94 93 97 94 98 98 99
79 81 86 86 81 80 78 86 93 92 93 89 89 97 97 93 90 94 93 97 98 94 93 87 91 91 90 92 91 91 99 99 99 98 98 97 98 95 98 99 99 99 98
87 88 95 94 92 91 92 91 75 76 77 73 77 95 93 87 93 89 92 93 89 94 90 97 94 95 96 94 95 94 97 99 99 99 99 99 99 98 97 98 98 98 96
96 93 96 91 93 95 93 92 95 88 74 73 81 84 87 92 92 88 93 90 90 84 90 95 96 95 95 95 95 95 97 97 99 99 100 98 98 99 98 98 98 98 98
94 90 97 96 96 96 96 94 97 96 97 96 88 88 89 92 88 90 90 79 88 84 92 94 96 96 94 94 94 95 95 96 96 96 98 98 98 98 99 98 98 99 97
88 95 95 94 97 95 96 96 96 96 96 98 92 86 92 89 88 90 84 94 94 92 90 92 95 94 95 94 95 95 95 96 96 96 97 97 98 98 99 98 99 99 99
91 79 85 96 96 96 97 96 96 97 98 98 96 95 94 90 93 95 95 95 95 94 93 92 92 93 94 95 95 95 94 94 94 95 96 96 97 96 97 98 98 98 97
96 95 89 90 94 96 97 96 98 97 98 98 97 96 96 95 95 96 95 95 95 94 94 94 94 94 93 93 93 95 95 95 95 96 96 95 96 96 96 95 95 95 95
96 97 96 97 98 96 96 97 97 98 98 99 98 96 96 96 95 95 95 95 96 95 95 95 94 94 95 94 94 95 95 96 95 95 96 95 95 95 96 95 95 96 96
97 98 98 97 98 96 98 97 97 98 99 98 98 97 96 96 96 96 96 96 95 95 94 93 93 93 93 94 94 95 95 96 97 96 96 96 96 95 95 95 95 95 94
98 97 98 98 97 97 97 97 97 99 98 98 98 98 97 97 96 96 96 96 96 92 92 90 88 89 90 92 92 93 93 94 95 96 94 95 94 93 95 95 95 96 95
98 99 98 98 98 98 97 97 98 98 98 99 98 98 98 98 97 96 96 96 92 94 92 91 90 87 88 91 92 91 90 93 92 91 91 91 94 95 95 95 95 95 96
98 99 98 98 98 97 97 98 98 97 98 98 99 99 98 98 97 96 95 92 93 93 92 92 92 93 90 88 88 90 89 90 89 89 89 89 92 93 93 92 90 90 94

GFSGL_sfc_rhum_012.txt.gz
RH
65 60 66 60 64 64 63 68 68 74 77 83 86 80 76 76 72 71 68 68 72 71 73 71 68 68 68 72 74 69 70 72 77 66 60 58 61 63 63 71 69 75 81
58 64 68 62 62 62 65 66 67 67 70 71 72 68 69 68 65 67 71 66 70 66 67 66 63 52 63 67 73 67 66 65 69 71 63 62 64 66 72 76 68 64 78
57 65 64 62 60 63 66 66 65 64 59 63 63 65 66 67 67 68 68 65 66 62 63 66 68 71 76 79 80 83 82 67 75 79 78 75 72 81 71 72 75 77 72
57 62 66 65 64 69 68 67 65 65 65 64 65 66 70 68 62 62 60 67 74 72 77 78 76 74 74 74 72 72 68 73 72 74 75 73 70 65 78 81 84 87 82
73 79 88 80 75 71 71 74 71 62 61 66 68 67 68 64 51 69 80 83 84 83 79 76 74 73 68 72 70 73 73 75 74 73 74 72 68 68 76 80 89 95 93
83 84 83 88 82 85 83 80 70 71 64 62 64 68 69 54 69 74 78 83 73 72 79 76 73 72 73 73 77 78 77 82 82 79 77 80 79 77 77 85 88 93 93
86 86 89 91 91 87 84 74 73 66 63 63 64 68 72 74 69 68 74 76 83 84 85 85 81 70 76 76 78 80 80 80 81 80 84 82 83 78 78 92 91 91 88
91 87 85 90 90 83 70 64 63 62 62 65 69 71 75 69 73 73 77 82 88 86 86 86 86 80 77 77 80 90 82 80 80 74 77 82 77 78 79 76 80 82 85
91 88 68 62 58 61 60 62 62 65 67 68 70 80 86 87 77 76 78 87 88 92 85 83 84 84 81 76 82 95 95 90 77 80 80 77 77 79 82 85 96 97 95
57 53 52 56 57 61 65 66 65 66 66 80 83 84 81 88 81 75 75 88 96 92 87 83 80 83 83 86 95 96 96 90 85 84 84 83 82 84 84 96 95 95 94
53 56 59 60 59 65 64 64 69 75 84 93 93 91 88 86 88 77 74 93 96 94 89 86 86 84 87 92 95 97 94 85 86 89 87 87 88 90 89 87 90 97 96
59 62 63 66 64 58 67 70 72 83 94 95 95 94 94 92 84 82 75 76 81 97 95 93 94 94 80 89 91 96 95 95 96 96 95 91 89 89 89 86 88 91 86
65 70 74 75 70 66 73 80 90 88 97 96 96 95 93 91 92 82 79 82 86 96 93 90 82 80 80 86 87 88 91 92 96 97 93 89 88 85 85 88 90 92 93
74 79 83 84 77 76 79 81 96 96 95 89 95 95 96 92 87 87 94 94 91 96 93 90 89 87 91 94 96 94 97 98 98 97 96 90 89 98 97 94 94 89 97
81 86 87 86 85 86 81 90 92 91 94 96 96 97 97 93 91 95 90 96 97 94 95 96 89 89 90 90 90 92 92 97 99 99 98 98 98 97 98 97 94 95 97
82 86 97 97 96 91 96 93 79 79 74 72 77 86 90 86 92 86 90 93 86 91 91 95 97 94 94 93 94 93 92 95 98 99 100 99 99 99 98 99 97 96 98
95 93 96 94 95 95 96 96 99 89 75 79 77 77 78 90 89 89 90 89 88 83 94 94 95 95 95 94 94 94 95 96 96 97 98 93 91 99 99 98 99 99 98
97 95 97 97 95 95 98 98 98 98 99 97 89 78 82 89 89 90 86 80 89 86 91 94 95 95 94 94 94 95 94 93 94 94 97 99 98 98 99 99 98 98 98
92 97 97 96 95 97 98 97 97 98 98 99 98 88 92 87 90 87 82 94 94 92 90 91 94 94 94 95 95 95 92 95 95 96 96 96 98 100 99 98 98 97 98
92 90 95 97 97 98 97 97 98 98 98 100 100 96 94 92 94 95 94 95 95 93 94 92 92 93 96 96 96 95 95 92 94 95 96 96 96 97 97 97 98 98 96
98 91 92 97 98 98 98 98 99 99 100 100 99 98 95 96 96 96 95 95 95 94 95 94 94 94 95 95 95 96 95 96 96 96 97 96 96 96 97 97 97 96 96
98 98 98 99 99 98 98 98 99 99 100 100 99 98 95 97 96 96 96 96 96 96 95 95 94 94 95 95 96 96 96 95 96 98 98 98 97 97 97 96 96 98 96
97 99 98 98 98 99 99 98 99 100 100 100 99 98 98 98 97 96 96 97 95 94 93 92 93 94 94 94 95 96 96 96 97 98 99 98 98 98 98 98 98 96 96
98 98 98 99 99 99 99 100 99 100 99 99 100 99 98 98 97 97 97 96 96 95 94 94 94 93 93 94 93 93 94 95 96 96 97 97 98 98 97 97 98 96 96
98 98 98 99 99 99 98 99 100 100 98 99 99 99 98 98 97 97 97 97 95 96 94 95 95 93 92 93 93 92 92 95 93 94 92 92 94 95 95 95 96 96 96
98 98 99 99 99 99 98 100 100 99 99 99 99 99 99 98 98 98 97 96 96 97 96 97 94 95 94 90 90 91 90 91 91 91 93 92 93 92 93 94 95 96 97

GFSGL_sfc_rhum_015.txt.gz
RH
75 63 66 72 69 72 73 79 82 87 87 88 77 76 87 85 81 78 79 75 74 76 73 74 73 71 72 75 77 74 75 73 78 66 66 61 66 66 61 67 70 77 82
62 64 70 73 67 69 72 72 75 72 70 66 72 76 76 75 75 73 75 70 72 71 71 73 70 55 67 76 79 78 75 69 72 73 64 66 68 67 76 84 69 67 80
62 65 70 68 66 66 71 70 68 67 63 63 69 73 70 72 71 72 72 72 72 73 74 75 74 77 79 82 82 83 83 70 75 80 78 75 77 76 73 72 76 74 68
65 65 68 70 63 71 69 73 72 67 66 66 67 69 73 68 64 65 65 72 79 77 80 80 80 80 80 78 75 74 69 74 73 75 74 73 70 65 72 76 80 82 82
86 81 82 78 76 80 88 87 82 76 72 70 69 67 68 62 53 74 79 81 80 81 80 76 75 75 69 69 70 76 77 80 79 76 74 74 73 75 78 76 84 85 88
94 88 86 91 92 94 94 91 85 84 71 62 62 66 68 55 69 71 75 85 83 80 80 76 77 75 77 76 76 79 80 83 87 88 88 86 78 77 79 81 88 91 92
90 92 90 91 94 94 90 89 84 70 63 63 64 68 72 73 68 70 75 82 88 86 88 88 82 74 77 78 78 80 81 82 83 84 92 87 82 77 81 88 86 87 88
94 94 91 92 92 84 70 64 62 63 64 65 67 72 79 73 70 71 73 86 90 88 88 88 86 88 84 76 76 84 82 78 74 74 85 79 82 79 76 84 84 85 84
80 62 60 60 58 62 64 68 68 67 65 68 73 82 83 83 74 72 75 92 92 90 86 86 87 86 84 81 88 95 91 86 75 80 79 79 79 79 81 88 96 97 94
56 57 60 61 62 66 69 67 64 67 69 82 80 83 79 86 79 76 78 92 96 92 88 80 76 76 82 85 93 96 96 86 82 82 84 84 85 85 85 88 95 94 94
61 62 62 63 65 67 66 66 70 78 85 93 92 89 87 85 91 81 76 87 95 93 89 86 89 86 84 87 92 93 93 92 92 89 90 93 90 91 87 86 93 97 94
63 66 69 74 66 63 70 74 78 84 93 93 95 94 93 93 85 82 76 76 81 96 94 96 91 79 76 77 81 83 86 91 96 96 96 96 96 95 88 85 88 96 89
70 76 81 78 74 69 80 85 91 85 95 95 97 96 94 93 94 80 80 84 83 96 97 93 94 76 81 89 91 93 96 96 94 96 95 94 92 87 86 88 95 93 98
74 81 83 84 79 80 80 82 96 96 97 93 96 95 97 93 89 89 94 91 91 96 94 94 94 85 88 94 95 95 97 98 98 97 96 95 96 98 97 96 97 97 98
80 83 87 89 89 85 80 91 93 94 96 96 97 98 96 93 92 91 92 95 97 96 95 92 90 91 90 88 88 88 90 93 93 98 98 98 98 98 98 98 98 98 98
80 81 95 98 97 92 96 93 80 78 76 74 76 82 87 83 86 89 90 93 93 91 92 94 95 95 95 93 93 93 91 93 94 94 97 99 99 98 96 99 97 97 96
97 95 96 95 96 95 96 96 98 88 77 78 77 73 75 82 89 90 91 93 92 83 94 94 96 96 96 93 94 94 95 94 93 93 96 98 98 98 98 98 97 98 98
97 96 99 99 98 97 98 98 98 99 100 97 88 79 80 86 90 90 91 90 89 88 92 94 95 95 94 93 92 90 87 92 94 94 95 96 96 97 97 97 98 98 98
93 96 97 99 99 98 98 98 98 99 98 99 98 93 92 85 89 89 90 94 94 93 91 91 94 93 94 93 95 96 94 92 96 96 96 96 97 98 95 95 97 97 97
91 95 96 98 98 99 97 99 98 99 98 100 99 99 95 93 94 95 95 96 95 94 94 93 92 93 95 95 95 96 95 92 94 95 96 97 97 96 96 96 96 97 98
97 97 96 98 99 100 98 98 99 99 100 100 100 99 96 96 96 96 95 96 95 94 95 94 95 95 94 94 93 95 96 96 93 96 97 97 97 99 98 98 99 98 98
98 98 99 99 99 100 98 99 99 99 100 100 100 98 95 97 96 96 96 96 96 95 95 95 94 94 94 94 95 95 95 96 95 96 98 98 98 98 98 98 98 98 97
98 98 98 99 99 100 100 99 100 100 100 100 100 99 98 98 98 97 96 97 95 94 94 93 96 94 92 94 95 95 96 96 96 97 100 99 98 98 99 99 99 98 98
98 98 98 99 99 100 100 100 100 100 98 99 100 100 99 98 98 97 97 97 94 94 95 95 94 94 93 93 93 93 94 95 96 96 96 97 97 97 97 98 98 98 99
98 98 98 100 99 99 100 100 100 100 100 100 99 100 99 98 98 98 98 98 97 96 94 95 95 95 94 93 93 92 92 96 93 95 94 92 93 94 98 97 98 98 97
98 98 98 99 98 98 100 100 100 100 100 100 99 99 99 98 98 98 98 97 97 97 96 96 94 94 95 92 92 92 91 91 91 91 94 90 91 93 93 93 94 96 98

GFSGL_sfc_rhum_018.txt.gz
RH
78 68 71 66 70 75 76 81 87 91 93 92 84 79 79 78 88 93 88 81 78 76 74 76 76 75 79 80 83 80 79 80 82 68 67 66 70 72 63 73 73 76 84
71 70 70 74 76 73 77 79 82 78 74 71 73 73 76 80 79 78 77 75 75 73 72 74 74 57 73 78 81 82 83 78 79 79 69 72 71 68 68 73 68 66 75
79 77 76 74 73 71 75 74 72 72 73 77 74 72 71 74 73 71 69 71 72 74 77 80 79 79 79 81 79 79 77 68 74 77 73 67 71 77 72 72 73 74 69
89 91 90 86 77 78 89 90 87 83 84 82 75 74 72 66 62 63 63 72 78 78 79 79 79 78 76 74 72 73 70 75 74 76 74 72 71 69 73 76 79 79 79
94 94 92 90 91 91 91 90 87 86 79 75 66 66 67 62 52 75 77 79 78 77 79 76 74 74 67 68 69 76 79 83 79 78 80 78 76 79 82 75 78 79 81
89 90 91 91 87 94 92 92 91 90 86 66 64 68 71 57 71 71 77 86 83 83 83 78 75 72 78 76 76 77 81 84 87 90 86 82 76 75 75 81 86 87 88
94 88 94 92 92 94 92 92 92 74 66 66 66 69 71 74 69 66 68 77 86 88 90 86 80 72 77 70 72 72 74 81 84 88 92 86 85 76 74 83 87 84 82
87 77 75 77 82 75 66 64 66 67 66 66 69 74 80 69 67 69 71 83 88 88 87 85 87 87 76 77 80 91 87 80 76 72 74 77 76 76 79 81 83 86 84
74 64 63 68 64 65 67 70 66 66 68 70 74 80 80 78 72 72 77 93 93 92 85 87 88 86 76 76 85 94 90 85 75 77 81 86 86 81 81 89 96 95 93
66 67 65 67 68 72 71 70 68 72 71 82 77 79 78 85 78 79 78 91 96 93 78 76 77 81 84 85 90 96 96 93 93 89 88 84 85 91 92 93 95 94 91
63 62 68 73 72 72 73 73 77 82 85 92 93 91 87 85 92 80 74 87 94 94 91 85 87 90 81 73 75 88 90 82 87 95 94 93 92 87 88 90 95 96 94
64 70 76 79 76 68 78 81 81 85 93 94 96 95 95 94 86 80 75 79 85 97 94 93 96 93 74 79 84 90 94 97 96 96 95 93 93 91 86 86 90 96 94
73 76 81 82 76 74 81 87 92 91 97 97 99 96 94 94 93 80 82 80 86 96 96 94 86 80 79 88 85 90 94 95 96 96 94 91 90 90 93 96 97 97 97
79 82 86 90 84 83 78 81 97 97 98 96 96 96 96 92 88 89 92 94 90 94 96 94 90 86 88 89 92 92 95 96 96 96 96 95 96 97 96 96 96 96 97
82 82 84 87 92 92 78 90 95 94 96 95 97 98 97 93 91 88 91 95 96 96 97 94 89 88 88 86 87 88 89 89 93 94 96 96 97 96 96 97 95 96 96
85 85 95 97 98 95 96 93 80 77 77 71 72 78 86 77 82 86 90 92 93 92 92 94 95 95 94 91 93 89 87 90 91 93 95 95 97 97 91 93 95 92 96
98 96 98 96 99 98 98 98 98 88 80 75 78 76 74 73 86 88 90 92 92 88 93 94 96 95 94 92 92 92 93 93 94 93 94 94 95 96 96 97 96 95 96
98 96 98 99 99 99 100 99 100 99 100 96 86 81 79 77 86 88 88 86 89 88 91 93 95 94 93 91 91 92 91 92 92 93 94 95 96 96 96 94 95 96 95
94 98 98 100 100 99 100 98 98 99 100 98 98 92 95 80 80 86 87 94 94 92 91 90 94 93 93 92 95 94 95 95 95 96 95 95 96 94 94 93 95 94 94
88 94 98 99 99 99 100 98 98 99 99 99 99 99 97 92 94 94 95 96 95 94 94 92 92 92 94 94 95 95 94 95 94 94 96 97 96 96 96 94 97 97 95
99 97 98 100 99 100 99 100 99 99 99 100 99 100 96 96 96 97 95 95 95 94 95 93 94 94 93 93 92 94 94 95 94 94 96 96 98 98 96 96 97 96 95
98 98 98 99 99 100 100 99 100 99 99 100 100 98 95 97 97 97 96 97 96 94 93 94 93 94 94 94 95 96 96 96 95 94 95 97 98 98 97 97 97 96 95
96 98 98 99 100 100 100 100 100 100 100 100 100 99 98 99 98 97 98 97 95 94 94 94 96 94 92 94 95 95 97 98 98 97 96 97 97 98 98 98 98 97 96
98 98 99 100 100 100 100 100 100 100 100 100 100 100 100 99 98 98 98 98 97 96 96 95 95 94 92 92 93 92 93 95 96 96 97 96 96 96 96 96 98 99 98
98 98 98 100 100 100 100 100 100 100 100 100 100 100 99 99 98 98 97 97 97 96 94 94 95 94 94 94 93 92 92 96 93 95 94 93 92 93 95 94 96 95 97
98 98 98 98 99 99 98 98 100 100 100 100 100 100 99 99 98 98 97 96 96 96 94 96 94 94 94 92 92 95 93 92 92 90 93 90 91 93 93 92 91 93 95

GFSGL_sfc_rhum_021.txt.gz
RH
61 57 62 60 62 59 57 62 67 72 74 72 64 62 66 72 69 68 70 68 67 64 62 60 58 56 52 49 48 46 45 46 51 42 38 40 46 46 42 43 45 46 46
58 61 63 66 61 56 60 62 66 62 69 73 80 87 87 79 62 58 60 58 55 52 49 50 48 38 49 51 51 53 52 49 51 54 44 44 47 47 48 49 41 34 39
60 63 68 67 60 65 73 79 76 83 85 84 81 71 65 64 54 50 48 48 48 49 51 54 54 57 55 51 51 50 47 41 47 50 48 44 44 43 46 47 49 49 40
63 67 74 69 72 80 81 79 78 73 70 66 67 57 55 48 44 45 46 51 52 52 55 54 54 55 54 52 49 50 48 51 51 52 51 50 50 49 50 54 56 55 57
71 71 74 74 76 73 75 73 70 70 70 75 78 57 56 50 42 55 51 54 54 54 54 52 54 56 65 63 54 54 55 60 66 70 68 58 56 57 63 57 58 56 59
68 74 80 88 87 85 88 78 74 77 74 55 52 54 54 44 69 68 64 52 52 55 58 54 53 62 60 69 74 73 72 76 76 75 68 67 58 55 56 63 72 74 74
71 72 76 78 71 69 64 52 52 54 53 52 52 53 55 57 64 65 66 57 61 61 60 59 54 50 64 61 69 75 80 81 80 72 78 68 64 59 59 69 73 72 66
60 62 54 54 52 52 51 52 53 51 52 52 54 56 55 50 65 68 71 65 69 65 63 61 64 69 70 73 75 79 70 68 70 66 70 66 62 58 59 60 68 72 70
55 51 50 53 52 53 53 54 52 52 53 54 54 56 56 60 65 73 76 76 76 73 66 66 66 72 74 83 88 94 79 69 64 76 78 79 78 78 75 79 91 89 89
56 55 54 57 56 56 57 56 54 55 54 59 58 58 66 72 72 78 74 78 84 74 70 65 72 76 86 89 97 91 89 71 65 66 65 66 78 77 82 96 90 89 78
54 55 55 58 59 57 56 54 54 55 67 83 87 82 74 73 82 75 72 83 80 80 73 70 76 88 93 94 75 84 88 83 82 80 75 71 78 77 74 77 81 87 85
53 55 58 60 56 54 55 52 54 61 76 87 89 84 72 82 73 72 74 77 77 89 85 82 90 86 75 75 79 85 85 87 89 90 89 84 83 79 72 74 79 77 74
58 58 58 59 56 56 57 59 62 61 71 79 79 76 76 71 69 68 82 78 74 89 91 91 90 82 76 76 78 83 84 84 87 89 84 78 73 75 80 88 94 88 98
59 60 59 62 65 64 61 58 65 71 73 71 77 79 79 67 68 71 76 74 76 88 89 88 90 81 73 74 74 78 84 87 88 86 86 81 80 80 80 77 84 82 89
66 66 63 67 71 72 66 67 72 74 77 80 75 77 84 82 78 85 85 88 91 90 93 90 86 78 73 72 74 74 76 77 81 84 86 83 80 78 77 77 80 81 87
68 67 72 75 75 72 70 70 72 78 78 74 71 75 76 73 80 82 85 88 91 91 87 89 92 90 85 78 81 79 77 79 80 81 85 85 86 87 84 85 85 81 79
83 83 75 82 74 74 75 77 78 72 76 76 75 74 72 71 80 84 84 89 89 88 89 89 92 92 88 78 78 78 82 83 82 80 84 87 88 82 85 86 88 87 84
91 92 83 81 83 83 83 83 80 84 88 82 75 78 78 74 78 80 82 80 84 85 86 88 90 91 87 80 78 79 80 82 82 83 86 88 90 87 83 84 84 90 86
85 80 87 89 92 91 88 85 83 83 82 80 75 75 81 76 79 80 82 86 87 87 86 85 89 87 88 86 90 89 90 89 88 89 88 87 91 87 83 81 84 86 87
83 81 92 88 89 86 84 85 82 83 81 81 80 83 79 74 85 87 87 90 90 87 89 86 86 86 87 87 90 91 87 88 88 85 89 91 92 89 88 87 88 86 82
84 82 92 87 87 86 87 86 84 86 85 84 85 90 92 81 86 86 85 89 87 81 84 81 84 86 86 87 84 88 86 89 87 88 88 87 91 90 86 86 86 82 80
83 85 88 90 88 89 86 86 87 87 86 86 86 84 89 85 84 85 86 82 83 79 78 81 81 81 84 86 88 91 89 90 89 89 89 88 86 86 85 84 85 85 82
89 90 89 86 89 94 92 87 88 90 88 89 88 85 85 87 87 85 85 86 80 82 82 82 84 81 81 84 85 86 90 90 89 89 89 88 85 87 87 85 83 82 82
90 93 90 90 94 91 94 95 93 93 90 90 92 90 88 89 88 86 86 86 84 84 84 84 82 83 81 83 81 80 82 87 84 82 84 84 83 83 85 83 84 86 83
93 93 92 92 94 94 94 93 94 94 92 92 92 91 86 89 85 86 88 89 86 86 82 84 84 80 82 84 84 83 86 87 85 85 78 78 82 83 83 81 86 81 86
88 89 91 92 94 94 94 94 94 94 93 92 93 92 91 88 86 89 88 86 86 85 81 83 83 82 82 74 77 86 88 85 84 84 82 76 80 81 80 82 82 80 82

GFSGL_sfc_rhum_024.txt.gz
RH
45 48 52 52 51 47 45 48 53 59 65 66 75 84 88 89 84 77 73 66 62 59 55 52 48 42 39 37 37 38 40 38 40 34 28 30 34 37 35 37 38 38 38
43 46 50 51 50 47 50 51 55 59 72 84 91 84 68 60 64 64 55 49 47 45 44 43 41 30 40 40 37 41 40 37 38 43 35 33 36 36 38 41 34 28 32
39 43 47 49 50 52 57 62 67 68 69 67 61 56 51 49 45 43 41 43 44 43 42 42 42 43 46 43 42 40 38 31 36 38 38 34 34 33 36 37 38 39 31
46 46 48 56 60 66 64 65 62 55 54 54 57 63 65 52 44 41 41 44 44 42 46 46 45 47 48 46 42 43 38 40 40 40 39 38 36 36 37 40 43 39 40
47 45 53 63 76 83 86 71 65 56 53 53 54 46 44 42 33 49 45 45 43 42 44 42 45 49 59 60 51 49 46 44 42 47 57 53 49 47 48 46 50 49 51
47 47 56 61 60 62 61 56 47 43 40 41 42 44 45 34 67 65 62 46 43 43 46 44 43 54 50 68 70 73 69 65 67 69 65 66 59 55 51 55 60 65 73
48 46 46 46 46 45 40 38 42 44 42 43 43 44 46 46 62 64 66 50 50 50 49 46 40 34 56 54 66 72 74 77 81 70 75 66 61 56 55 63 67 69 64
48 48 43 45 42 41 42 44 44 42 44 44 45 46 47 41 62 64 69 58 56 52 50 47 50 59 61 67 71 71 71 65 66 65 70 60 57 61 62 61 64 66 67
49 52 51 46 44 43 45 45 43 44 44 44 45 48 49 52 65 68 72 67 64 62 58 60 62 69 70 81 86 89 71 64 55 66 70 75 76 75 74 74 90 83 89
45 45 42 44 45 46 43 45 44 42 43 50 55 56 61 63 66 70 68 73 86 75 69 63 70 69 83 89 94 96 90 65 62 68 67 68 70 72 82 82 83 87 82
39 43 42 43 43 41 43 42 42 45 55 83 96 77 71 70 74 70 66 81 84 79 72 68 66 95 86 77 76 80 79 80 77 76 76 79 79 73 69 70 74 87 84
42 44 44 43 40 38 44 43 45 49 64 94 88 87 72 86 64 64 65 75 79 88 83 78 84 88 79 76 76 79 81 85 89 90 87 82 79 74 72 74 74 76 74
45 44 44 42 43 44 47 49 51 51 66 80 80 76 76 65 59 62 71 74 73 84 85 84 92 85 81 78 77 76 84 90 86 87 84 75 75 69 72 73 79 80 80
47 47 45 46 51 47 45 46 53 64 75 67 72 74 73 63 60 67 73 73 73 81 85 86 88 90 90 88 80 76 86 83 84 85 79 77 76 80 81 74 78 78 87
51 52 51 52 56 54 52 53 60 63 74 76 70 71 77 78 73 76 82 82 86 85 91 89 84 83 83 76 74 73 73 75 82 83 84 86 81 78 84 76 78 75 86
54 53 56 64 63 59 56 59 67 73 73 72 70 76 75 67 71 75 78 82 87 88 85 87 91 92 88 77 77 77 81 81 77 78 85 83 85 88 84 90 86 79 84
70 68 66 72 65 62 64 66 71 65 66 71 70 70 70 69 74 74 75 80 84 82 86 86 91 92 90 80 77 78 81 80 80 76 79 79 81 82 86 87 88 92 89
90 87 75 70 71 72 74 76 74 77 81 72 62 70 70 68 73 73 74 71 75 77 81 86 89 89 86 79 77 79 78 81 80 78 82 84 84 83 83 81 82 88 89
77 72 81 81 83 82 83 78 76 75 75 66 63 61 64 66 74 75 71 78 80 79 79 80 85 83 79 75 83 84 87 86 84 86 84 83 88 85 80 78 82 88 84
64 79 83 74 79 80 75 76 74 74 71 68 67 68 67 66 80 81 81 84 83 78 80 76 72 74 80 80 84 84 78 83 83 82 86 89 90 88 82 81 84 85 83
67 65 78 72 77 75 76 78 75 76 75 70 72 80 82 77 78 79 77 77 73 69 74 70 74 76 78 80 77 81 76 81 81 82 84 84 90 89 82 81 85 84 81
70 78 77 78 76 80 78 74 77 78 75 72 73 73 77 82 76 76 74 76 78 73 71 72 71 71 74 78 80 85 80 82 80 80 82 83 82 83 85 83 80 82 78
77 80 76 73 78 79 85 79 82 84 81 78 74 72 71 78 80 76 76 78 74 75 75 73 76 73 73 76 76 77 81 83 83 80 81 79 74 78 81 82 78 81 78
78 88 77 78 89 82 84 86 85 84 87 81 80 79 77 78 80 79 82 82 76 76 76 76 73 72 73 77 75 71 69 81 79 77 76 75 73 74 75 73 74 76 78
90 94 92 90 90 92 90 85 86 86 86 86 82 81 77 80 77 81 80 77 75 75 71 74 76 71 72 72 75 76 81 80 77 79 73 68 72 73 74 71 76 71 74
84 82 87 88 87 89 89 88 88 89 87 87 82 81 83 79 79 83 77 73 73 71 68 72 72 72 72 66 69 77 79 82 81 77 73 66 71 73 73 73 72 71 70

GFSGL_sfc_rhum_027.txt.gz
RH
32 33 37 37 39 41 41 43 48 56 59 62 65 73 72 65 60 62 63 60 61 59 57 59 55 50 45 41 43 50 54 54 57 46 36 37 41 41 35 39 38 41 43
28 31 35 38 38 40 47 56 56 55 57 59 65 64 57 54 47 47 50 45 45 46 49 48 39 28 40 40 38 39 39 37 40 46 38 38 41 40 42 45 32 26 35
32 36 38 38 46 53 56 58 53 57 60 61 62 64 54 46 45 45 42 41 40 39 39 39 38 40 43 41 41 41 39 31 38 39 40 36 37 36 39 40 40 42 30
35 36 39 47 57 59 70 82 74 64 62 61 55 46 42 35 34 35 34 42 42 38 41 41 41 43 44 43 40 42 38 40 40 42 42 40 38 37 39 42 44 41 40
38 37 40 54 55 61 65 63 56 54 40 37 37 36 36 34 30 44 44 47 44 42 42 37 40 47 59 56 43 46 47 48 47 45 45 44 42 43 47 45 49 50 52
38 38 40 48 46 48 49 48 44 43 42 37 36 37 38 29 71 65 60 50 46 45 45 42 40 50 48 68 71 72 66 59 62 66 63 60 57 57 59 60 62 69 83
38 35 41 44 45 46 42 42 42 43 37 38 38 38 40 40 61 62 67 52 52 50 49 48 42 33 50 43 62 73 75 82 83 69 74 66 61 56 56 63 68 69 68
32 35 37 46 47 43 39 38 38 37 39 40 41 40 42 38 69 68 69 58 56 54 54 51 49 51 54 62 65 66 65 63 66 63 69 61 61 61 69 64 69 70 74
31 34 38 44 39 37 37 38 37 38 40 39 40 51 54 57 70 72 67 67 65 62 54 60 62 66 68 70 90 92 71 69 58 73 78 76 72 74 74 72 83 89 93
29 31 36 37 37 36 36 38 38 37 37 44 57 55 64 65 71 67 67 75 84 74 64 58 66 66 77 87 93 89 86 74 74 66 67 64 66 70 82 80 80 82 78
28 34 38 36 35 34 36 36 36 38 47 80 98 74 66 72 77 66 68 82 74 83 74 75 71 92 92 80 81 84 84 84 74 72 74 74 74 77 80 77 82 85 85
36 38 40 38 34 32 38 38 38 42 56 99 100 91 77 81 65 64 70 67 76 83 81 76 88 78 82 84 85 83 91 82 85 92 90 83 90 94 80 84 89 85 80
44 43 44 40 35 34 39 40 43 44 58 83 81 80 79 66 62 64 63 70 73 81 83 88 79 93 87 89 92 87 86 89 93 90 84 77 72 71 75 73 71 69 88
44 48 49 44 43 42 39 40 47 57 70 72 70 74 74 64 65 64 70 78 74 76 82 83 93 94 92 93 92 87 90 93 87 89 88 80 79 82 86 69 74 82 86
57 68 55 46 46 57 51 48 53 58 70 71 68 71 80 80 69 69 77 83 86 84 90 91 86 84 86 86 83 80 84 78 86 86 88 86 81 75 92 87 82 77 78
81 73 53 57 61 62 59 56 70 71 71 70 68 74 73 66 64 70 72 73 77 81 86 89 91 92 91 87 88 85 80 81 78 81 84 85 84 82 82 85 88 90 83
92 65 59 71 69 71 67 69 77 70 84 80 72 71 66 66 64 69 71 70 82 76 86 87 92 92 92 87 86 84 83 83 81 77 82 84 86 84 91 84 84 85 91
84 86 72 67 77 79 78 81 79 78 80 77 90 77 65 62 64 66 67 69 71 75 80 86 89 90 88 72 72 76 80 84 86 85 87 86 89 87 88 87 87 87 80
78 73 83 83 88 86 82 85 79 80 80 74 64 70 64 58 78 86 79 78 80 78 77 80 85 83 74 74 83 83 85 88 88 91 88 87 90 89 83 83 88 82 81
58 78 78 74 83 86 84 82 78 78 76 75 68 71 66 61 81 86 80 82 80 71 72 67 66 68 76 77 82 85 84 83 84 85 90 91 89 87 85 85 87 87 79
57 66 81 77 78 84 83 80 82 79 81 76 75 88 68 70 85 82 77 80 72 68 74 69 71 73 74 75 72 79 77 83 79 80 83 83 91 90 82 83 82 80 77
66 72 78 84 84 86 84 76 80 82 82 81 77 72 75 84 75 75 76 79 77 71 69 72 71 69 70 73 74 79 77 80 80 80 81 80 78 81 86 84 82 87 79
79 83 82 80 82 82 87 85 85 88 85 84 82 74 74 77 73 74 79 83 75 74 73 72 76 72 72 75 74 72 73 77 79 82 84 80 76 76 79 76 78 76 84
80 88 82 83 90 84 88 90 89 84 85 83 87 85 78 75 75 72 79 83 81 75 74 75 72 69 71 75 74 72 69 78 77 75 84 78 72 73 74 68 73 71 71
91 90 92 89 90 92 91 89 91 91 90 89 87 86 78 75 70 71 73 72 72 74 70 71 73 69 69 70 72 74 78 79 80 82 82 70 72 73 74 68 76 67 69
85 85 86 92 91 93 90 89 91 91 89 88 89 87 84 76 69 72 71 71 70 69 67 69 68 68 69 64 69 75 77 77 80 84 80 68 71 71 74 71 71 68 67

GFSGL_sfc_rhum_030.txt.gz
RH
37 42 50 50 52 56 61 66 66 69 68 70 67 73 72 72 73 77 78 76 81 80 74 71 70 66 64 64 66 73 79 81 95 76 59 48 45 44 40 50 55 54 61
39 44 48 51 53 58 61 64 69 66 62 69 72 74 74 65 62 63 63 60 60 62 58 58 56 39 58 59 61 60 60 56 59 58 56 55 50 49 52 55 41 32 46
37 42 47 51 58 69 70 74 77 79 74 75 70 68 65 63 55 53 50 53 56 56 53 54 53 54 58 63 60 58 58 46 55 56 56 57 57 54 50 52 53 56 42
38 42 48 62 62 68 70 75 78 78 74 68 62 54 54 46 41 46 48 59 62 55 57 56 54 53 56 60 59 65 52 58 58 60 58 57 59 54 55 58 67 64 60
40 44 48 57 58 60 65 66 62 61 55 54 52 52 53 45 44 63 60 62 64 60 58 52 53 57 60 64 49 61 64 69 71 68 68 70 69 69 73 74 77 78 79
39 44 45 52 56 61 63 63 60 58 56 53 52 53 55 36 72 68 69 70 63 62 62 58 57 61 56 66 73 77 81 86 80 76 72 75 71 68 70 80 85 89 90
37 36 41 48 54 59 52 50 54 59 54 56 56 55 59 60 70 69 71 70 70 68 67 65 60 47 64 60 68 71 77 80 85 86 91 80 77 71 70 74 80 81 82
35 34 35 47 48 53 53 50 54 54 58 58 60 65 66 54 74 74 73 75 74 73 71 65 66 74 73 74 75 82 85 75 72 70 91 87 74 72 79 87 96 97 97
36 33 34 43 48 49 49 55 53 56 58 58 60 69 70 73 72 74 78 83 81 78 68 71 71 72 70 72 85 88 87 83 66 72 93 89 88 85 84 82 91 91 88
38 45 51 47 46 51 53 53 54 55 52 78 77 76 76 79 77 77 75 92 92 83 76 72 71 73 85 94 96 97 95 85 79 85 83 75 70 71 75 81 90 96 92
52 52 48 48 50 50 50 51 51 58 72 95 98 95 85 80 85 70 81 94 93 87 82 79 77 81 91 77 80 91 90 86 92 89 84 82 82 82 82 81 85 95 96
47 53 62 62 50 45 52 55 57 61 77 94 94 91 87 85 73 69 89 74 68 88 88 84 94 77 84 87 87 89 92 95 94 94 94 95 94 94 94 97 98 98 98
62 72 68 57 56 49 57 60 65 65 86 92 90 86 85 80 79 70 67 64 69 84 83 87 83 91 92 94 92 95 96 97 96 98 96 97 92 90 90 91 91 87 91
60 72 75 76 70 55 57 60 77 86 90 79 83 88 90 79 78 79 76 85 77 79 84 86 93 93 87 93 95 95 95 98 97 97 97 96 96 95 94 98 96 95 96
80 78 82 79 70 74 70 73 81 80 86 92 90 92 94 92 83 69 72 85 85 87 88 93 93 90 91 90 91 87 93 92 94 94 95 94 89 90 93 93 96 98 98
84 89 95 94 86 83 82 80 73 78 75 72 71 80 91 74 67 62 64 67 67 79 91 95 95 95 95 94 95 94 93 96 94 92 93 91 94 92 93 92 94 95 94
87 81 82 86 84 83 88 83 90 83 80 87 82 77 74 70 65 63 65 65 71 89 94 94 96 96 95 94 92 92 95 95 91 90 95 94 93 92 96 95 92 94 95
94 84 92 87 87 91 92 93 88 91 93 89 82 87 83 64 60 71 74 70 81 82 90 94 95 95 94 82 83 86 87 93 90 91 94 95 94 96 96 94 94 96 94
85 85 92 82 90 93 93 90 93 91 90 86 85 93 96 61 61 77 70 94 90 86 84 92 95 93 86 85 90 89 90 90 90 90 92 93 95 97 95 95 94 95 94
75 80 83 84 89 91 92 96 92 91 90 89 88 95 92 86 93 94 94 95 94 92 88 82 81 84 88 87 89 90 88 88 88 88 88 90 94 95 95 96 94 96 95
75 76 81 84 89 92 96 92 93 93 92 90 91 96 78 90 95 94 94 96 95 94 94 88 88 88 87 86 85 88 87 89 88 89 90 90 91 89 91 95 93 91 94
85 87 89 90 91 93 92 94 89 91 91 92 95 93 88 95 97 92 94 95 95 93 94 93 90 89 88 87 89 90 88 89 90 91 90 91 89 86 87 89 91 94 91
88 89 88 87 90 89 92 90 93 92 93 94 92 94 94 95 94 92 93 95 94 94 94 93 94 93 92 92 90 88 89 93 92 90 92 94 91 87 88 90 87 91 94
85 88 87 89 91 91 91 92 94 90 91 93 93 95 95 94 92 90 91 93 92 94 93 93 93 90 91 92 93 90 87 89 90 91 93 95 89 88 87 91 87 89 92
88 91 91 91 91 92 91 90 90 92 93 93 94 95 96 94 92 91 90 91 92 91 89 90 93 87 86 86 89 88 89 89 90 90 93 91 87 89 89 94 89 90 90
90 89 89 91 92 92 92 92 91 91 92 93 93 96 95 94 92 90 90 90 92 90 87 91 88 83 83 88 85 87 87 88 89 88 92 90 91 94 92 91 89 92 89

GFSGL_sfc_rhum_033.txt.gz
RH
46 50 57 59 64 69 70 74 77 79 75 77 80 75 78 83 81 83 84 84 85 85 82 77 75 71 79 81 79 78 87 88 94 78 82 72 72 65 52 61 66 71 66
46 51 54 57 69 77 79 83 85 88 86 82 78 78 76 80 78 76 74 68 68 67 66 68 65 49 69 71 74 72 73 71 74 72 70 66 59 56 60 58 47 36 48
45 50 54 63 68 76 80 80 83 86 90 87 83 82 77 74 65 61 65 68 69 67 65 66 67 64 65 66 64 70 75 56 69 73 70 70 68 63 56 55 56 57 43
47 50 56 70 66 72 77 80 83 83 86 85 67 64 63 58 59 62 61 70 72 68 71 70 68 68 68 70 68 69 61 70 71 74 79 77 76 72 73 79 79 76 74
46 50 59 68 67 68 69 71 69 68 64 64 60 61 63 59 56 72 71 76 76 76 75 65 64 66 65 70 66 79 75 78 81 83 83 82 80 81 75 83 85 86 83
50 53 55 66 66 72 70 68 68 64 61 57 58 64 72 51 76 72 76 81 77 75 76 74 74 66 66 71 73 74 77 87 92 91 88 88 81 78 78 89 91 93 92
51 51 50 60 63 66 63 64 61 65 59 60 61 72 73 76 75 71 74 81 80 80 81 80 65 51 71 76 77 79 78 78 84 81 91 91 90 83 77 84 90 92 86
49 49 54 66 61 63 72 63 59 57 59 60 73 75 74 61 74 75 80 85 86 83 82 79 76 79 81 76 76 86 88 90 89 79 86 88 87 83 84 80 89 96 98
63 69 72 70 71 77 68 64 54 55 63 70 78 81 83 83 79 82 82 94 94 92 82 82 76 77 75 73 95 98 93 92 76 74 75 74 82 90 98 98 98 97 90
50 71 74 79 80 92 84 67 56 60 78 84 84 90 85 90 81 76 84 99 99 91 89 77 76 72 80 92 94 98 97 88 86 87 89 82 76 78 79 83 86 94 90
59 66 76 82 76 78 61 54 57 76 91 98 98 93 88 87 88 69 80 95 92 93 87 83 79 76 79 84 91 97 94 90 94 95 91 87 86 90 89 89 98 97 96
61 68 90 87 77 57 63 64 67 84 92 96 96 96 95 93 72 75 70 66 69 92 89 86 90 89 93 90 91 94 96 97 97 96 96 95 95 97 97 95 94 95 96
77 86 86 79 74 69 63 72 78 85 94 96 96 97 97 93 92 74 70 68 75 87 86 86 91 91 82 92 93 91 96 97 98 98 97 98 96 98 99 99 98 98 94
92 90 87 89 87 81 74 78 95 96 96 96 97 97 98 96 96 93 83 97 86 85 90 89 96 86 88 94 94 92 95 96 96 96 96 96 95 97 98 92 98 95 98
88 83 90 96 87 83 79 86 92 89 90 95 96 97 98 99 94 75 72 80 82 86 92 93 91 89 90 90 91 92 93 90 94 95 96 95 92 91 92 94 98 98 98
92 83 89 98 96 95 96 94 78 81 80 79 80 88 94 79 72 68 65 67 66 82 89 95 96 95 95 94 94 93 91 93 94 94 96 94 96 95 96 96 98 98 99
93 94 97 96 97 97 97 98 98 89 82 79 84 85 83 79 71 62 67 68 64 76 92 95 96 96 95 92 89 89 93 95 93 94 95 95 95 95 97 98 96 98 98
98 92 96 97 91 89 92 97 95 99 99 98 85 86 89 80 64 71 69 72 94 90 90 95 96 96 94 88 89 91 92 92 91 91 94 94 94 96 96 97 98 99 98
83 88 94 91 89 92 96 97 98 98 98 98 96 96 97 75 63 69 74 97 98 97 96 88 93 94 92 91 94 94 95 94 93 94 93 93 94 95 94 96 96 97 98
90 86 89 96 96 96 95 98 99 97 98 98 98 99 97 92 95 98 99 99 98 97 98 97 91 92 95 93 95 95 92 92 92 93 94 94 94 94 95 95 97 96 97
96 93 86 87 93 97 99 99 98 99 97 98 98 98 90 93 96 98 98 99 98 97 98 97 98 97 97 93 93 94 95 95 93 94 95 95 94 96 91 93 94 94 94
94 94 88 95 96 96 97 98 98 98 98 99 98 99 97 98 98 99 98 99 99 97 98 97 97 97 97 94 96 97 96 96 94 95 95 95 95 95 93 94 92 96 94
94 95 95 92 95 96 96 96 96 99 99 98 98 97 98 99 98 97 97 99 98 98 98 97 97 97 96 96 97 97 98 96 96 97 97 96 96 94 94 96 94 96 98
92 92 92 93 98 97 97 98 98 99 99 98 99 98 100 98 98 95 97 98 98 98 98 96 97 94 95 95 97 97 96 97 96 96 96 98 97 92 92 95 91 97 98
96 96 97 95 95 95 94 94 95 96 96 98 97 99 99 98 98 97 97 97 98 98 96 96 98 91 89 93 93 93 92 91 92 92 96 98 96 93 91 93 96 94 97
96 98 98 97 97 96 98 99 98 98 96 98 98 98 99 98 97 97 97 97 96 97 95 97 94 87 89 92 92 90 88 88 90 90 95 97 96 95 95 94 92 96 95

GFSGL_sfc_rhum_036.txt.gz
RH
43 53 58 62 71 76 80 84 86 86 87 87 87 86 82 84 82 83 82 82 82 77 73 73 71 68 74 76 79 81 85 90 90 84 87 86 82 69 59 64 75 85 84
47 54 55 60 75 80 84 84 84 80 84 87 87 85 80 80 81 77 74 72 72 73 72 70 67 51 70 74 81 81 76 72 83 82 79 72 65 63 67 68 51 39 55
48 51 54 60 76 79 84 84 82 83 85 87 86 82 72 71 68 70 72 73 72 73 74 73 70 70 72 74 77 80 79 66 79 80 76 76 76 74 76 72 67 71 54
50 52 57 62 76 77 82 84 84 86 86 84 73 67 67 67 64 65 67 75 76 73 77 77 77 77 77 79 78 87 79 83 79 80 80 81 81 76 78 81 76 81 77
53 54 58 64 75 73 80 78 81 74 68 68 61 67 69 64 59 77 74 76 78 79 78 75 74 71 61 63 70 85 93 91 91 88 86 85 85 85 84 78 83 88 88
59 57 59 63 70 76 78 82 73 69 75 59 64 70 69 55 76 72 76 84 77 77 80 76 79 68 66 69 72 73 78 82 87 87 85 91 88 87 88 91 94 95 97
58 62 64 64 72 75 75 83 89 96 68 59 70 74 77 78 75 71 78 85 85 86 86 82 76 61 73 76 80 77 78 78 83 86 94 93 87 89 90 94 95 96 94
62 67 73 74 74 78 88 89 88 85 72 63 79 77 77 68 76 78 82 92 94 92 91 89 87 82 82 76 77 88 92 90 88 87 91 92 92 86 91 91 93 95 95
67 75 76 82 84 91 91 96 94 91 67 81 80 83 85 87 81 78 88 96 93 92 83 84 76 80 75 74 94 93 88 89 72 69 69 71 78 88 84 86 95 98 95
68 72 76 83 90 93 96 95 89 68 82 83 83 88 81 89 71 71 75 99 99 89 87 78 74 71 76 82 93 96 96 87 87 86 86 87 82 84 78 86 89 93 90
67 72 85 90 93 84 87 71 76 87 90 94 96 90 88 83 84 68 67 91 90 88 85 81 81 80 90 87 82 96 96 91 94 95 94 94 91 92 94 95 95 96 96
76 85 87 89 86 79 67 70 77 90 90 98 97 96 96 93 70 71 65 66 70 93 92 88 93 90 77 81 92 93 93 93 97 97 97 95 96 96 97 98 99 98 97
88 91 92 87 87 82 72 75 82 85 95 97 98 97 97 93 94 73 73 70 76 91 90 87 86 76 80 88 89 90 95 95 96 96 96 96 97 97 95 97 98 99 99
90 89 87 87 92 78 75 74 91 97 97 97 98 97 98 94 97 94 89 95 86 89 95 93 91 85 87 91 91 92 96 96 96 96 96 96 96 96 96 95 98 98 99
99 88 82 92 99 93 83 87 93 89 92 96 97 97 99 99 95 80 80 86 84 87 94 96 90 89 89 88 88 91 93 93 94 95 95 95 93 93 96 98 99 98 99
99 97 92 95 97 94 95 94 82 83 82 81 84 93 96 85 77 69 71 67 61 72 94 99 97 96 95 92 93 92 90 92 92 92 94 94 94 95 96 98 99 99 100
98 98 92 96 92 88 86 92 97 86 83 81 82 80 81 88 75 65 66 65 65 74 99 99 99 97 96 91 91 91 93 92 89 92 94 94 94 94 96 98 98 98 99
96 98 95 94 88 86 95 94 96 99 100 97 87 86 87 80 66 66 69 73 95 89 97 99 98 97 93 91 91 93 92 91 93 94 94 95 95 96 95 96 97 98 100
88 94 98 96 93 92 94 96 99 99 97 98 98 95 99 83 66 72 80 98 98 97 97 98 99 97 95 94 97 96 98 94 94 96 95 95 95 95 94 95 98 97 100
84 88 92 97 94 95 96 99 99 98 97 96 99 99 99 92 94 98 100 100 100 98 99 98 98 98 98 97 98 98 97 94 93 94 96 97 96 96 95 95 96 99 98
88 86 91 91 93 94 96 99 99 100 99 98 98 98 98 95 96 98 99 100 99 99 99 98 99 99 98 98 98 97 98 98 95 95 96 96 97 98 96 97 97 98 96
95 96 95 95 95 96 97 97 97 100 98 97 98 99 100 99 98 99 100 98 99 98 97 98 98 98 97 96 98 99 98 98 98 96 97 96 97 97 96 97 97 99 96
95 94 96 96 93 97 97 97 99 98 98 98 98 98 99 99 98 99 98 97 100 100 99 99 99 98 97 97 98 98 98 97 98 99 99 98 97 96 96 98 98 97 98
95 94 94 94 94 96 96 97 98 99 100 100 99 98 100 99 98 97 97 98 100 100 100 99 98 97 96 97 97 97 96 98 97 96 98 100 99 96 97 97 96 97 97
95 95 96 96 96 96 95 95 97 98 98 98 98 98 99 100 98 98 97 98 98 100 100 99 99 97 93 97 95 95 93 89 93 94 97 98 97 96 96 97 97 96 97
92 94 94 98 99 98 97 97 99 99 100 98 98 99 99 99 98 98 98 98 97 98 99 99 98 96 95 95 95 88 87 85 91 92 97 97 96 94 97 96 93 96 97

GFSGL_sfc_rhum_039.txt.gz
RH
46 53 61 62 75 81 83 84 87 88 88 89 89 91 90 86 85 88 86 80 76 75 76 75 74 71 72 70 78 80 82 88 82 75 88 84 85 66 61 68 65 71 93
50 54 57 63 69 82 87 88 90 88 83 85 87 89 85 77 75 72 74 75 74 75 75 75 74 56 74 77 80 82 82 82 84 84 82 81 72 64 69 73 60 52 70
51 56 60 61 67 80 85 88 88 86 83 87 86 87 77 67 69 72 72 72 72 73 77 79 78 78 82 84 81 83 86 77 89 87 83 78 79 80 76 73 72 74 58
58 59 63 65 66 76 83 87 89 87 92 86 86 74 68 68 65 66 68 73 76 74 78 78 77 81 84 83 78 93 84 92 92 89 86 82 78 79 82 81 80 82 78
62 64 68 71 72 77 82 84 86 91 83 86 88 71 71 66 60 74 72 76 79 79 78 75 74 75 68 64 65 77 84 87 88 91 91 87 87 88 88 81 85 89 89
55 67 70 70 72 80 83 85 87 93 95 93 84 75 71 57 75 74 79 87 80 80 84 79 78 77 75 68 67 70 74 86 91 89 86 91 88 93 88 89 94 97 98
62 68 73 75 75 75 76 91 95 96 94 86 74 74 73 76 75 73 79 90 93 93 92 90 81 64 72 74 77 77 77 78 83 91 92 83 90 90 88 94 97 97 96
67 73 78 81 85 85 90 93 92 94 93 88 81 78 76 70 78 78 84 93 93 90 87 87 86 84 82 75 81 90 86 84 79 79 88 89 90 92 90 87 92 92 89
69 74 75 82 89 93 93 88 92 95 91 84 81 78 84 87 72 73 87 92 87 84 77 80 76 78 75 76 90 94 88 83 71 73 72 71 72 72 85 98 97 96 94
69 72 77 89 94 95 94 96 96 81 85 84 79 83 79 82 70 67 71 98 99 87 83 74 75 74 80 92 95 95 96 84 84 83 83 82 81 85 80 88 95 94 92
70 79 88 91 92 92 93 78 90 87 86 93 95 89 87 81 86 66 64 93 93 88 86 86 83 84 76 73 81 96 96 94 93 95 94 95 96 96 94 91 91 93 93
79 88 91 91 88 86 83 71 82 93 91 97 97 95 96 95 71 72 66 71 72 96 93 90 94 73 72 77 87 88 89 94 95 95 95 95 96 97 97 98 98 98 95
85 89 96 87 93 91 75 81 84 83 95 96 99 98 97 93 93 78 78 78 76 94 91 80 74 73 76 87 82 89 93 94 95 95 94 94 96 97 96 97 98 99 99
92 96 97 90 88 92 97 83 92 97 98 98 98 98 98 94 97 95 91 98 83 89 91 93 92 86 86 88 89 90 94 95 95 95 95 94 95 95 96 97 97 97 98
90 91 99 94 99 96 89 86 88 89 93 97 97 97 100 100 96 85 80 94 91 91 94 97 96 92 89 86 86 88 90 89 92 93 93 92 92 93 95 97 97 98 99
95 91 98 99 98 95 90 90 82 82 85 83 84 95 97 89 84 73 66 66 64 67 94 100 100 100 98 92 92 91 88 89 89 92 94 93 93 94 94 95 96 98 99
98 97 99 97 94 89 88 86 94 86 83 81 80 79 80 92 79 66 64 65 64 71 98 99 100 100 100 94 92 92 92 88 89 91 94 94 94 93 95 95 96 98 98
97 97 99 98 93 90 95 95 96 99 99 99 86 87 84 83 74 63 68 75 95 90 98 99 100 100 100 94 92 94 93 90 92 94 95 95 95 96 95 95 96 99 99
90 97 97 99 97 94 95 96 98 98 98 98 98 94 100 88 82 71 80 97 98 97 97 98 99 100 99 98 99 98 99 96 95 97 96 96 97 96 94 95 96 98 99
83 87 92 96 95 95 97 98 99 98 98 98 99 98 99 97 96 97 100 100 100 98 99 98 97 99 99 99 100 99 98 97 96 94 97 98 97 98 97 97 96 97 96
97 96 90 95 96 94 95 96 97 99 98 99 98 98 98 98 98 98 98 99 99 98 98 97 98 100 99 99 99 99 98 99 97 96 97 97 98 99 97 97 98 96 92
96 94 96 97 95 97 95 97 97 99 99 99 97 98 98 99 98 98 98 98 98 97 97 98 98 98 98 98 99 100 98 98 98 98 98 97 97 97 96 97 97 98 95
96 95 94 95 97 95 97 95 98 98 98 98 98 100 100 100 99 98 98 98 98 98 98 98 100 98 99 99 100 98 99 97 98 99 99 99 97 96 97 98 98 97 97
94 96 97 96 96 95 96 95 95 98 100 99 98 98 99 99 99 98 98 99 99 99 100 99 98 96 98 100 100 99 98 98 97 96 97 100 98 96 97 97 97 97 97
97 95 95 95 96 96 97 97 96 96 96 98 98 99 98 98 100 99 99 99 98 100 99 100 98 97 96 97 98 97 96 92 93 93 98 98 97 96 97 97 97 97 97
97 97 97 97 97 97 96 97 97 96 97 97 97 98 98 98 97 98 98 99 98 97 98 99 98 95 96 99 97 98 89 87 95 95 97 97 96 96 98 97 93 96 94

GFSGL_sfc_rhum_042.txt.gz
RH
50 55 61 65 69 82 86 87 87 89 90 88 88 90 92 92 88 88 87 78 75 75 75 74 74 73 75 76 77 80 82 87 84 68 75 72 76 79 64 63 66 69 74
57 59 61 66 68 73 82 86 90 92 91 87 87 90 89 86 79 72 72 72 71 71 71 76 77 61 75 78 81 81 80 81 84 88 77 77 76 72 66 69 55 45 63
60 63 64 67 70 71 75 82 90 92 91 89 90 91 88 79 70 70 71 70 71 74 77 78 78 74 76 80 80 82 83 78 88 88 83 78 75 73 70 71 66 68 54
58 61 68 71 72 75 80 84 88 90 92 93 89 88 84 74 67 65 67 71 74 74 77 79 79 77 77 78 77 77 75 81 80 81 81 79 81 74 76 75 74 70 66
56 65 71 75 74 76 78 81 88 92 91 94 96 95 88 66 58 70 72 76 80 81 81 77 77 76 74 72 70 76 76 81 77 80 81 78 78 81 80 73 75 74 75
56 70 74 76 76 78 81 85 92 95 95 92 96 98 78 60 75 75 83 91 88 88 91 85 83 77 80 71 70 70 70 79 86 83 83 84 78 80 79 80 82 86 90
60 68 76 79 82 85 87 92 95 94 92 91 88 81 77 75 74 74 84 85 86 86 80 78 72 61 72 74 76 76 76 77 79 89 95 89 88 80 83 86 88 87 87
65 72 78 80 85 90 93 94 91 91 93 90 85 80 76 75 76 81 82 84 84 80 76 76 78 80 78 73 76 85 82 76 76 76 78 79 81 79 85 84 91 92 90
66 74 76 82 92 94 95 95 95 96 96 90 83 79 80 83 70 72 75 90 82 79 72 75 75 79 79 79 94 92 83 78 69 72 80 78 77 78 77 89 93 96 95
70 73 81 90 93 94 95 95 97 88 85 86 78 80 79 79 71 66 71 96 96 87 82 75 78 76 76 72 90 96 95 84 86 86 85 82 80 84 83 85 90 91 85
76 78 88 86 91 93 95 84 86 88 91 96 94 87 87 82 85 68 66 94 92 90 86 85 83 81 71 73 78 93 95 92 90 91 88 91 95 95 95 94 92 92 91
90 92 93 95 94 87 95 83 80 99 92 97 97 95 94 94 75 75 69 74 74 96 92 90 90 71 69 73 80 86 87 92 94 93 91 88 92 92 92 96 97 94 88
93 83 80 91 96 91 76 83 89 91 96 96 98 98 97 91 94 80 76 80 76 94 90 76 73 72 75 84 76 82 90 92 93 93 92 89 90 91 91 91 93 99 97
81 89 92 97 95 97 98 93 97 98 98 98 98 98 98 95 97 95 93 97 84 85 91 90 93 88 89 86 84 85 91 92 94 93 92 90 88 90 92 93 93 95 96
92 92 96 98 98 98 94 92 94 93 92 96 96 97 100 100 96 90 85 96 95 91 94 96 95 93 91 88 86 84 85 82 87 92 92 90 88 89 91 94 92 92 94
89 91 93 100 100 98 98 94 81 84 84 83 87 94 98 91 85 81 66 65 63 67 90 100 100 100 100 95 94 91 86 82 86 88 91 89 90 91 91 91 90 93 93
95 95 99 98 99 98 96 96 97 87 79 83 79 80 78 92 88 73 65 65 63 72 96 98 100 100 100 96 95 91 93 85 84 88 92 92 91 90 93 92 92 90 90
96 98 99 99 99 97 96 96 97 98 98 98 85 85 84 83 80 71 65 76 94 90 95 98 99 100 100 95 95 93 90 90 88 90 94 95 96 94 92 91 92 96 92
92 96 98 99 100 99 96 94 97 98 98 97 98 93 98 95 82 80 77 96 97 97 95 95 97 98 98 96 100 100 99 96 94 96 95 94 97 95 93 92 92 94 94
87 89 91 98 98 97 93 97 97 97 97 98 99 97 98 98 100 98 100 100 100 98 97 96 94 96 98 98 100 100 99 98 95 92 96 97 97 96 96 96 96 94 88
84 82 92 96 98 96 97 95 95 97 97 98 97 96 95 97 95 99 99 100 100 99 98 96 97 98 98 99 96 99 98 100 96 94 95 94 97 97 94 93 93 89 85
97 94 96 96 94 97 96 95 97 97 97 98 96 97 98 98 99 99 99 98 97 97 97 97 96 95 96 95 96 100 99 99 99 96 96 95 94 94 93 93 93 92 88
98 98 97 92 94 95 96 95 95 96 96 97 97 98 99 99 99 98 98 97 98 98 98 98 98 97 98 98 98 97 98 96 96 99 98 98 95 94 95 93 92 91 91
98 96 97 96 95 96 96 94 95 96 95 96 96 97 97 97 98 98 98 97 98 99 100 98 97 96 96 99 99 98 96 98 97 96 98 98 96 91 93 90 90 91 90
97 97 97 96 96 96 96 96 96 96 96 96 95 96 96 97 98 98 98 98 99 100 97 100 99 96 93 93 96 96 98 96 92 96 98 97 95 92 94 90 91 89 89
97 97 97 97 97 96 96 96 96 96 96 96 95 95 95 96 96 97 97 97 98 98 96 97 98 96 94 96 94 98 97 89 93 98 98 95 91 90 93 92 88 91 88

GFSGL_sfc_rhum_045.txt.gz
RH
41 45 49 48 50 52 53 56 57 63 63 67 67 63 62 66 69 69 66 64 60 58 56 54 55 54 50 48 47 46 48 53 55 44 38 41 48 50 46 46 46 47 43
45 47 46 48 51 52 51 51 57 59 63 67 69 66 67 68 68 65 62 54 55 54 53 54 52 44 52 48 46 47 46 46 48 50 45 46 47 50 51 52 45 36 38
35 37 42 49 49 49 50 54 53 58 62 68 72 73 71 70 74 72 56 54 54 54 53 54 54 54 53 50 51 50 49 47 51 57 53 43 43 49 53 49 49 50 40
35 37 48 53 53 53 54 53 61 65 69 70 70 73 78 81 82 68 52 54 54 54 58 58 58 57 57 56 56 59 61 60 59 55 49 44 44 44 47 56 52 46 47
39 41 52 57 56 54 56 62 66 72 73 73 80 81 95 80 65 58 54 58 59 60 59 57 57 62 71 65 56 55 60 59 55 56 52 49 49 49 49 48 53 52 50
41 45 52 60 56 58 62 68 72 74 72 70 77 79 67 56 75 75 70 60 60 54 50 46 43 51 50 64 66 68 66 67 70 66 64 61 57 48 51 56 61 67 69
43 45 52 60 59 60 63 66 69 72 74 76 72 66 65 58 74 78 79 55 53 50 46 43 43 44 56 52 60 65 64 68 78 89 88 71 59 52 52 63 60 69 61
48 49 51 58 61 64 68 67 71 76 79 71 74 64 58 58 72 78 76 58 56 49 47 48 50 54 56 66 63 82 62 53 53 56 78 74 69 63 62 61 67 72 68
51 56 57 61 66 69 67 71 72 78 74 76 72 62 60 58 65 70 65 65 62 58 55 54 55 60 71 75 80 78 66 56 56 65 68 73 84 80 88 89 91 88 80
61 66 63 67 72 72 72 70 71 62 61 65 63 62 70 64 66 65 65 74 84 69 60 52 62 65 72 73 82 85 83 68 63 64 62 60 65 84 86 84 76 88 68
65 66 69 73 78 74 70 66 64 69 75 94 99 71 68 70 71 69 68 80 76 73 64 59 58 69 69 68 71 77 90 80 76 72 69 65 66 71 82 92 94 92 81
69 72 67 63 64 76 72 63 65 85 92 95 95 88 74 82 73 72 72 70 73 79 72 64 66 67 67 69 70 74 80 81 80 79 78 74 73 73 73 76 85 96 88
71 73 66 63 68 70 71 73 73 72 83 92 85 79 78 74 72 78 77 76 75 77 70 67 69 70 68 68 68 71 75 78 79 84 80 75 73 74 76 78 79 98 97
72 71 72 71 73 74 73 73 72 76 76 73 77 81 82 74 74 75 73 76 74 69 72 62 74 73 71 70 66 67 71 70 75 82 82 78 77 80 83 86 85 87 94
69 74 76 79 83 78 72 66 68 70 79 82 76 82 89 86 76 81 81 80 76 70 76 71 65 67 64 60 64 64 62 58 70 79 81 79 77 78 80 82 82 82 88
78 78 86 86 83 79 72 68 77 85 84 82 83 92 90 89 86 84 78 68 65 65 66 73 78 81 76 65 70 69 66 62 67 76 80 78 80 80 79 76 76 81 83
81 87 83 88 83 84 83 74 73 68 77 80 81 81 78 79 88 84 75 68 66 67 72 72 83 81 78 64 63 65 66 66 68 75 80 82 83 82 83 79 77 76 76
92 91 84 85 84 83 82 86 81 79 80 79 78 82 79 80 81 83 76 69 74 74 71 73 78 79 71 60 58 62 61 68 67 72 83 84 86 84 83 81 79 81 73
90 89 92 88 90 91 90 88 82 82 79 77 76 85 87 84 89 90 81 84 80 76 73 71 74 74 71 66 75 79 82 77 77 79 84 83 87 83 81 78 79 81 77
86 90 90 87 86 82 80 81 78 80 78 78 76 78 80 87 94 93 93 94 91 83 82 77 72 71 77 75 80 83 81 78 72 70 84 86 86 82 83 81 82 79 68
88 83 85 81 85 84 84 83 80 82 83 81 82 89 90 88 90 88 89 92 91 85 88 82 81 80 80 82 74 77 78 84 73 71 79 81 86 84 78 77 77 72 69
93 92 92 93 89 90 90 84 83 83 82 81 82 83 92 94 91 90 90 92 93 90 86 87 82 77 77 74 74 80 81 84 78 72 79 82 79 78 78 75 75 75 73
94 91 89 88 90 92 93 89 90 90 87 86 83 83 85 89 90 89 92 93 92 93 91 90 91 85 83 86 83 79 80 77 77 77 82 85 79 76 82 77 74 72 73
89 90 89 91 92 92 94 94 94 92 93 94 93 94 92 89 90 91 92 93 94 94 95 94 88 84 82 87 85 82 77 83 77 71 82 86 81 72 79 75 74 78 75
94 96 95 96 97 97 95 93 94 95 96 96 96 95 90 90 89 91 92 92 93 95 94 94 90 87 88 87 82 82 82 86 76 76 80 83 82 79 80 77 78 73 76
89 91 94 95 96 98 98 96 94 94 95 94 95 95 95 93 88 89 90 91 93 93 93 93 91 89 89 85 81 83 90 85 74 84 84 77 79 75 78 80 74 75 74

GFSGL_sfc_rhum_048.txt.gz
RH
41 42 39 35 32 32 34 34 34 36 32 33 34 39 42 45 50 54 56 52 58 51 47 46 44 41 39 38 37 36 36 36 39 35 29 31 35 36 34 40 42 38 36
42 30 28 29 30 30 31 32 35 35 37 38 41 45 46 50 55 61 60 65 61 52 45 44 44 33 44 41 37 39 39 38 38 43 36 35 38 37 37 40 36 32 35
22 24 26 28 29 30 32 34 36 39 42 42 45 48 49 56 59 64 65 72 58 48 46 47 47 45 44 40 41 41 40 35 42 49 45 39 38 37 38 40 43 42 32
24 23 25 30 33 34 36 38 42 43 46 48 49 58 72 75 71 78 63 55 52 47 49 50 46 46 46 46 43 43 38 38 43 58 53 45 40 39 40 41 41 39 40
25 24 28 35 36 37 40 43 45 49 48 49 56 62 65 62 51 56 50 50 49 48 47 41 41 45 53 53 47 47 47 46 48 51 51 49 47 45 44 40 41 41 42
27 28 30 35 37 42 44 48 48 47 48 53 52 53 54 44 75 72 71 47 46 43 41 39 36 42 42 57 60 62 60 57 59 60 60 62 54 51 48 52 57 54 64
30 28 30 34 38 43 42 45 48 52 54 59 61 57 58 54 72 79 70 46 46 43 42 39 36 30 48 42 54 61 65 78 89 84 80 65 67 64 57 59 54 54 55
31 32 33 37 40 42 46 49 48 54 60 66 72 68 58 49 74 74 72 49 48 46 44 44 43 44 46 61 56 65 57 52 54 48 59 67 61 55 58 68 79 70 62
32 36 38 44 45 47 48 52 50 56 56 52 69 68 58 55 66 73 66 55 56 54 48 45 46 48 59 67 73 77 65 58 52 62 63 67 70 71 72 93 81 81 86
36 42 43 46 49 52 54 53 52 52 52 52 52 56 64 60 66 65 64 67 86 65 53 45 59 56 66 66 74 79 84 65 57 59 57 54 55 57 77 88 78 82 67
41 46 47 47 48 51 60 59 51 50 68 82 92 76 59 62 66 68 68 78 72 68 60 51 49 63 64 66 66 72 81 68 69 71 65 64 66 61 61 65 72 92 88
45 49 50 49 45 45 57 53 51 58 75 98 100 90 70 67 71 68 73 73 68 79 69 56 59 64 65 66 67 68 67 70 78 73 75 73 71 70 66 68 74 75 86
51 51 51 49 47 46 55 57 64 61 68 84 87 79 75 66 60 76 77 76 74 78 67 66 67 62 60 60 59 64 65 64 66 71 78 73 73 75 78 82 78 86 96
50 54 65 72 61 53 54 55 60 64 68 69 76 82 82 72 64 64 72 71 78 78 66 60 64 71 62 58 56 56 62 63 63 70 74 72 70 77 81 79 81 74 94
52 55 62 64 71 68 60 56 56 53 61 66 65 80 90 86 75 76 76 71 76 68 77 73 63 60 53 50 53 54 55 53 56 66 73 71 71 68 73 78 76 75 85
57 55 64 73 69 71 68 67 74 78 80 83 83 84 87 81 83 83 82 78 71 67 68 72 77 78 71 57 60 59 56 56 53 59 67 66 70 75 74 73 71 77 82
63 65 67 74 72 71 72 71 77 68 79 78 80 81 79 82 78 84 82 78 70 70 74 70 81 79 76 58 52 52 57 57 60 55 66 68 68 67 78 79 76 75 76
71 83 79 76 75 79 80 79 73 78 82 75 73 79 76 80 78 78 80 82 73 82 73 75 76 75 68 54 50 51 55 63 63 59 68 73 74 71 70 71 75 79 72
61 66 81 87 88 83 85 83 83 80 79 72 65 73 82 85 81 80 81 86 76 74 70 66 70 69 64 60 68 73 75 75 75 74 71 71 77 70 68 65 65 67 66
61 78 85 83 84 83 81 82 84 83 80 78 76 70 69 90 92 92 94 91 90 82 77 70 67 67 71 69 76 77 76 75 71 65 71 75 76 73 70 68 69 68 60
61 63 77 79 86 83 90 89 86 88 87 83 85 95 78 76 80 85 84 94 86 81 85 80 78 77 76 77 68 72 69 78 70 66 67 70 75 75 66 66 66 61 58
80 86 90 93 90 94 90 90 94 89 84 87 88 85 78 91 85 82 85 94 97 92 84 85 83 76 72 70 69 79 74 74 74 72 70 69 68 68 67 67 67 67 62
86 91 89 88 89 88 94 89 96 100 98 98 91 90 91 98 96 87 92 100 94 95 90 86 88 83 78 80 80 74 72 70 72 74 69 73 68 69 72 70 66 66 67
82 95 85 89 96 90 99 100 99 96 98 100 100 100 100 100 100 100 99 100 100 100 98 95 87 84 80 83 83 78 67 71 73 66 69 72 69 66 68 66 66 68 68
94 100 99 97 97 100 100 98 100 100 100 100 100 100 99 100 100 100 100 100 97 99 91 93 90 89 86 80 78 76 69 76 76 67 66 71 70 71 68 68 70 64 67
86 83 87 92 97 97 99 100 100 100 98 100 100 100 100 100 99 100 100 100 99 93 92 91 91 90 86 83 80 78 79 84 82 73 71 66 69 68 69 69 55 67 61

GFSGL_sfc_rhum_054.txt.gz
RH
49 53 55 56 48 41 44 45 43 46 46 48 50 52 53 55 56 61 66 62 67 70 71 73 72 67 68 67 68 65 62 61 62 53 49 49 55 57 52 56 51 47 46
49 55 60 55 40 42 42 40 44 46 50 50 52 52 52 55 65 69 70 70 71 72 75 71 70 52 66 68 68 63 64 56 56 58 51 49 53 59 59 61 44 36 43
45 54 42 36 36 40 41 44 45 48 50 52 52 56 55 67 67 69 70 68 71 72 67 68 65 65 69 65 66 62 57 46 57 60 58 52 54 60 59 58 54 56 43
40 29 34 34 39 44 46 47 50 51 54 55 55 55 61 62 63 62 54 64 72 66 69 68 64 59 61 60 52 61 51 63 62 62 58 56 57 56 60 62 66 65 61
30 30 35 40 40 43 48 52 52 55 52 54 54 62 66 64 56 68 63 66 68 67 64 53 51 55 55 58 48 63 68 71 68 62 63 63 65 68 71 64 71 84 76
32 31 33 36 37 46 50 54 55 54 53 56 61 66 70 55 73 74 70 66 62 61 62 57 54 55 63 63 69 67 70 75 73 77 83 84 83 65 74 93 91 81 82
33 29 31 36 39 46 42 43 50 58 59 61 64 67 72 70 78 79 66 61 66 68 64 63 53 37 68 66 66 65 62 62 70 78 86 92 95 88 78 77 75 76 78
31 29 31 37 39 42 46 50 56 60 62 63 65 67 77 71 91 87 70 66 70 68 66 65 66 64 78 71 72 75 68 64 63 55 78 88 76 66 70 72 82 86 84
30 31 32 39 40 44 46 57 60 61 62 65 62 67 74 96 89 80 71 76 78 77 68 70 65 66 67 66 78 83 75 70 55 57 55 57 62 64 67 80 94 94 91
31 36 36 40 43 47 53 57 60 64 57 71 71 74 80 87 83 75 73 93 92 90 77 68 72 71 66 66 87 92 90 80 73 67 66 68 67 68 73 80 96 97 95
32 38 38 40 43 49 54 56 57 62 70 84 93 90 84 84 94 76 73 88 94 91 88 83 83 69 66 65 63 85 86 77 75 78 80 72 77 80 81 86 87 94 94
38 40 43 46 44 45 58 58 57 65 80 97 97 99 94 88 84 86 79 78 77 92 87 86 84 71 67 66 68 65 64 76 85 92 82 78 83 83 81 80 82 88 88
43 45 46 45 49 50 59 64 70 70 85 93 92 94 94 94 93 82 84 82 82 91 88 83 75 72 75 75 68 68 73 90 91 92 85 80 80 77 77 78 78 79 82
46 49 52 56 56 59 59 64 75 80 91 87 88 88 94 92 94 93 94 90 84 86 86 86 92 85 83 81 85 81 91 91 91 93 92 80 77 82 78 78 81 83 86
48 51 59 62 70 73 65 72 78 78 82 84 84 92 94 94 93 90 91 97 97 97 93 93 93 86 91 90 90 86 88 87 88 92 92 87 77 75 75 75 79 83 88
59 63 80 86 84 75 69 76 77 80 81 80 80 82 89 81 78 80 84 82 77 79 93 94 94 92 92 94 93 92 90 86 89 87 91 90 90 83 79 76 78 86 88
72 75 80 82 84 82 76 80 87 81 81 83 84 83 80 77 79 81 80 80 87 85 96 94 92 89 95 91 92 92 90 90 85 92 92 92 94 88 85 82 80 79 84
74 79 76 78 84 85 86 86 85 87 90 87 84 86 82 82 83 82 83 83 90 90 93 93 90 88 88 92 91 89 91 92 92 94 93 94 94 94 89 83 82 86 85
72 73 81 82 87 84 87 87 87 88 88 88 85 86 86 85 85 84 85 93 91 85 86 95 88 85 94 93 94 93 92 94 93 94 96 94 94 94 94 89 85 84 81
64 74 79 80 89 89 88 88 87 88 96 98 92 87 86 94 98 95 93 93 92 88 85 83 84 85 92 93 95 95 96 95 95 96 94 93 95 94 94 92 93 89 82
71 71 78 86 87 90 91 89 89 90 91 91 92 91 88 99 97 98 98 98 95 91 89 86 86 88 92 93 94 94 92 94 93 92 93 92 94 94 94 93 92 91 82
83 85 84 97 99 98 91 87 88 87 85 86 86 86 94 99 98 94 94 95 92 89 90 93 92 89 92 92 92 93 92 94 95 94 93 92 91 94 93 93 93 92 92
85 94 98 99 99 95 96 95 91 90 90 93 91 96 98 98 99 98 95 94 94 94 91 94 96 93 92 92 90 90 92 93 92 93 94 91 93 93 92 94 91 91 92
84 88 94 97 97 97 98 97 96 97 98 98 98 98 96 94 95 95 98 99 99 98 98 98 97 96 92 93 92 90 91 92 92 90 88 91 92 91 92 91 92 87 91
87 91 98 99 99 98 98 96 92 92 91 93 95 96 96 94 96 95 94 97 98 98 98 98 98 98 97 96 96 89 88 86 89 92 90 90 90 86 89 92 91 90 87
96 98 98 97 97 97 96 94 94 93 94 92 92 92 92 94 96 93 93 96 95 95 94 98 98 98 98 97 98 93 88 86 86 87 91 91 93 94 94 91 84 89 87

GFSGL_sfc_rhum_057.txt.gz
RH
54 56 52 50 54 48 46 49 47 49 50 52 55 56 58 64 75 79 78 77 80 80 80 81 79 75 75 74 71 71 75 75 78 68 63 61 61 62 62 64 61 61 61
54 54 57 60 52 43 43 45 51 50 54 53 56 58 60 72 73 74 77 77 80 78 80 79 72 58 70 75 74 71 68 68 72 71 70 64 65 64 66 66 49 40 52
63 55 57 59 40 42 49 52 50 51 53 55 54 59 65 71 67 71 74 76 71 75 78 77 75 74 78 70 65 66 67 53 72 77 71 68 60 67 64 65 66 68 52
47 50 46 41 44 48 50 50 53 54 54 56 58 64 68 70 68 71 64 69 77 76 76 77 73 66 58 58 56 61 59 74 76 79 71 66 68 65 74 75 71 75 81
40 36 47 47 47 47 52 56 56 59 57 58 62 67 71 69 63 72 72 69 72 73 70 63 59 57 58 58 53 71 76 77 79 76 73 75 77 79 84 72 93 92 77
39 40 43 44 45 49 52 53 54 55 57 61 68 71 72 62 75 73 72 74 78 73 72 68 61 59 62 67 67 66 73 77 79 92 83 85 84 82 95 88 91 83 82
38 39 42 44 46 50 46 49 55 61 67 71 68 67 73 78 78 81 85 81 72 72 76 71 62 56 71 68 64 64 66 61 72 86 88 84 95 89 85 81 79 85 87
39 37 39 42 44 48 54 57 63 66 69 74 72 69 77 80 85 89 82 91 77 78 76 74 74 77 74 73 73 78 75 74 71 63 77 76 77 69 75 75 85 88 86
38 38 38 46 50 52 57 62 64 67 68 72 73 78 86 98 94 92 90 83 83 83 74 74 78 79 67 64 78 85 78 76 60 65 63 66 68 69 68 82 95 96 91
36 40 43 51 56 58 61 64 64 66 63 75 76 81 83 91 94 88 82 96 95 92 84 79 70 74 67 67 90 94 94 78 83 76 74 74 75 76 77 86 91 96 94
41 48 48 50 50 55 68 69 70 72 77 87 94 93 90 88 93 87 80 90 92 92 94 92 86 71 69 67 67 89 89 80 82 83 84 88 78 89 92 91 89 94 96
46 50 51 53 52 51 62 69 74 84 86 98 99 98 99 93 88 93 87 84 83 93 89 92 89 77 72 70 77 75 69 80 96 94 96 84 89 83 81 87 86 87 84
52 54 55 55 56 57 66 76 88 90 95 91 96 97 96 96 96 86 90 89 86 91 91 89 80 76 74 84 82 78 81 91 92 98 91 93 90 81 79 82 80 80 82
54 57 62 66 67 67 71 75 86 95 94 88 96 98 98 99 96 95 94 96 90 92 93 91 94 96 96 90 89 84 92 94 94 94 96 92 92 89 88 81 83 82 92
56 61 70 75 81 83 80 84 88 85 84 85 91 89 92 96 90 88 92 96 96 96 98 98 99 97 94 89 93 92 91 92 94 95 94 94 90 92 83 82 82 85 92
66 73 84 88 91 90 88 82 82 82 84 83 82 85 86 84 80 83 84 86 90 92 98 99 98 98 97 93 95 93 94 90 96 93 95 96 96 97 91 84 83 87 89
73 80 88 89 89 86 90 87 85 82 84 84 84 85 84 83 83 81 81 83 85 87 97 98 99 96 93 94 91 94 93 92 88 95 96 95 97 95 95 93 88 86 86
81 87 90 89 88 87 88 86 90 92 92 90 88 85 86 85 85 85 83 87 97 91 93 95 96 94 92 92 91 94 95 95 96 97 96 96 98 97 97 94 91 94 89
79 80 84 86 85 84 87 90 91 94 98 93 91 93 91 86 85 86 87 97 96 95 93 95 94 94 92 90 94 95 94 96 96 98 97 99 98 97 96 96 95 91 92
79 84 83 84 87 93 94 94 98 98 98 98 98 95 94 95 97 96 94 97 97 94 93 94 93 94 93 92 96 95 95 96 97 98 97 99 98 97 96 97 96 96 90
82 83 85 73 78 85 97 99 99 98 97 96 94 95 95 97 97 97 95 96 94 94 94 95 92 92 91 93 94 94 93 95 95 97 97 97 99 94 96 97 97 95 96
78 89 88 87 81 88 98 98 98 97 97 97 93 93 92 93 97 98 96 97 98 97 96 94 94 92 90 91 93 93 93 94 94 95 96 97 96 95 97 97 96 96 95
87 86 88 90 89 87 95 98 98 99 98 98 98 96 94 98 99 98 98 98 98 98 98 98 97 98 94 94 92 90 91 91 89 92 94 96 96 96 98 94 96 96 95
92 95 96 94 98 95 97 97 97 96 96 96 96 96 94 95 97 96 96 95 98 98 99 99 98 98 98 97 97 91 88 92 91 90 90 91 94 96 97 96 96 94 96
93 92 93 95 95 95 96 95 95 96 96 96 95 94 94 93 93 93 92 91 91 95 97 98 97 98 98 98 97 95 91 93 90 89 90 89 90 95 94 95 96 94 95
91 90 91 92 93 94 94 94 95 95 95 94 94 94 95 94 92 92 91 91 91 90 94 95 95 91 98 98 98 96 92 96 95 88 87 87 91 96 97 94 94 94 94

GFSGL_sfc_rhum_060.txt.gz
RH
62 62 56 59 61 59 55 58 51 52 54 56 58 57 59 70 74 78 78 79 80 83 82 83 82 77 80 72 79 80 78 67 74 71 69 69 69 70 57 63 65 65 65
53 57 61 60 62 58 49 50 53 54 57 57 58 57 60 72 76 72 74 74 76 78 77 84 82 64 78 80 74 69 66 67 70 72 74 74 72 69 67 73 55 47 62
60 59 70 73 47 49 51 51 52 54 56 58 58 61 63 75 72 73 74 77 80 77 77 82 80 80 82 74 67 66 66 55 73 79 76 76 75 72 69 68 70 75 60
62 63 59 52 52 53 55 58 59 59 59 58 61 64 71 74 71 72 72 75 77 78 82 82 82 79 73 63 60 61 62 75 77 79 74 69 76 71 79 80 83 80 83
54 49 56 55 51 52 53 55 56 58 59 65 69 72 74 75 70 79 77 81 76 75 81 72 64 61 58 62 58 72 75 76 78 77 72 78 77 80 83 85 86 81 76
43 46 48 52 51 53 54 53 55 56 61 68 71 76 77 66 71 76 74 78 86 90 92 87 70 61 68 68 68 68 71 75 81 87 86 91 85 84 97 94 84 86 88
43 44 52 54 51 50 46 53 57 65 67 68 70 75 77 79 82 76 81 92 94 86 85 78 65 61 74 72 69 64 64 64 74 87 95 90 95 84 79 85 83 88 85
43 47 46 47 47 52 53 59 64 70 68 69 72 77 79 78 82 84 90 89 92 85 82 74 73 77 76 73 72 74 71 70 69 64 82 86 79 77 79 79 94 94 91
46 44 42 54 53 56 60 65 69 72 71 70 71 76 82 90 90 91 92 96 81 82 79 77 76 82 75 68 77 83 76 73 54 63 64 66 68 65 71 87 92 95 91
47 54 52 54 57 63 66 69 71 75 74 78 79 85 82 86 90 95 95 95 91 90 85 83 76 76 74 71 90 91 91 76 75 80 78 74 76 78 74 88 93 96 92
52 53 51 52 55 58 67 70 75 82 86 89 95 94 92 90 90 88 93 94 88 92 86 88 89 77 73 72 72 90 89 77 81 87 84 87 90 87 88 87 90 97 96
50 52 56 58 57 55 68 70 74 84 88 95 97 96 97 95 89 88 89 90 91 94 90 88 90 80 76 77 81 80 77 86 94 95 94 91 91 87 86 86 86 88 89
56 57 60 60 62 64 72 77 86 87 93 93 95 94 95 94 96 88 91 92 93 95 91 88 83 79 78 85 82 83 86 95 95 98 92 94 91 86 83 82 79 79 81
58 60 63 69 72 74 77 80 89 93 94 88 90 90 93 96 98 96 92 92 89 93 94 92 93 97 96 96 96 88 94 96 95 93 96 96 91 94 95 86 87 86 91
64 65 70 76 80 83 83 84 85 83 81 82 86 89 94 93 89 87 90 93 95 95 91 97 97 98 98 97 95 95 95 94 96 97 96 95 95 96 95 94 90 90 92
68 72 85 86 84 84 87 82 84 80 80 82 80 84 87 87 85 84 84 85 86 92 98 98 98 98 98 94 95 96 97 95 94 92 96 96 96 97 97 94 90 96 94
89 87 88 88 87 85 85 87 88 77 84 83 85 85 86 84 85 86 87 86 85 97 98 96 96 96 95 94 93 96 95 94 93 89 94 94 96 97 97 96 95 94 91
85 87 93 93 93 92 91 90 89 94 92 89 90 88 86 86 86 86 88 90 97 98 97 95 93 95 95 94 93 94 96 96 94 94 96 97 98 98 98 97 95 99 95
79 85 87 89 89 90 80 77 84 90 93 95 95 99 94 89 89 88 96 98 97 96 94 96 95 93 94 93 94 94 95 95 93 97 97 98 99 98 98 96 97 96 97
77 80 82 82 82 78 83 83 79 87 91 98 99 98 98 99 98 91 97 96 96 96 94 95 94 96 96 95 94 94 97 98 95 95 97 98 100 99 97 97 98 99 96
84 85 86 84 85 87 90 91 87 91 98 98 97 96 94 97 96 95 93 98 96 94 97 97 95 95 95 96 95 96 96 96 92 93 96 97 100 98 97 97 99 97 97
91 91 90 93 93 95 94 93 95 97 97 97 96 96 94 95 95 96 97 98 98 98 96 98 97 96 94 95 94 96 95 95 94 94 96 96 96 96 97 98 98 98 96
93 91 90 89 90 90 91 91 95 95 95 96 95 95 95 96 95 94 95 95 95 95 94 98 98 97 97 96 95 96 96 94 92 91 93 95 96 95 99 97 97 98 97
92 92 92 91 93 92 92 94 93 91 93 93 93 94 95 94 95 94 94 93 92 92 92 94 95 98 98 98 97 97 97 95 93 91 89 92 94 95 98 97 97 98 98
94 93 94 95 95 95 93 93 93 92 93 93 94 94 93 94 92 94 92 90 90 91 91 90 93 94 96 97 98 97 97 97 96 95 92 91 91 91 94 96 98 97 98
94 94 94 95 95 94 94 94 94 93 93 93 94 94 95 93 94 93 90 88 89 89 91 92 91 94 91 93 94 98 97 96 96 95 94 90 90 93 92 92 97 97 96

GFSGL_sfc_rhum_063.txt.gz
RH
66 62 58 63 67 70 71 73 77 67 57 60 61 62 64 70 77 79 80 80 78 82 83 83 84 86 84 83 86 94 97 98 97 74 74 71 71 71 66 70 70 71 70
61 59 66 69 70 82 87 81 59 60 58 61 63 61 61 68 77 80 77 75 80 82 80 81 84 73 84 84 83 75 73 70 72 70 73 75 75 72 72 74 61 53 68
59 66 78 80 86 68 59 61 58 57 57 61 62 65 65 70 79 79 76 78 81 84 82 83 84 85 87 86 75 72 70 55 72 78 80 78 79 75 74 74 74 77 66
71 77 77 68 65 58 59 58 60 60 61 62 66 70 73 74 79 75 73 80 82 80 84 87 87 87 88 81 66 66 61 69 77 80 78 71 75 75 83 85 83 82 70
74 66 70 66 57 59 56 57 57 57 58 65 70 71 76 76 72 79 80 85 87 84 81 82 82 68 65 67 59 64 72 78 79 78 76 75 77 84 86 84 91 79 77
69 65 64 59 55 56 57 56 58 60 67 67 70 75 78 72 76 82 83 85 82 84 93 92 88 78 76 73 70 66 73 75 78 86 80 79 86 88 98 94 88 91 90
60 57 58 55 52 55 53 55 60 66 71 69 71 72 77 82 81 82 80 84 89 94 95 90 78 60 71 75 77 75 72 66 79 85 91 90 97 89 82 89 89 90 90
54 52 51 55 56 55 56 61 65 71 74 74 76 76 82 78 81 83 84 93 94 92 85 81 77 75 76 74 74 77 73 70 67 61 78 87 85 80 85 80 91 94 91
49 48 49 58 55 58 62 68 69 73 77 79 77 81 84 86 84 85 89 98 97 94 77 81 78 80 76 76 82 86 79 74 58 58 64 65 67 68 68 93 93 97 92
53 59 57 55 57 61 66 69 74 77 75 82 84 88 88 91 84 89 93 99 99 94 87 82 82 83 78 78 91 92 94 80 71 70 78 75 71 79 76 85 97 97 94
56 56 53 55 57 61 66 73 74 78 82 85 89 92 95 93 93 86 86 93 98 96 88 90 88 83 80 77 76 91 91 80 79 82 86 89 87 90 88 87 90 97 96
52 54 57 60 60 59 72 76 77 84 88 92 95 93 93 91 88 88 86 89 92 97 94 92 90 84 82 80 79 83 82 88 94 96 98 94 92 91 85 88 86 89 90
57 60 61 61 64 68 75 78 85 86 93 89 92 90 89 92 93 86 89 91 92 98 95 92 88 87 96 86 84 86 90 97 98 100 97 94 94 88 81 87 81 81 84
64 66 68 72 72 74 79 80 88 89 88 84 87 89 88 89 96 94 94 95 92 98 99 98 97 97 96 95 96 91 96 97 96 96 97 97 94 92 95 92 92 88 95
79 80 83 83 86 86 83 85 82 79 79 78 82 86 86 89 85 85 90 95 95 92 94 98 98 96 96 95 96 96 95 97 99 98 98 96 94 95 97 97 96 92 97
84 86 92 92 92 92 93 88 81 85 84 84 85 85 81 82 80 82 84 86 88 87 97 97 95 95 96 95 96 94 95 96 95 96 96 93 93 95 97 97 97 98 98
83 81 86 90 92 93 91 91 85 78 77 78 81 84 85 86 91 100 99 89 91 91 98 96 94 94 94 95 95 94 94 94 93 97 95 92 95 94 98 98 97 98 97
87 89 92 88 89 87 92 90 85 82 85 80 70 82 82 90 98 100 99 91 97 98 98 96 96 94 93 94 96 95 93 95 97 96 95 94 96 96 98 98 97 99 98
73 82 87 91 90 89 88 88 88 88 90 88 83 80 98 98 98 94 92 99 93 95 95 96 97 96 96 93 96 96 94 96 96 97 94 94 97 97 99 98 98 97 98
86 91 92 90 89 84 89 88 86 90 91 91 94 97 97 98 99 97 98 98 98 96 98 97 94 96 97 96 96 96 96 98 98 96 96 95 97 98 98 98 99 99 97
87 85 89 86 90 89 92 92 92 93 92 94 95 95 96 96 96 94 94 94 95 94 96 98 98 97 96 97 96 97 96 96 96 96 95 94 97 100 97 97 98 97 98
88 87 90 92 90 93 92 92 93 93 92 91 91 92 92 94 94 94 94 94 96 95 95 95 95 96 98 97 96 97 96 96 96 96 96 96 96 97 97 98 99 98 97
92 95 94 91 94 94 94 93 94 94 93 93 92 92 92 94 94 93 94 93 92 94 94 93 94 94 94 95 98 97 97 96 94 95 95 96 96 95 97 98 97 98 98
93 96 93 94 96 96 97 96 96 96 94 94 95 94 94 93 95 95 94 93 91 91 91 93 93 94 92 93 94 97 97 97 97 96 92 95 94 94 96 96 97 99 98
99 99 100 99 100 98 98 96 97 99 98 96 95 95 92 92 92 94 94 91 88 89 89 90 92 91 91 92 94 94 97 98 97 96 95 94 92 92 92 94 97 97 99
98 99 100 100 100 100 99 98 99 96 97 96 96 95 94 93 92 94 92 88 88 90 89 88 88 91 92 91 92 92 91 97 97 96 95 94 94 94 93 92 93 97 95

GFSGL_sfc_rhum_066.txt.gz
RH
77 78 74 68 73 82 83 85 81 87 91 73 65 64 65 72 77 81 83 83 83 80 81 84 82 84 88 85 86 92 95 95 93 83 72 63 61 61 61 63 64 63 66
73 78 80 74 72 79 83 84 89 84 72 68 66 65 67 70 77 82 82 76 83 80 80 83 81 73 89 89 88 88 90 93 75 67 63 66 67 65 66 66 59 54 63
74 73 71 75 82 89 87 90 78 69 64 61 62 65 69 71 73 82 82 80 81 83 84 86 84 87 89 89 82 77 69 57 68 68 70 72 70 67 66 68 69 69 65
74 74 82 84 83 77 67 62 65 61 60 61 64 69 74 75 76 81 78 81 85 84 86 88 88 90 91 90 82 73 65 65 68 73 75 70 67 63 74 77 75 68 64
76 80 89 81 67 63 62 59 59 59 57 61 69 72 76 77 73 81 82 86 89 88 86 82 84 81 72 77 66 68 65 69 72 74 73 72 66 70 73 75 84 76 73
85 87 70 66 56 57 60 59 60 58 63 71 71 73 74 69 77 84 87 88 86 85 87 88 91 89 88 83 82 75 66 69 76 79 76 75 69 72 84 88 84 86 80
65 60 55 56 58 61 56 56 57 62 68 71 72 73 75 78 80 84 85 90 86 88 91 92 90 74 75 71 73 76 77 72 81 81 87 78 85 80 80 82 82 81 81
53 52 56 60 60 57 57 59 62 68 71 75 77 79 82 78 81 83 87 91 92 92 94 93 90 81 73 75 75 81 76 70 68 67 75 74 75 76 76 77 84 87 81
54 53 54 59 56 57 61 65 69 74 75 78 79 81 84 85 83 84 89 94 96 96 92 92 86 79 76 75 86 86 78 72 64 68 65 68 72 67 69 86 87 90 90
57 57 57 59 58 61 65 70 74 80 77 82 78 81 82 90 84 87 89 100 94 91 91 90 84 85 83 84 92 93 94 80 75 67 64 67 69 72 74 82 87 93 86
59 58 56 56 58 61 68 75 78 80 82 87 87 86 86 86 87 83 86 96 93 89 91 94 88 85 88 89 80 92 90 76 82 77 74 79 83 83 84 81 80 90 90
56 56 57 60 61 62 74 78 79 84 88 90 91 87 88 85 84 82 83 88 92 95 89 92 90 88 87 87 85 88 84 87 94 95 95 94 93 89 83 81 75 82 83
62 68 72 72 74 76 79 82 86 88 91 88 89 87 83 80 90 83 85 87 90 96 90 89 91 91 97 98 96 98 92 92 96 96 94 93 88 82 76 75 75 77 76
80 84 85 87 88 88 88 86 94 96 94 88 88 88 87 84 86 90 90 88 88 92 92 91 91 93 97 95 97 96 98 96 94 94 93 89 88 87 85 80 85 82 88
83 83 88 90 94 93 89 93 90 89 93 90 89 90 91 88 80 84 88 92 94 96 97 100 97 96 98 97 96 94 95 96 95 94 96 94 90 86 86 86 87 85 90
75 82 89 89 88 85 84 81 75 75 75 75 74 76 76 75 76 81 84 87 98 98 98 98 98 96 94 89 94 94 94 95 95 95 95 93 93 91 87 86 89 91 90
86 79 84 84 86 89 90 88 92 79 72 72 75 77 79 81 90 98 97 97 98 100 98 98 97 95 91 90 92 94 94 92 92 93 93 94 94 90 93 89 91 92 88
82 89 94 95 97 92 87 83 87 86 88 84 77 80 82 86 91 96 98 99 99 99 98 97 97 95 96 93 95 94 95 96 96 94 96 96 95 92 93 92 92 95 89
83 90 95 96 85 80 85 91 93 93 92 91 86 82 84 82 78 85 89 94 96 97 97 96 96 97 97 94 94 96 97 96 96 97 96 95 96 92 94 92 92 96 94
78 88 89 92 93 92 93 93 91 91 87 90 91 93 89 86 90 92 94 95 94 94 94 93 93 96 97 97 97 97 97 97 96 96 96 96 96 95 95 94 96 93 88
85 77 91 88 92 93 93 95 93 94 94 94 94 92 88 93 93 93 93 94 94 94 93 92 94 93 94 96 97 97 96 96 96 95 95 95 96 96 94 94 94 90 90
85 85 91 96 94 97 96 94 95 96 95 95 93 90 92 92 93 92 92 94 95 94 94 94 93 93 94 94 94 96 97 96 96 96 96 95 95 95 94 95 95 94 92
91 96 95 92 96 98 97 95 99 98 96 96 94 94 93 95 94 94 94 94 92 93 90 92 94 92 91 93 94 95 95 96 96 96 96 96 95 95 96 94 93 95 93
95 98 92 95 100 99 100 100 100 97 96 96 99 96 96 95 95 94 96 92 92 90 90 90 90 92 92 92 92 94 93 93 95 97 96 96 94 95 94 92 92 92 92
100 100 100 100 100 100 100 100 100 100 99 100 100 96 95 94 92 93 94 88 89 89 88 89 89 88 88 91 93 92 91 93 94 96 96 96 95 94 93 89 92 90 93
98 99 100 100 100 100 100 100 100 100 98 98 98 97 97 95 93 94 93 90 89 89 88 88 88 88 90 88 88 90 90 90 93 95 96 95 95 95 94 92 90 90 90

GFSGL_sfc_rhum_069.txt.gz
RH
81 83 83 79 74 72 71 69 68 77 88 94 92 71 52 51 54 58 59 59 62 62 62 61 60 57 54 52 55 55 56 62 65 50 50 46 46 43 40 42 40 37 38
74 76 74 72 73 73 74 74 74 90 89 86 67 51 49 50 52 57 58 56 62 63 61 61 61 50 60 58 56 58 57 58 72 64 48 42 45 43 45 46 35 31 39
64 74 77 75 74 72 78 86 91 83 69 57 52 53 50 52 53 56 58 60 62 61 60 61 59 59 60 55 56 57 55 54 57 61 53 42 43 44 44 41 38 43 38
74 76 77 71 77 91 87 78 71 68 54 52 52 50 55 54 55 56 56 61 63 61 64 65 62 60 58 57 58 60 64 63 65 60 48 45 44 43 45 43 39 37 37
73 73 83 88 94 88 76 64 70 59 48 46 49 54 56 55 50 54 56 62 64 64 64 61 61 65 74 72 58 59 60 60 58 52 47 45 46 45 46 39 46 42 44
81 85 90 91 78 64 63 72 64 49 51 53 53 57 57 47 69 83 75 57 58 61 61 58 58 73 72 88 89 87 75 58 56 52 49 53 50 46 50 49 51 53 56
78 79 66 58 53 65 64 48 49 57 56 56 58 58 57 57 77 81 84 57 56 57 59 59 56 56 74 62 72 78 79 78 73 58 69 58 66 58 45 48 48 49 49
57 53 54 61 62 60 47 53 58 52 56 55 57 59 61 54 77 80 83 61 61 62 64 62 62 61 61 66 59 55 53 53 56 54 54 52 51 48 45 51 60 63 57
49 54 58 59 52 53 59 51 52 55 55 56 56 58 59 56 75 82 79 62 64 64 63 64 64 63 72 79 69 75 64 57 59 68 67 67 71 66 69 65 73 72 73
51 54 56 56 49 49 51 52 54 55 54 54 55 57 64 61 72 84 79 72 93 74 67 68 82 81 81 83 85 90 93 68 55 54 53 56 57 54 69 63 65 75 65
60 52 46 46 46 49 53 54 55 56 62 71 81 68 65 66 67 78 82 77 82 75 67 67 74 84 89 87 84 86 94 68 69 62 59 57 54 54 57 58 60 69 69
45 49 52 55 53 54 59 59 58 61 69 93 100 83 69 65 74 76 80 82 78 92 91 70 69 83 87 89 86 86 89 86 92 82 76 72 71 67 61 60 58 59 56
57 61 59 56 53 51 50 51 52 49 59 73 78 77 79 71 66 76 84 86 85 89 88 93 89 84 90 90 95 98 98 96 93 94 85 72 65 61 61 64 61 58 60
56 56 53 51 50 49 46 47 56 64 68 66 71 79 83 68 67 66 73 76 79 88 82 89 97 98 98 94 92 89 94 94 91 88 88 71 72 75 75 66 67 64 71
53 50 51 55 59 58 55 60 65 63 73 76 73 78 90 90 81 86 90 91 92 88 97 97 96 93 93 95 89 85 81 81 88 85 90 87 85 78 76 72 68 66 72
46 50 66 64 66 64 64 65 67 69 68 68 76 81 81 80 77 85 85 87 95 97 97 97 97 97 94 92 91 86 81 82 79 80 86 85 86 79 75 76 70 72 71
58 62 64 70 66 70 69 66 68 65 66 69 71 72 75 76 75 79 84 77 82 92 96 97 97 98 97 93 87 91 87 82 85 84 85 86 89 77 86 80 76 74 72
68 82 69 71 71 70 70 73 73 76 81 75 66 71 76 76 74 76 79 72 75 74 80 89 94 95 90 87 88 90 86 86 92 89 89 89 91 82 87 80 75 79 73
60 62 74 78 78 78 75 74 73 74 76 74 68 70 76 77 73 74 77 82 83 80 78 77 84 85 87 90 96 95 96 95 95 94 92 90 91 82 86 79 76 80 81
56 75 76 71 72 73 72 76 75 76 76 78 77 79 77 74 83 85 83 87 86 81 83 83 85 84 89 90 91 95 98 96 95 91 93 94 92 87 85 84 84 81 72
59 60 81 67 71 73 77 78 79 79 80 79 80 82 84 82 83 83 82 84 84 84 86 82 84 85 86 89 86 89 91 96 94 91 91 92 92 90 85 85 84 78 72
68 68 72 77 76 82 79 76 81 80 78 79 79 74 79 82 81 80 80 85 86 82 80 83 84 84 86 85 86 90 90 91 93 95 94 93 91 88 89 88 86 83 77
74 78 75 73 78 82 82 78 84 84 81 81 79 79 80 84 84 79 82 85 80 81 80 80 85 84 84 88 90 88 89 86 89 92 93 94 92 91 92 90 86 86 82
76 81 73 78 84 81 85 86 84 79 78 82 86 86 84 84 86 84 84 84 82 82 82 83 81 81 80 83 82 86 85 87 87 89 92 94 92 92 93 91 88 84 81
81 83 84 85 88 88 87 84 84 85 85 86 87 87 82 84 81 84 84 83 83 84 82 85 83 81 81 83 84 83 84 89 90 91 91 93 94 92 92 90 88 82 80
80 81 81 85 86 88 88 89 88 86 86 86 87 88 88 86 83 86 84 83 82 84 86 83 83 83 83 81 78 82 84 87 89 89 93 91 93 92 92 92 90 83 80

GFSGL_sfc_rhum_072.txt.gz
RH
61 70 76 74 81 83 74 68 63 60 62 76 91 94 76 52 44 46 44 42 45 46 45 48 48 46 44 42 40 38 40 39 42 36 31 32 44 44 38 38 38 37 33
59 72 82 86 83 84 81 74 75 81 86 94 90 68 49 39 42 42 42 38 43 45 45 47 48 38 47 46 42 44 41 39 40 48 44 38 46 44 43 43 34 26 30
66 78 80 82 84 86 89 90 95 92 84 80 59 47 42 41 38 40 40 42 44 44 45 46 45 46 48 44 42 41 38 33 38 45 47 41 44 42 42 39 36 35 25
71 76 81 82 83 87 94 95 94 87 75 66 59 45 44 38 38 40 38 41 42 41 45 46 45 46 47 46 42 42 39 41 44 53 55 59 47 41 38 36 35 29 28
72 75 76 80 86 94 93 92 78 60 70 67 42 38 41 42 35 38 36 40 41 41 43 43 47 52 67 66 43 45 44 46 57 62 69 56 43 37 38 33 36 33 33
68 72 75 83 86 88 88 71 74 70 55 39 43 47 46 34 63 75 66 42 38 39 42 41 39 55 62 83 84 84 72 57 64 68 62 57 45 38 41 40 40 41 45
69 74 75 74 72 61 54 52 56 51 47 52 49 44 43 41 72 79 82 43 40 40 40 40 37 31 53 48 64 87 88 89 90 69 67 58 60 54 50 45 39 38 39
64 59 50 53 59 56 45 49 57 53 50 45 44 43 43 37 69 78 81 48 43 42 42 43 45 46 46 50 49 50 49 49 58 53 50 46 46 46 45 42 45 50 50
50 45 50 53 50 49 65 61 47 44 43 41 37 41 43 42 70 79 75 52 49 50 45 46 45 48 56 73 62 68 60 53 57 69 71 74 68 68 65 57 65 71 74
43 48 44 46 63 54 46 43 40 39 38 38 40 44 53 51 66 81 74 67 74 68 60 56 65 62 70 82 79 80 88 64 55 57 54 60 69 60 74 62 60 73 64
48 49 49 44 40 40 41 40 40 42 48 59 69 62 54 55 55 74 78 66 66 67 61 63 69 77 84 86 90 80 85 66 66 67 57 56 52 50 46 55 54 64 70
41 41 41 41 38 39 44 45 43 43 47 59 99 70 57 54 64 64 73 75 70 76 66 60 60 78 83 89 95 89 87 89 87 88 81 72 66 61 55 55 58 59 56
44 46 44 42 39 35 37 36 36 34 45 58 64 63 63 57 51 66 72 77 78 81 73 74 78 84 84 95 99 97 98 99 98 100 91 79 69 63 60 59 60 58 56
43 43 40 38 34 32 26 31 40 49 54 52 59 68 71 57 56 66 75 75 76 81 80 79 81 84 86 90 97 97 99 96 92 93 87 68 66 86 78 66 69 65 74
39 36 36 39 42 41 39 47 50 53 64 66 65 67 82 81 73 74 74 78 81 82 96 90 81 76 78 81 91 94 93 88 91 83 78 76 79 83 83 76 70 66 71
34 37 51 48 49 44 42 52 69 66 66 68 70 75 75 71 72 71 73 75 72 74 79 87 98 99 91 85 96 93 89 91 80 76 84 82 79 86 83 81 70 74 73
40 45 50 52 46 48 49 50 52 63 62 61 63 66 71 74 72 71 73 72 65 68 77 78 85 89 89 88 94 94 94 83 96 90 85 88 84 82 93 80 80 72 75
52 66 49 53 53 55 56 60 58 64 72 65 56 63 67 71 70 69 70 64 64 62 65 74 81 81 78 74 75 81 90 86 90 90 96 95 97 90 91 78 75 78 74
43 49 60 66 67 65 64 63 62 64 65 62 58 58 62 68 66 64 66 73 74 68 64 66 72 74 76 77 85 87 94 97 99 100 97 93 100 92 86 77 73 77 74
45 68 65 57 59 59 59 63 62 65 65 66 66 67 67 66 76 77 75 79 79 72 74 70 69 72 79 80 86 89 91 91 91 97 100 100 100 96 87 83 81 81 73
40 47 71 52 56 60 65 66 65 68 69 68 70 73 76 77 76 74 72 76 76 75 78 75 77 79 78 80 80 83 85 91 89 91 95 96 100 97 87 84 82 76 69
55 55 60 67 64 72 70 65 69 69 68 69 70 66 67 75 73 72 71 76 80 75 72 74 74 74 76 78 81 87 88 88 88 90 89 88 93 95 93 88 85 85 72
63 69 66 61 69 71 73 69 74 76 74 74 71 72 73 78 78 72 76 80 75 76 75 75 79 75 72 76 79 80 86 86 86 88 89 90 89 92 96 93 89 87 78
67 73 63 68 76 74 79 81 78 71 73 76 80 80 77 78 81 79 79 79 78 79 79 79 77 76 74 78 78 75 73 81 83 82 86 88 89 89 94 93 91 89 85
75 76 77 77 78 81 82 77 79 80 80 80 81 80 74 78 75 78 79 78 78 80 77 79 79 77 77 79 81 80 77 78 82 83 86 86 86 91 92 93 94 88 87
71 72 75 78 79 80 80 82 82 81 81 81 80 80 79 78 76 80 78 78 77 78 80 78 78 78 80 78 75 76 79 81 84 83 89 85 87 87 92 92 95 90 84

GFSGL_sfc_rhum_075.txt.gz
RH
45 56 72 76 70 81 81 91 94 82 66 69 83 90 92 94 88 66 48 48 43 45 45 45 46 44 42 40 39 38 38 40 45 40 33 35 40 43 37 41 41 40 42
45 56 76 81 92 90 89 89 89 89 89 93 92 88 92 77 59 54 51 42 42 42 44 45 43 33 43 44 42 44 42 41 42 48 40 38 42 42 46 52 39 31 36
52 72 87 89 87 85 86 90 92 95 96 92 90 88 78 65 51 41 39 42 43 42 43 41 40 40 45 44 44 42 41 32 40 42 43 40 39 40 42 46 46 45 32
77 78 86 87 87 90 91 88 90 93 92 93 92 88 79 51 39 37 38 40 39 37 38 39 39 40 42 45 43 46 40 44 42 42 41 41 43 44 49 56 55 46 38
73 80 89 90 89 86 87 89 91 89 87 72 74 74 52 37 35 41 38 37 36 36 38 34 38 44 65 61 44 51 51 48 46 45 44 49 54 59 59 54 56 51 43
77 83 87 89 87 92 91 88 85 72 69 71 62 40 44 40 72 64 59 40 37 36 36 34 32 46 45 73 74 75 64 58 60 61 59 60 60 63 56 57 56 54 54
80 86 84 84 85 82 73 70 65 59 55 52 44 49 48 42 71 72 78 44 39 37 38 38 34 27 47 38 56 79 79 82 83 69 70 63 68 59 53 50 51 51 48
79 76 74 72 64 53 49 47 49 50 52 52 48 44 43 36 73 76 81 49 45 44 44 43 45 46 47 52 49 53 52 52 65 63 64 59 54 51 52 54 56 51 48
67 58 52 48 47 50 53 53 56 53 49 46 39 37 38 40 75 79 72 53 54 55 49 48 46 50 59 74 68 68 63 66 56 69 70 72 74 71 65 62 73 74 78
47 44 43 45 44 48 54 52 46 42 36 33 34 38 55 48 80 79 65 62 66 62 51 45 59 56 71 81 78 82 97 74 70 69 59 67 70 61 78 64 64 77 66
39 39 42 44 48 46 43 40 37 37 40 56 68 64 49 48 52 69 73 56 62 66 61 58 56 68 74 77 85 81 91 79 76 94 89 66 81 67 59 62 62 70 74
42 42 40 40 36 36 39 40 39 40 50 54 90 67 56 54 66 69 72 77 76 75 70 68 66 75 80 81 81 79 85 94 97 95 93 92 78 69 62 61 67 64 60
41 42 42 39 35 33 36 37 38 31 43 54 60 60 60 57 49 73 68 73 72 75 72 76 82 84 87 84 88 90 90 98 98 98 94 84 76 75 66 75 73 67 65
41 42 38 36 33 28 23 28 38 45 51 50 54 64 68 56 52 60 62 63 67 68 70 72 77 83 84 89 89 84 91 96 97 90 82 75 75 83 83 76 83 92 84
38 35 35 34 36 38 36 46 48 58 67 65 64 65 78 77 67 70 70 70 74 74 81 81 77 77 77 75 81 77 85 97 97 84 80 75 72 68 76 80 92 81 91
33 35 48 47 45 38 38 60 65 69 70 71 70 72 71 67 71 70 68 70 71 69 71 73 81 88 86 80 81 85 95 96 96 85 84 80 79 77 74 81 82 86 85
42 50 48 50 42 43 44 47 47 74 65 67 67 64 65 69 68 69 67 67 68 59 66 65 77 84 88 80 77 80 82 82 98 94 88 94 88 81 82 86 88 87 85
52 71 46 49 50 52 50 55 53 60 70 64 68 62 55 62 67 68 64 65 59 55 56 62 68 72 73 71 75 82 82 83 85 87 99 99 100 97 89 90 84 86 84
46 53 60 63 64 62 59 59 58 60 63 60 55 60 60 62 64 63 61 68 71 64 58 59 65 67 72 74 82 87 90 91 91 95 92 96 100 90 95 91 89 79 79
51 64 66 54 55 54 56 58 58 61 62 63 63 61 62 66 76 75 71 76 78 72 70 66 66 69 77 79 84 90 88 89 92 93 95 96 98 94 95 95 92 89 75
40 48 68 50 53 56 62 63 62 64 66 65 67 70 78 71 75 73 71 75 78 75 78 75 74 78 74 75 76 84 84 88 88 92 91 91 95 94 96 95 93 85 75
54 54 56 63 62 67 67 64 65 66 65 65 66 63 64 75 74 72 70 76 81 74 73 73 74 71 70 72 77 84 84 87 85 87 90 90 91 91 93 96 92 92 81
62 68 65 58 66 67 71 65 71 73 71 71 68 70 72 78 81 73 76 80 75 77 74 78 79 76 72 77 79 77 83 83 83 88 91 91 91 90 92 94 95 93 89
65 70 63 65 72 74 77 78 76 69 70 73 78 80 79 79 81 78 78 79 77 77 78 80 80 78 76 80 79 79 76 80 80 83 87 90 89 89 92 91 94 95 93
71 73 73 74 76 78 78 75 77 77 78 79 81 80 74 76 72 74 75 75 75 76 76 80 81 79 78 80 81 79 80 85 87 82 84 86 89 87 87 92 92 94 94
68 69 72 76 77 79 79 80 80 80 81 81 80 79 78 75 72 75 74 73 74 76 78 80 79 76 78 78 75 80 84 82 81 80 85 84 87 87 87 89 91 94 95

GFSGL_sfc_rhum_078.txt.gz
RH
52 60 70 76 80 88 88 90 92 93 91 92 92 93 94 94 95 96 96 87 71 66 64 66 65 63 70 67 68 68 68 68 69 59 59 56 59 61 53 61 63 63 62
51 59 79 87 87 92 97 95 92 93 92 94 96 94 95 96 97 93 83 68 67 64 62 64 64 49 64 69 72 70 69 66 66 64 58 63 62 61 62 65 59 50 53
51 79 88 95 95 94 93 92 92 93 94 93 91 92 94 91 90 85 71 68 62 62 62 63 61 60 66 68 69 70 68 51 66 71 60 62 64 64 64 62 74 78 53
77 90 95 94 93 94 95 94 92 91 92 92 92 92 92 89 80 70 57 59 59 54 58 59 57 58 62 64 60 68 61 74 73 73 67 66 67 65 71 78 74 77 72
88 90 95 96 96 95 95 94 94 92 92 91 93 93 86 75 63 60 55 55 53 52 55 50 51 60 69 67 50 61 66 66 66 69 68 68 70 69 75 81 82 87 82
91 96 96 95 95 96 95 94 92 91 90 88 83 81 76 58 75 68 58 53 52 54 56 53 51 58 50 66 76 77 69 66 68 75 74 84 80 81 84 90 99 99 89
91 93 95 95 96 94 89 86 84 85 78 78 74 74 66 64 76 76 69 57 58 59 60 59 51 38 62 58 66 73 81 82 83 74 78 81 88 83 84 85 79 79 82
91 90 89 90 88 81 77 75 73 69 68 70 69 61 59 53 78 79 81 65 65 65 67 67 68 68 67 74 71 75 77 74 73 76 80 81 82 77 79 72 82 82 79
85 84 81 77 71 67 62 63 64 66 69 65 59 58 54 71 83 83 72 78 76 76 62 63 62 65 68 67 73 77 76 76 67 76 79 87 87 77 76 90 95 94 92
76 72 67 59 56 56 60 66 69 64 59 53 50 70 66 76 78 74 66 93 83 82 73 64 70 70 75 78 80 83 84 78 81 88 84 92 95 94 81 77 85 88 84
54 52 50 51 52 57 63 61 54 53 70 88 89 78 63 68 76 79 77 86 91 88 84 80 79 78 81 83 82 86 86 80 80 83 86 82 86 98 88 84 80 83 86
47 47 49 51 46 47 56 50 50 65 80 90 93 86 81 75 79 74 71 71 74 87 82 81 80 78 78 79 82 83 84 88 91 90 90 92 90 92 98 96 83 79 79
51 50 49 44 44 43 51 58 60 55 70 88 92 91 93 78 84 75 67 69 73 82 78 78 77 76 79 84 85 86 87 95 95 95 90 90 85 82 92 91 96 97 86
49 52 50 46 41 38 34 45 66 76 83 84 88 90 93 80 87 83 79 84 71 76 79 81 81 81 85 83 80 80 89 91 97 94 90 92 93 94 98 98 99 96 96
50 46 45 48 54 59 59 71 80 77 84 88 88 87 94 94 85 78 76 80 85 78 84 84 82 90 85 82 80 79 80 83 92 96 96 94 91 95 96 96 95 96 98
42 52 73 73 68 63 68 74 76 76 73 73 70 77 84 71 68 68 68 67 67 69 83 85 91 94 94 84 84 85 83 82 86 84 95 98 94 94 95 95 98 97 97
61 64 66 75 70 68 73 80 85 76 67 70 68 66 67 68 62 67 67 65 65 70 88 89 93 93 93 84 81 82 86 84 82 86 86 95 97 93 93 91 97 97 97
65 83 75 76 77 79 77 79 78 82 91 90 74 72 66 63 64 64 64 64 79 74 76 84 91 90 86 82 82 84 84 85 87 87 90 91 93 94 97 98 98 96 97
82 87 89 88 84 79 79 80 80 81 84 82 77 83 78 76 63 62 67 92 94 87 80 80 88 86 87 85 87 88 89 90 87 90 90 92 94 94 94 98 98 96 97
77 79 74 71 73 72 74 78 77 80 81 84 85 86 88 82 88 90 86 94 95 93 93 86 84 84 89 88 90 89 88 87 87 88 90 93 94 94 94 94 93 98 97
57 66 78 64 69 72 78 79 78 82 83 85 88 94 84 89 92 89 93 92 95 94 94 89 90 92 89 88 86 88 88 90 86 87 92 89 92 94 92 93 95 98 98
70 67 69 76 75 83 84 78 81 82 81 82 85 80 82 92 90 91 90 93 94 94 94 90 90 89 88 88 90 89 90 89 88 91 90 90 87 92 93 94 94 95 98
76 80 76 71 79 79 84 81 87 88 87 87 85 86 89 92 92 90 91 92 90 93 94 94 92 88 88 88 86 87 92 91 90 87 89 89 90 90 93 94 94 93 94
78 81 72 78 85 86 91 92 88 84 86 90 91 91 92 91 91 90 91 92 92 94 92 93 93 86 82 87 92 88 81 83 87 93 95 94 90 86 92 93 92 94 94
85 85 86 87 88 90 90 88 89 89 91 91 92 94 87 88 87 89 89 89 89 90 91 89 86 86 92 87 87 84 88 95 89 88 85 87 90 90 90 93 94 93 94
82 83 85 88 89 90 90 91 91 90 92 92 91 91 90 90 87 88 88 85 86 92 84 85 84 84 84 84 85 88 86 83 84 85 89 91 93 91 90 92 94 93 93

GFSGL_sfc_rhum_084.txt.gz
RH
56 67 74 79 84 85 90 91 92 94 96 96 97 96 94 90 89 91 94 97 93 91 92 94 92 85 84 84 84 82 80 83 86 78 80 73 72 69 64 68 74 80 85
65 63 77 83 87 90 90 95 97 98 98 97 96 93 90 87 92 92 94 90 90 92 93 91 87 75 78 79 87 85 86 86 90 88 84 82 78 74 74 72 59 59 70
66 74 85 91 93 95 94 96 98 99 99 96 94 92 88 91 92 91 88 91 93 91 84 83 77 76 82 82 81 83 85 73 89 93 89 89 84 80 75 71 71 74 64
70 78 81 92 94 95 97 97 98 96 96 95 93 89 92 90 91 90 92 94 93 87 82 78 75 73 70 70 71 77 76 86 89 92 92 92 90 84 84 83 81 86 80
74 90 91 97 98 98 98 98 97 96 95 92 93 93 92 91 90 92 89 90 87 78 69 60 62 64 71 73 67 78 83 87 90 92 93 93 93 92 90 88 88 86 92
92 99 99 99 99 99 99 98 98 98 98 96 95 94 95 88 100 98 90 84 72 60 63 62 57 67 81 85 82 81 78 82 86 93 93 95 88 94 94 92 86 95 92
98 98 98 98 98 99 98 98 98 98 96 96 95 94 94 89 95 92 83 66 63 66 67 70 70 62 76 73 76 78 78 78 88 90 94 94 91 93 94 92 88 87 86
98 98 98 98 98 98 96 97 97 96 95 95 95 93 94 84 90 86 79 74 82 79 77 77 78 77 76 82 84 85 83 82 81 76 81 81 90 92 95 91 91 92 92
98 98 96 96 97 95 96 95 94 94 95 94 90 87 84 86 87 86 82 79 75 80 76 76 77 81 80 80 90 92 85 80 70 77 78 78 79 82 84 94 91 82 88
94 92 88 88 90 91 89 88 84 80 74 72 74 77 80 79 85 81 74 86 87 81 77 75 78 81 83 84 88 92 95 89 90 90 86 88 84 81 86 89 90 95 86
86 84 83 82 84 83 84 82 80 76 76 85 85 83 79 80 83 79 74 82 86 85 80 80 80 76 72 70 75 93 94 87 89 89 76 78 81 83 82 80 76 86 96
80 83 77 72 65 69 73 76 76 78 84 88 90 92 91 85 78 74 74 77 74 82 76 80 83 70 70 77 87 74 71 91 95 93 94 91 87 86 90 82 79 86 91
65 64 65 63 58 63 74 79 83 80 84 89 90 92 94 87 84 75 72 70 72 79 75 74 71 72 78 89 71 65 88 96 95 93 92 88 89 83 80 87 86 86 86
56 58 60 65 66 66 66 73 84 87 88 91 96 94 95 90 89 85 80 84 72 73 80 80 84 88 90 88 84 81 90 93 90 90 87 88 80 84 84 84 89 93 97
58 59 63 68 76 79 82 82 82 92 92 92 93 92 97 97 89 78 76 80 87 81 90 90 89 86 82 81 85 82 81 81 86 86 90 86 83 83 85 81 87 86 97
65 74 83 84 84 85 86 92 89 88 85 85 89 91 91 83 68 67 69 67 65 67 87 95 97 96 94 90 93 89 83 87 85 87 90 87 89 90 89 84 83 92 95
82 87 92 94 96 97 96 94 95 96 95 96 90 72 71 71 72 85 76 70 66 67 93 93 97 97 97 91 91 92 98 97 90 92 97 91 91 88 89 88 86 88 90
96 97 96 96 96 96 97 97 96 96 97 96 90 94 94 81 85 73 65 61 87 85 85 94 95 96 95 92 95 95 94 98 97 96 97 97 95 93 92 89 89 92 92
95 96 96 96 97 96 96 96 96 96 96 96 92 93 94 84 82 64 64 93 95 91 90 89 95 96 99 98 100 100 100 100 100 100 98 98 98 94 92 89 89 88 92
93 96 95 95 95 95 94 95 93 93 93 95 95 96 95 92 96 96 97 99 99 98 98 96 96 99 99 99 100 100 100 100 100 100 100 99 99 98 95 94 92 92 87
84 82 92 87 90 89 88 89 90 95 95 96 98 96 91 96 98 98 98 98 98 97 98 97 98 99 99 100 99 100 100 100 100 99 100 95 100 98 95 92 90 86 90
83 83 86 91 89 91 90 95 92 94 96 96 98 95 95 97 98 99 98 99 99 98 97 98 97 98 98 97 96 100 100 100 99 100 100 99 98 95 93 94 94 92 91
88 91 91 91 92 96 97 96 98 98 97 98 98 97 98 99 100 99 99 100 98 99 98 99 99 97 97 99 100 98 95 94 94 99 96 99 95 96 99 97 96 94 92
90 93 91 96 97 98 100 100 99 99 99 100 100 100 98 100 100 100 100 100 100 100 100 100 99 96 95 98 100 97 93 96 95 95 97 94 94 93 96 95 95 94 94
94 97 98 100 98 99 99 100 100 100 100 99 99 99 97 100 100 100 100 100 100 100 98 97 98 97 96 96 95 94 96 95 92 92 94 94 94 94 96 96 96 96 93
96 97 98 99 100 99 99 100 100 100 97 97 98 99 100 99 99 100 100 100 99 98 98 97 97 95 95 95 92 94 94 96 95 96 90 93 94 94 94 96 95 95 91

GFSGL_sfc_rhum_090.txt.gz
RH
78 81 81 82 82 84 84 84 88 92 91 92 91 93 96 98 97 96 96 97 96 93 91 92 91 92 91 89 86 83 77 80 84 77 74 74 76 74 69 73 74 75 76
73 71 76 80 82 85 86 83 85 89 89 91 93 96 97 98 98 98 98 98 96 92 90 91 90 91 92 88 88 90 84 83 83 83 80 83 81 78 77 78 66 58 68
77 75 74 80 83 86 86 86 88 91 91 96 95 96 96 96 98 98 96 96 93 89 90 93 92 93 93 97 94 90 88 82 87 88 87 87 84 82 76 75 73 72 61
76 76 78 80 82 84 86 88 92 94 92 96 97 97 95 96 97 96 96 95 94 94 94 93 90 91 91 94 93 92 89 89 86 90 88 83 82 79 81 81 80 78 74
74 76 74 76 83 87 88 92 96 95 94 94 95 98 97 96 96 97 95 95 96 96 97 98 98 97 95 90 87 89 86 79 79 83 84 86 84 80 79 80 82 81 81
81 78 78 84 86 92 92 93 95 96 97 96 98 97 98 97 100 100 97 95 95 98 99 96 95 94 94 93 87 83 80 79 78 80 80 81 76 79 82 85 88 90 89
87 90 97 96 96 98 99 99 99 98 99 99 99 99 98 97 100 100 100 98 98 98 94 91 86 83 83 78 79 75 77 75 81 77 83 80 83 80 83 86 87 87 84
99 99 99 99 99 99 99 99 99 99 99 99 99 99 99 98 99 99 98 97 97 96 94 92 88 83 82 80 78 77 77 76 74 74 83 84 85 84 86 84 87 88 80
99 99 99 99 99 99 99 99 99 98 98 98 97 98 97 98 97 95 92 93 92 90 85 81 80 85 83 82 82 79 76 76 73 75 77 79 79 81 84 92 91 97 90
98 98 98 97 98 98 98 98 97 95 95 93 95 95 95 96 94 91 85 85 86 88 90 94 96 92 83 74 80 82 90 85 81 80 75 75 74 83 83 91 96 98 89
90 89 90 89 92 92 90 89 90 92 92 95 95 93 93 93 94 93 92 93 94 95 94 87 77 75 77 79 82 90 86 77 75 75 72 76 79 73 80 79 75 88 93
76 78 79 81 80 80 84 86 86 90 94 95 96 96 95 95 94 94 94 94 96 95 92 84 85 81 80 87 89 75 72 78 81 78 78 74 73 75 74 74 75 80 80
73 77 76 76 78 78 83 86 90 87 92 94 94 94 95 94 96 95 95 94 89 87 86 90 89 85 87 93 75 75 84 84 83 86 80 75 74 70 63 69 69 71 72
74 77 77 80 82 82 84 87 92 93 93 93 95 96 97 95 95 95 94 95 94 93 94 91 90 90 94 90 91 88 85 86 87 88 82 78 69 70 70 68 78 78 84
76 78 85 86 87 89 92 94 92 97 98 98 98 97 97 97 96 96 94 93 94 94 96 95 95 94 94 93 93 92 92 90 91 88 82 79 74 71 72 74 76 76 86
88 92 94 93 92 91 91 95 96 97 96 96 96 95 97 95 95 94 94 93 94 95 94 95 96 96 95 93 94 92 89 89 82 78 85 84 84 84 83 79 76 83 89
91 90 90 90 92 92 93 93 95 94 89 91 91 91 92 93 93 91 91 90 89 88 95 95 96 96 95 92 92 91 89 86 82 84 92 93 89 88 87 83 79 81 84
91 92 91 92 92 92 94 94 92 93 95 94 90 92 93 87 87 85 82 80 89 89 91 93 94 94 91 88 87 86 86 90 91 90 94 96 98 93 91 86 85 93 89
90 92 92 92 90 90 89 89 90 91 93 92 87 87 91 85 85 84 84 93 93 89 87 86 94 92 91 89 97 99 99 99 100 100 99 98 98 95 94 90 89 92 92
80 82 81 84 87 88 88 90 91 92 94 94 94 96 93 89 95 97 96 99 98 96 97 94 91 93 97 96 97 98 98 100 98 97 98 98 99 98 96 96 95 94 86
78 80 84 85 88 89 91 93 92 94 95 95 98 97 95 98 100 100 100 100 100 100 100 97 96 96 94 94 89 98 98 100 98 97 95 94 99 98 93 94 93 89 88
84 86 87 91 91 95 94 94 97 98 98 98 99 95 97 100 99 98 98 100 100 100 98 98 95 91 90 87 90 98 99 100 100 96 96 96 94 93 96 94 96 95 92
87 90 89 91 91 96 95 95 97 99 99 100 99 98 98 100 100 98 100 100 100 99 97 95 98 92 89 95 97 96 100 98 95 96 96 95 93 93 95 97 96 95 93
91 93 90 95 96 97 99 100 99 100 98 100 100 100 99 100 100 100 100 100 99 99 99 99 98 96 92 92 97 96 92 95 94 94 96 96 94 92 93 93 92 92 94
94 95 96 99 100 100 100 100 100 100 100 100 100 100 100 100 98 100 99 98 99 100 97 97 95 91 93 94 94 95 96 97 95 94 94 94 95 95 96 94 94 92 93
95 96 98 99 100 100 100 100 100 100 100 100 100 100 100 100 98 100 99 98 94 93 94 91 92 92 93 91 91 95 93 94 95 94 95 93 95 94 93 94 93 94 91

GFSGL_sfc_rhum_093.txt.gz
RH
73 74 74 73 72 73 72 71 69 70 69 70 69 72 75 78 84 88 89 88 94 93 93 92 91 87 92 93 95 93 81 73 76 68 50 51 69 66 58 59 54 53 51
72 72 74 76 77 76 76 72 72 73 73 73 72 72 74 82 92 97 97 95 97 97 97 97 95 91 93 92 90 86 74 72 74 78 62 73 76 70 61 61 51 41 46
71 75 73 79 78 80 76 73 74 74 72 70 75 76 82 89 96 94 93 94 95 94 94 96 93 92 93 94 91 86 82 86 86 83 80 81 80 66 62 58 56 53 48
68 70 72 73 74 72 73 74 78 73 71 72 75 79 84 87 90 92 93 95 96 93 92 92 90 92 93 94 92 92 94 95 93 91 90 85 70 62 57 53 56 51 49
69 71 71 70 71 72 76 76 75 76 77 78 83 87 90 91 95 95 96 96 94 96 94 93 94 95 97 94 95 98 97 98 97 94 90 80 72 68 66 53 54 47 45
70 72 68 69 70 76 77 78 80 81 81 86 91 94 95 97 100 100 99 97 96 97 99 99 98 98 98 98 97 97 94 96 94 89 93 91 94 80 64 61 57 56 50
70 68 68 69 69 71 73 78 79 82 85 94 95 97 98 98 100 100 100 99 99 98 98 98 95 93 96 94 94 91 90 89 91 91 96 92 92 69 59 58 56 55 53
77 83 83 83 89 91 90 94 95 99 99 99 98 98 97 95 100 99 98 96 97 97 96 95 95 95 95 95 95 96 97 97 96 90 84 70 63 66 71 66 66 69 64
97 98 98 98 98 98 99 98 98 97 97 97 95 96 96 97 96 95 91 92 92 95 93 95 94 95 96 97 96 95 92 88 86 84 85 86 82 80 79 78 80 76 78
97 97 96 95 96 97 97 97 93 93 94 92 92 92 95 95 93 89 85 89 92 92 92 94 96 94 94 90 85 80 82 80 80 84 79 74 76 72 76 73 78 86 70
90 90 91 90 90 90 91 90 90 92 92 94 95 93 93 93 94 92 89 90 92 92 90 91 92 95 94 91 89 85 88 85 79 68 70 65 68 66 70 74 72 80 80
82 83 83 82 79 82 86 87 86 89 92 94 95 95 94 93 92 92 93 95 96 94 93 91 91 90 89 92 88 88 89 91 88 76 70 77 83 83 80 67 65 69 66
75 78 78 76 77 78 83 85 88 86 91 93 92 92 94 92 94 94 94 94 94 91 90 91 93 94 94 96 96 94 84 83 86 88 86 84 82 80 72 70 62 57 58
76 78 79 80 82 80 80 84 90 92 93 93 94 95 96 93 92 91 88 89 93 89 91 88 91 93 94 92 91 87 86 84 85 85 83 80 76 78 72 60 63 62 67
75 77 79 81 84 87 89 88 88 96 93 91 91 89 92 90 89 89 85 83 81 83 83 80 80 77 82 84 84 84 81 81 84 84 83 82 76 65 61 58 60 59 67
81 82 85 85 82 81 84 91 88 84 83 84 84 84 89 91 88 82 81 79 78 81 74 77 81 82 79 73 78 78 75 77 73 71 73 69 69 68 66 63 62 67 69
80 79 81 83 82 81 79 78 84 88 84 90 90 86 84 85 79 75 74 73 73 67 77 79 85 86 84 77 76 76 77 78 72 67 70 70 71 68 72 69 66 66 67
85 87 81 79 77 78 78 79 78 81 86 85 83 82 80 77 76 74 70 62 67 64 66 74 80 80 75 69 70 72 70 72 73 71 74 74 77 76 76 71 69 76 72
79 77 79 80 80 78 75 74 74 76 78 75 70 73 73 70 72 74 71 73 73 69 65 65 72 74 74 70 79 81 83 82 84 84 79 78 81 77 76 71 72 76 77
74 80 73 70 71 72 71 73 74 75 76 77 78 77 68 65 79 82 82 84 80 73 74 67 66 69 75 74 80 82 81 79 78 76 80 81 81 80 80 78 78 78 70
62 68 74 67 69 70 73 73 73 76 76 77 82 91 92 75 80 81 80 85 84 80 82 77 78 77 74 75 71 77 77 82 77 76 78 76 80 82 75 76 78 74 72
68 69 71 75 74 78 75 74 78 77 76 76 77 80 85 83 79 79 79 87 88 81 77 78 78 73 72 73 75 81 80 82 81 79 80 79 78 78 78 78 79 79 76
73 75 73 72 74 78 80 75 80 81 82 84 79 79 80 85 84 79 83 86 81 82 80 80 82 78 74 76 77 78 82 80 80 82 84 82 78 79 82 82 79 80 79
75 76 71 80 82 81 85 86 83 81 80 83 85 83 83 83 85 85 86 85 83 83 82 81 78 77 76 80 79 77 73 79 81 80 82 84 82 78 82 80 79 82 82
82 84 85 84 84 86 86 84 85 84 83 84 85 85 80 83 80 85 85 83 82 83 80 80 80 78 78 82 83 83 84 87 84 83 83 83 84 84 84 82 84 81 81
78 80 83 84 86 85 84 84 85 84 86 87 87 88 87 85 82 85 84 81 82 82 81 81 82 82 85 81 78 87 87 87 87 86 87 82 85 84 84 84 83 84 82

GFSGL_sfc_rhum_096.txt.gz
RH
56 61 63 60 59 59 56 55 55 56 54 55 54 55 56 56 55 59 61 60 62 65 67 76 80 81 89 91 91 89 94 95 95 84 78 54 52 51 40 45 43 51 58
56 56 59 60 59 60 61 56 56 55 56 56 56 54 52 52 55 59 66 65 72 73 86 90 92 92 94 94 95 94 94 91 94 95 87 76 57 69 64 59 54 44 49
55 57 58 63 62 63 63 63 59 60 59 57 57 58 56 57 57 60 70 80 83 83 84 90 92 92 96 95 96 95 91 90 93 95 90 71 76 86 84 77 75 64 43
53 55 59 60 61 61 63 64 64 62 61 58 57 56 58 54 53 58 70 77 76 78 84 93 92 93 95 93 96 94 93 96 95 96 96 96 95 94 91 92 90 80 68
52 56 57 58 59 60 64 64 63 62 60 58 57 56 57 58 61 67 77 88 93 94 95 96 96 95 98 97 96 96 97 99 99 99 99 99 98 98 96 95 95 86 79
52 54 54 56 55 59 60 61 61 59 58 58 60 61 67 82 100 100 100 97 99 99 99 98 95 97 97 99 98 98 98 98 99 99 99 99 100 100 99 99 98 97 92
55 53 54 55 56 57 57 59 63 71 72 77 84 89 97 94 99 100 100 98 97 97 98 97 94 92 94 93 97 96 98 98 98 97 100 100 100 100 98 95 91 76 69
56 54 55 57 58 56 60 64 82 96 96 96 96 94 94 93 97 97 95 93 94 93 93 92 94 95 97 95 92 93 96 98 99 99 100 98 93 81 75 76 82 83 68
76 73 71 74 86 94 97 97 96 95 94 94 92 93 94 94 93 93 88 89 90 92 90 90 88 91 94 91 93 95 95 95 97 98 98 98 98 97 94 89 86 78 77
95 94 91 91 93 94 93 93 91 91 92 91 92 91 93 92 92 89 84 87 88 88 87 89 92 90 92 93 92 94 94 91 88 89 88 87 84 70 77 71 73 91 86
83 82 83 84 87 87 88 88 89 91 90 93 93 92 91 90 91 90 87 88 89 88 85 85 86 93 93 94 95 92 96 92 88 70 71 74 79 80 74 78 85 90 88
75 78 80 80 77 78 83 84 84 86 90 91 92 92 90 90 90 90 90 90 89 91 92 91 90 91 87 90 87 90 89 88 85 84 83 82 83 83 83 84 83 83 81
74 76 76 75 75 75 80 82 84 82 88 90 90 91 91 88 90 91 90 88 87 83 78 84 86 86 85 92 89 86 87 80 82 85 83 78 76 76 70 76 72 70 70
72 72 70 71 72 72 72 80 86 86 87 86 88 91 91 81 78 76 74 74 72 69 74 70 79 85 87 82 84 81 76 74 73 74 75 66 66 65 65 58 62 57 60
69 68 70 72 76 81 82 80 82 90 89 88 89 88 88 88 87 81 76 74 74 73 76 68 67 65 64 64 64 72 69 65 71 74 72 71 66 62 62 57 59 55 62
72 70 74 72 71 71 76 87 88 85 84 84 85 81 80 78 74 72 72 70 67 64 66 71 78 77 74 68 75 78 71 77 78 62 71 70 70 69 66 61 57 65 67
78 77 72 75 76 76 73 73 81 83 79 79 77 76 75 74 71 68 64 60 60 57 67 68 76 82 75 63 62 65 70 66 62 67 70 70 71 69 72 70 66 69 68
75 79 72 73 72 73 74 75 73 76 81 78 72 71 70 70 71 69 62 51 54 53 53 59 67 67 61 54 55 62 63 68 70 68 71 75 79 76 77 72 70 76 73
74 72 75 75 74 70 67 66 65 67 68 64 59 61 62 61 62 64 63 65 63 57 52 52 60 60 61 59 71 74 77 77 75 78 75 75 79 74 74 70 69 72 74
64 68 64 63 63 63 61 61 61 62 63 66 67 66 59 56 72 74 73 77 72 64 66 59 58 61 68 68 74 76 75 74 73 71 76 77 78 77 76 74 74 76 68
54 54 59 52 56 58 62 62 62 65 64 65 74 79 71 65 70 70 69 75 73 70 73 68 70 70 69 70 65 72 72 78 72 72 74 73 77 78 70 74 76 72 69
54 56 59 64 62 68 63 61 64 63 62 64 66 68 66 72 69 68 69 77 79 72 70 72 72 69 68 69 72 78 76 78 76 74 76 74 73 74 75 75 76 76 73
60 63 61 60 65 66 70 64 71 72 70 71 67 68 70 77 76 71 76 80 75 76 74 74 78 73 70 73 74 73 77 76 76 78 80 80 76 76 79 78 76 76 75
63 67 61 71 74 72 77 79 76 69 68 74 78 77 77 78 80 78 79 80 78 79 78 77 74 72 71 77 76 74 69 75 77 77 79 81 78 75 78 76 74 76 77
74 76 77 76 76 79 78 74 76 77 78 79 80 80 73 76 73 78 79 78 76 79 76 77 77 75 76 79 80 78 77 79 81 81 81 80 81 80 79 77 78 75 75
69 72 75 76 78 78 78 79 80 79 80 81 80 81 80 77 74 79 77 76 78 78 77 77 77 76 79 75 72 77 82 84 85 84 84 80 82 79 78 78 76 78 76

GFSGL_sfc_rhum_099.txt.gz
RH
54 61 65 58 54 56 56 58 59 57 54 54 56 56 56 58 58 61 64 63 63 63 62 65 66 65 73 79 89 91 90 92 96 85 82 85 88 92 83 80 75 61 57
51 55 59 59 56 56 58 56 58 57 57 54 54 50 52 53 57 59 61 57 60 62 63 66 67 72 89 91 88 91 95 92 97 95 87 92 95 91 87 77 66 49 49
45 51 54 59 57 58 57 60 60 58 57 54 53 56 55 56 55 57 58 58 60 61 63 66 72 87 89 89 91 96 95 96 95 97 93 91 93 94 89 87 85 76 62
46 49 52 54 55 55 56 56 60 57 55 53 55 55 57 52 50 51 50 56 60 61 72 78 79 88 93 96 95 96 96 98 97 98 97 98 98 98 98 98 98 98 98
48 50 52 53 55 54 57 58 58 59 55 53 55 54 54 52 49 54 56 66 73 81 85 96 97 97 98 98 97 98 99 99 99 99 99 99 99 99 99 99 99 99 98
48 50 49 52 52 56 57 60 60 58 56 57 56 56 62 79 98 100 99 97 97 98 98 96 93 94 94 95 95 96 98 99 99 99 99 99 99 99 99 99 99 100 100
46 46 48 49 51 53 53 56 60 65 68 87 92 92 93 92 97 98 96 94 95 95 96 95 92 91 93 89 91 90 92 94 98 98 99 99 100 100 100 100 100 99 98
46 44 45 48 50 51 58 82 93 92 94 94 94 93 94 93 95 94 93 92 94 92 91 88 91 94 94 86 86 91 94 96 98 98 99 100 99 99 98 98 99 99 97
49 48 48 50 73 86 94 94 93 93 94 94 92 93 94 95 93 92 87 88 89 91 89 88 86 89 89 88 90 91 89 93 92 95 98 98 97 97 97 96 96 96 92
88 88 85 85 87 89 91 93 91 91 92 91 92 92 93 93 92 88 83 86 88 87 83 85 89 87 86 87 90 92 92 91 86 84 85 81 86 84 92 84 90 94 91
84 84 84 84 86 87 89 88 89 91 91 93 93 91 90 90 90 88 86 86 84 82 78 79 80 84 83 82 86 81 88 78 80 75 74 73 76 79 84 82 88 94 91
80 82 81 81 78 80 85 85 84 86 90 92 92 92 89 87 83 81 81 86 84 87 85 78 74 81 81 83 80 83 80 82 79 75 73 74 77 74 79 65 68 75 75
79 79 78 76 76 75 79 81 83 80 86 88 88 89 90 87 89 85 80 76 82 74 72 77 68 70 70 85 82 77 78 74 74 73 71 72 66 63 56 60 60 56 56
74 74 72 73 73 73 75 77 79 80 83 84 87 89 88 81 78 75 72 71 68 65 74 67 74 75 82 81 68 74 81 76 72 81 75 62 58 60 60 58 65 61 71
72 70 72 74 80 81 78 81 86 91 86 89 90 86 88 89 84 74 70 69 68 66 68 61 63 60 58 55 58 59 60 64 71 65 64 63 60 56 59 61 63 59 70
67 69 77 77 76 75 79 86 81 80 79 81 79 79 77 74 69 67 64 61 61 57 58 63 71 73 67 56 58 56 54 55 56 55 65 66 68 68 68 65 65 76 78
77 76 78 80 80 79 74 74 85 81 75 74 73 72 72 70 67 63 56 52 52 49 61 63 71 71 66 54 53 54 59 60 59 62 66 69 71 68 78 72 71 74 70
96 95 82 78 77 77 77 77 74 75 80 75 68 65 64 63 64 64 57 48 52 51 50 58 66 64 58 51 54 60 63 66 70 65 71 75 79 79 78 75 72 81 75
89 83 81 80 78 75 70 66 64 64 64 60 56 59 58 57 59 61 61 65 63 58 52 52 59 59 61 59 73 74 75 76 75 78 76 76 81 76 76 71 73 74 78
65 72 69 67 66 61 58 59 60 61 63 66 67 66 61 57 71 73 72 76 72 64 65 59 58 61 68 68 74 76 75 74 74 72 76 80 81 79 78 79 82 82 75
50 51 59 51 55 57 61 61 62 64 66 68 74 75 69 65 69 69 68 74 72 70 73 68 69 70 69 69 66 73 72 77 72 73 76 75 82 83 75 76 80 76 73
52 56 59 63 62 68 66 61 64 63 62 64 66 68 64 71 67 67 69 77 79 72 70 72 72 70 68 69 72 78 76 78 77 77 78 77 76 77 79 79 80 82 79
58 62 61 60 64 66 70 65 71 71 70 70 65 67 69 75 75 71 74 78 73 75 73 73 76 72 69 72 75 75 80 78 78 81 83 83 79 81 84 83 83 84 81
64 67 62 70 73 71 77 79 75 68 67 72 76 75 74 75 77 75 77 78 76 77 77 77 74 72 71 76 76 74 71 76 77 79 83 87 82 78 84 81 80 82 84
72 75 76 75 76 77 77 73 75 75 75 76 77 77 70 73 70 76 76 75 75 78 75 75 76 72 72 75 76 76 79 84 80 82 83 84 85 83 83 84 83 79 82
68 70 73 75 77 76 77 78 78 76 77 77 77 77 76 74 72 77 75 73 75 76 75 74 73 72 74 72 71 76 79 80 83 84 86 83 86 85 85 86 81 82 80

GFSGL_sfc_rhum_102.txt.gz
RH
70 72 73 72 70 68 72 77 75 74 72 76 78 76 73 72 74 75 74 73 73 77 81 84 83 82 87 87 88 89 91 93 95 84 79 82 88 91 80 81 83 85 86
68 69 66 70 70 69 71 67 68 74 71 68 72 72 69 69 70 71 76 70 77 79 79 82 81 80 86 86 88 92 94 92 96 95 90 91 92 92 88 89 87 78 80
60 68 70 70 68 71 71 73 72 71 70 66 66 69 68 68 68 72 72 73 73 74 75 78 79 86 89 95 97 96 94 95 98 98 96 90 96 99 98 98 96 96 80
57 63 69 71 70 69 68 69 72 71 72 70 71 70 70 67 64 65 63 69 72 73 83 95 96 97 98 98 98 98 98 99 98 98 98 98 99 97 98 99 98 98 97
53 60 66 69 69 68 70 71 70 69 67 66 68 67 67 67 71 91 83 82 95 96 95 91 94 94 95 96 93 97 97 99 99 99 99 98 99 98 99 99 99 99 98
55 58 59 65 65 69 71 72 73 72 70 72 74 85 86 86 99 100 95 94 93 94 96 96 94 94 93 93 93 94 97 98 99 99 99 99 99 100 99 100 100 99 99
57 55 56 59 62 68 67 69 74 82 87 91 91 92 95 94 96 95 94 93 94 95 95 94 92 91 92 89 92 91 94 95 99 98 99 99 99 99 99 99 99 99 99
57 54 54 58 60 62 74 90 94 93 94 94 94 93 94 93 93 93 92 90 93 94 94 92 93 94 94 92 90 92 96 96 96 97 98 99 99 99 99 99 99 98 97
55 55 54 59 86 88 94 95 94 94 94 94 92 93 94 96 93 91 87 89 91 95 92 92 89 90 86 87 91 94 94 94 89 87 90 90 89 90 92 96 95 95 93
85 84 83 85 88 93 92 93 92 91 92 91 93 93 92 94 93 89 85 87 90 90 87 85 84 85 85 88 86 88 90 91 90 86 82 79 77 81 90 98 98 95 93
83 84 85 86 88 90 91 90 91 92 91 94 93 93 91 88 90 88 87 87 88 88 86 82 83 82 81 78 78 87 89 89 85 82 81 83 85 86 85 77 81 91 93
84 84 85 84 82 85 89 91 90 90 92 93 93 92 90 86 80 76 78 81 80 83 84 84 86 80 78 78 82 79 78 79 80 82 85 89 82 80 78 76 76 79 81
83 86 83 81 82 83 88 90 92 89 90 91 91 92 94 92 84 76 75 76 82 85 85 78 74 72 74 85 79 75 80 82 86 85 83 75 69 67 62 65 64 63 64
82 83 83 86 86 84 82 81 85 88 88 87 89 91 89 84 83 80 78 79 70 78 78 74 74 72 73 72 69 67 74 74 78 78 76 72 68 67 69 64 71 66 72
81 84 86 86 87 86 86 86 88 91 88 92 91 87 91 92 80 70 68 73 75 74 81 75 77 73 70 67 66 63 66 67 74 74 78 76 71 68 71 69 69 69 77
82 82 87 85 83 81 83 92 90 87 80 76 76 80 77 69 62 60 57 57 54 59 72 82 87 87 81 71 75 75 72 75 74 74 79 77 80 80 77 74 72 79 82
82 80 83 84 86 89 92 90 92 81 71 70 69 68 67 65 60 54 52 55 54 57 78 82 87 87 82 73 75 76 81 78 74 76 81 84 82 80 81 78 77 77 78
96 97 96 96 95 94 88 83 81 84 87 81 67 66 64 64 64 62 58 56 67 63 67 78 84 83 76 71 77 80 82 85 85 82 85 87 88 86 86 82 78 83 83
96 96 94 90 85 82 81 80 76 77 79 76 71 72 70 63 64 65 67 80 79 76 69 72 80 82 83 81 92 92 92 90 92 91 90 87 89 87 84 82 82 81 80
86 78 72 70 70 71 73 75 76 79 80 83 86 85 80 75 84 86 85 87 86 84 84 80 79 83 91 89 92 94 90 90 88 88 91 90 89 87 86 86 85 87 80
73 66 69 65 68 70 74 75 77 80 80 81 86 89 85 81 85 86 87 90 90 89 91 88 90 93 90 89 86 90 90 94 90 91 90 89 88 90 84 85 85 80 78
69 70 72 76 74 78 76 74 76 76 77 83 84 81 82 86 85 86 89 92 93 91 89 90 91 87 88 90 91 96 93 93 91 91 91 87 86 86 86 86 84 87 83
71 75 74 74 77 80 82 79 83 83 83 84 82 84 86 91 91 87 92 94 90 93 93 92 94 94 91 94 94 92 92 91 91 92 94 92 89 88 88 91 88 84 84
76 79 76 82 84 84 87 87 84 81 83 86 89 89 90 92 93 92 95 95 93 94 95 94 94 91 91 94 93 90 84 94 93 89 90 92 92 90 89 87 86 88 90
82 84 84 84 84 86 86 84 86 87 87 88 90 90 90 90 88 92 93 93 92 94 92 93 95 90 88 88 88 90 95 89 85 87 92 94 94 93 93 91 91 91 85
80 81 84 85 87 87 87 88 88 88 89 90 90 91 92 91 89 93 92 89 91 92 90 91 88 86 86 87 83 87 90 90 94 88 89 92 93 92 91 90 88 89 87

GFSGL_sfc_rhum_105.txt.gz
RH
83 89 89 84 84 88 84 86 86 86 81 85 80 79 81 85 81 80 78 80 84 84 89 91 88 88 93 95 96 92 94 94 96 83 84 82 93 96 94 91 86 86 86
76 81 86 84 81 83 89 84 83 83 83 85 81 79 79 74 78 82 85 77 83 84 86 87 88 89 93 90 93 94 95 93 96 94 85 90 99 97 96 94 90 81 81
74 76 78 80 82 78 81 84 85 82 81 82 83 82 80 79 78 82 80 80 82 85 87 90 93 96 97 98 98 98 98 98 99 99 99 98 99 98 98 97 96 94 88
76 77 73 81 82 77 79 78 76 82 82 78 81 82 81 78 75 75 74 79 83 94 95 93 91 92 94 96 94 96 96 99 99 99 99 99 98 96 96 99 96 96 95
76 80 80 82 87 84 85 86 80 81 80 78 82 77 77 77 79 85 87 92 94 94 93 90 93 92 93 94 92 96 96 97 97 98 99 98 99 98 99 98 98 97 95
70 77 78 80 78 84 82 85 88 86 80 83 89 88 90 87 98 99 94 94 92 93 97 96 95 93 94 96 96 96 96 97 98 99 98 98 98 98 98 98 98 98 98
69 70 74 77 77 81 80 81 82 90 88 91 92 92 96 95 95 94 93 92 94 94 95 94 94 97 99 97 99 92 92 92 98 98 98 99 99 98 97 95 94 92 97
69 66 72 74 75 79 88 92 94 94 95 95 96 94 95 94 94 93 92 91 93 94 95 95 95 97 99 100 97 95 95 95 95 95 98 98 97 90 99 97 99 96 90
68 68 67 71 92 91 95 96 95 94 95 95 93 94 95 96 92 89 87 90 94 95 94 95 95 97 91 78 85 86 89 92 80 78 79 82 92 91 80 85 91 91 90
93 93 91 90 92 94 94 95 93 92 93 92 95 95 95 96 93 89 86 89 93 93 95 94 88 82 78 77 87 90 94 96 87 84 86 81 75 74 76 82 88 95 92
91 90 89 88 90 90 92 91 91 93 92 93 93 93 94 91 93 88 85 87 88 85 82 84 83 79 76 82 86 85 83 82 84 85 78 75 73 73 74 75 77 87 88
90 92 91 88 85 86 90 89 88 88 91 93 93 94 92 90 84 80 77 78 76 84 88 93 87 76 77 77 74 71 74 79 81 80 78 77 78 76 71 70 68 69 67
91 92 90 87 86 84 88 89 89 86 90 92 92 93 94 88 87 78 79 83 82 80 76 71 67 66 67 70 65 66 76 79 81 86 85 82 74 67 59 64 61 59 61
88 88 87 89 90 88 88 90 90 91 91 89 90 92 92 88 87 86 82 80 75 74 75 74 71 71 72 70 70 72 76 78 81 86 86 77 69 71 72 67 74 69 76
87 87 88 87 88 91 91 90 90 96 92 93 93 89 90 91 84 75 72 75 80 77 77 74 75 74 75 75 74 73 75 76 84 85 84 81 76 73 74 72 71 73 81
88 88 89 88 87 84 86 94 94 94 93 93 92 88 84 72 62 60 62 66 66 66 75 83 88 89 86 83 87 86 82 85 80 78 86 84 87 84 82 78 77 82 85
90 89 90 88 89 91 92 91 92 95 88 85 84 79 66 60 60 61 61 63 63 66 82 86 91 94 94 86 87 88 91 87 82 84 90 90 88 87 87 82 80 83 85
94 94 94 95 94 94 94 93 90 88 91 91 80 79 77 77 74 66 62 64 75 72 79 90 94 95 89 85 88 88 88 90 91 89 95 96 97 90 88 86 86 90 88
96 97 97 97 96 94 91 87 86 87 89 90 89 82 72 68 70 72 75 87 88 88 83 87 93 93 92 89 97 96 100 98 100 99 97 96 99 92 91 89 89 88 86
95 96 93 88 86 84 84 84 84 85 87 87 89 92 82 83 91 93 92 95 94 94 93 90 91 92 96 96 98 100 100 100 99 98 100 100 100 92 92 92 91 90 85
90 83 77 74 79 80 82 84 83 85 86 86 92 89 85 89 94 95 96 96 98 96 98 96 96 97 97 99 96 99 100 100 99 100 100 94 98 95 90 90 88 88 86
77 79 82 86 85 87 86 83 83 82 82 87 90 89 90 94 95 95 96 100 100 98 98 97 98 98 97 98 99 100 100 100 100 100 97 96 91 91 91 93 92 89 88
78 81 82 83 84 84 87 86 90 91 92 92 92 94 94 96 98 98 98 100 97 98 99 98 100 99 98 99 100 99 100 98 99 98 96 96 95 94 95 94 91 93 92
82 84 81 86 86 87 90 92 92 92 92 94 96 96 97 98 100 100 100 100 97 98 98 99 98 98 97 100 99 96 96 98 97 97 98 97 96 93 93 93 92 92 93
86 88 89 90 91 93 93 92 93 94 93 95 97 98 96 97 97 100 99 97 98 98 98 98 100 98 98 93 95 94 99 99 97 96 91 91 94 95 95 94 94 91 91
88 89 91 91 93 93 94 95 96 95 97 97 98 100 98 99 98 100 98 98 98 99 98 98 96 92 93 97 92 93 98 96 93 92 94 95 95 94 93 94 93 94 92

GFSGL_sfc_rhum_108.txt.gz
RH
81 90 93 97 96 95 88 89 92 91 94 95 94 96 94 96 96 96 93 88 88 83 81 82 81 83 89 89 93 92 93 94 94 84 81 81 94 93 95 96 98 98 95
77 86 88 93 94 90 90 91 91 90 88 87 87 92 89 87 91 89 87 82 86 84 86 89 90 88 92 90 97 96 96 94 96 96 90 96 99 97 94 94 88 75 82
89 88 89 90 94 96 93 93 93 89 89 87 85 84 84 84 88 86 84 84 88 85 86 90 92 95 97 98 97 98 98 95 99 99 99 97 98 93 94 91 89 89 79
84 86 93 94 90 92 94 92 91 90 91 89 86 83 81 83 80 81 84 90 91 94 93 92 92 94 96 95 93 96 95 97 96 97 98 98 96 94 95 97 95 93 92
81 76 86 87 89 86 91 92 91 89 87 90 90 88 84 82 82 84 84 89 94 94 93 91 93 92 93 93 91 95 94 95 96 96 98 99 98 98 98 97 98 93 92
83 84 81 85 86 89 89 89 88 92 93 92 94 90 92 90 100 99 94 94 93 95 97 96 95 94 97 98 94 95 96 96 98 98 98 98 98 98 95 93 91 94 96
84 82 83 86 87 89 89 91 93 92 90 92 93 94 97 96 96 95 94 94 95 95 95 96 97 98 98 94 98 96 97 98 98 95 98 99 97 98 95 90 92 97 98
83 82 83 84 84 88 91 94 95 94 96 96 96 95 96 95 95 94 92 91 94 95 96 96 96 98 99 98 96 96 97 92 92 95 98 96 92 86 89 90 95 94 86
84 83 82 84 96 97 97 97 96 95 96 96 94 94 96 97 92 91 88 90 93 96 95 95 95 96 93 90 94 91 83 86 82 77 76 72 69 69 74 86 89 90 90
98 98 96 95 94 96 95 95 94 93 95 94 96 94 94 96 90 86 84 86 92 93 94 96 95 96 93 91 88 86 93 95 88 79 75 70 68 68 70 79 84 92 88
94 93 94 92 92 92 93 92 93 94 94 95 96 96 95 94 95 88 84 85 88 90 93 94 93 86 78 76 77 82 83 78 76 74 73 74 72 70 71 71 74 88 89
93 93 92 91 88 88 92 92 91 92 94 95 95 95 94 94 91 91 92 90 84 89 93 94 89 79 72 73 71 66 67 76 80 81 80 78 78 74 69 67 63 66 66
93 94 92 89 89 89 92 93 92 90 91 92 91 92 94 95 97 95 92 90 87 88 84 76 75 71 71 73 68 68 78 83 85 87 86 83 76 67 57 62 58 56 59
92 91 90 90 91 90 88 89 90 90 90 88 91 93 95 94 95 94 87 87 83 79 74 72 75 77 77 75 72 73 79 81 83 88 90 82 72 73 73 68 77 72 77
88 88 88 87 88 90 92 92 92 95 89 91 94 93 94 96 96 93 90 89 84 80 84 81 80 76 77 76 77 77 79 77 85 89 89 82 78 76 79 75 74 75 85
88 88 90 89 88 87 88 94 93 94 93 90 93 92 95 92 91 85 79 75 80 81 81 87 92 92 90 87 90 90 85 87 84 82 91 88 89 88 84 79 79 87 90
90 88 90 88 89 89 88 87 93 96 94 90 89 90 88 85 86 86 83 80 76 74 85 90 95 96 95 87 88 89 93 91 84 89 94 94 91 85 87 86 86 87 87
93 90 90 91 93 94 94 94 92 92 94 94 89 90 87 84 80 76 74 72 80 78 83 92 95 95 89 86 87 90 90 95 96 95 98 99 99 90 92 90 89 92 90
94 95 95 95 95 94 94 94 93 90 89 90 90 91 87 81 80 80 80 87 89 88 84 88 94 94 95 92 100 100 100 100 100 100 100 98 100 97 94 91 91 89 88
95 96 94 93 93 93 92 91 90 90 89 90 89 87 82 82 92 94 94 94 94 94 94 92 94 96 99 99 100 100 100 100 100 100 100 100 100 100 97 95 93 94 91
93 94 94 91 87 87 89 90 88 89 90 91 94 90 83 90 94 95 95 97 97 97 100 97 99 98 99 100 98 100 100 100 100 100 100 100 100 100 94 94 94 92 89
92 88 86 87 85 88 86 84 87 88 88 90 93 92 91 94 94 97 98 100 100 99 99 98 99 98 98 99 100 100 100 100 100 100 100 100 99 96 97 96 95 94 93
86 87 86 86 87 86 89 88 93 92 93 93 92 94 94 96 97 97 99 100 99 100 100 100 100 100 100 100 100 100 100 100 99 100 100 100 97 96 97 98 95 95 94
86 87 86 90 91 91 94 95 94 92 92 96 96 98 97 98 99 100 100 100 99 100 100 100 100 100 99 100 100 100 99 100 99 100 100 100 97 95 96 95 95 95 95
88 88 89 91 91 93 94 94 95 95 95 96 97 96 97 98 98 100 100 100 100 100 99 100 100 99 100 100 98 94 98 100 99 96 99 100 100 100 98 97 96 94 94
88 90 92 92 93 93 94 95 96 95 97 98 98 98 98 100 100 100 100 100 100 99 98 99 99 99 99 98 96 99 99 99 96 97 100 99 99 97 96 96 95 95 94

GFSGL_sfc_rhum_114.txt.gz
RH
86 88 94 94 95 95 96 96 97 98 97 96 95 96 97 94 92 93 93 92 92 94 95 95 95 96 98 98 99 98 98 98 98 90 92 95 94 93 88 88 84 87 92
92 89 94 95 95 96 97 96 98 99 97 96 97 96 97 95 95 94 96 95 95 97 98 98 97 98 98 97 98 98 98 96 96 95 99 97 95 93 92 92 82 71 87
97 89 96 96 96 96 96 96 97 97 98 98 98 98 98 97 96 95 95 96 96 96 97 97 97 98 98 99 99 99 98 97 98 99 99 95 96 94 92 89 88 86 78
95 89 95 96 95 95 94 96 96 95 96 96 95 96 97 97 96 96 96 97 98 97 96 96 95 96 98 97 96 96 96 96 94 96 96 97 96 92 91 91 89 84 89
95 88 89 96 96 97 97 97 96 95 94 93 95 97 97 97 99 98 96 95 96 96 95 94 95 94 93 93 94 96 94 95 95 94 96 93 95 94 94 90 82 84 89
95 90 86 96 98 98 98 98 97 96 96 95 98 98 99 100 100 100 96 96 95 95 97 95 92 91 91 93 93 93 93 94 94 94 94 95 96 94 89 88 84 83 84
94 87 88 94 95 98 98 98 98 99 97 98 97 97 99 99 99 98 96 95 96 96 95 95 94 92 90 91 91 90 90 88 89 91 95 94 92 90 82 82 81 74 66
94 88 91 93 93 96 98 98 98 98 98 98 98 98 98 98 97 96 95 95 96 96 96 95 96 96 95 92 92 93 92 89 87 83 86 84 80 71 72 72 73 70 61
92 94 95 94 97 98 98 98 98 98 98 98 97 98 97 98 96 95 93 94 96 97 95 95 94 96 92 86 89 89 86 84 72 69 67 65 65 65 65 70 76 79 76
95 92 93 97 98 98 98 98 98 96 97 96 97 96 96 97 93 92 90 91 96 95 94 96 92 94 90 86 87 87 90 80 71 68 59 56 54 56 67 63 70 84 77
99 99 99 98 98 97 97 96 97 97 97 97 97 96 94 93 94 90 87 86 88 89 90 92 93 89 87 85 83 85 88 81 80 73 68 67 61 57 57 57 63 75 80
95 96 97 97 95 95 96 97 96 96 97 97 97 97 96 96 92 90 88 88 85 89 93 94 94 88 87 87 88 89 89 89 83 78 71 69 70 65 57 56 53 53 52
95 97 96 95 96 95 96 97 96 94 95 96 96 96 97 96 95 90 90 89 87 90 90 91 87 86 87 89 87 86 86 87 87 87 79 71 66 61 51 56 54 51 56
92 94 94 97 96 97 96 95 95 96 95 93 92 94 94 94 95 94 93 94 93 92 91 89 91 92 90 88 87 87 87 85 82 82 78 67 61 67 68 64 71 72 79
89 87 91 88 87 91 90 89 89 89 86 89 91 90 92 94 96 94 92 93 92 92 92 90 91 89 87 84 83 79 78 75 82 79 77 72 68 69 71 71 72 73 80
91 91 91 89 89 89 91 96 93 93 92 89 86 89 92 89 90 92 92 91 90 87 85 89 93 92 89 82 84 83 79 79 76 75 81 79 82 82 80 77 75 81 84
91 90 92 90 91 91 89 87 94 97 94 94 94 94 90 93 89 87 86 86 82 81 90 90 93 93 91 82 81 82 86 83 76 80 86 87 86 82 85 82 81 80 83
94 92 92 93 92 91 90 91 88 90 93 96 95 94 92 86 83 83 85 84 87 82 83 89 92 90 82 78 79 82 84 88 88 84 91 93 96 89 89 86 84 92 88
93 95 95 95 95 94 92 92 92 92 92 94 94 94 85 80 78 78 75 85 87 86 82 82 86 88 88 85 94 95 96 96 96 97 96 94 100 94 90 87 87 91 92
94 95 94 93 92 93 92 92 92 92 92 92 92 92 86 84 94 96 94 93 92 89 87 83 82 87 91 91 96 98 97 98 97 95 100 100 100 96 94 94 93 94 88
94 94 94 93 93 93 93 93 92 91 91 92 95 92 85 89 93 93 93 94 93 92 92 89 93 92 91 93 90 97 97 100 98 99 100 97 100 99 92 92 93 89 88
92 93 92 91 89 90 89 87 88 88 89 92 94 92 89 91 91 92 94 96 98 94 91 92 92 92 94 93 95 100 100 100 100 100 100 99 96 94 94 95 95 94 92
92 93 91 89 88 89 91 88 91 91 91 92 90 91 92 95 94 93 96 98 96 98 95 96 98 98 96 100 100 97 100 100 99 100 100 100 98 95 99 99 96 96 94
89 90 89 92 92 92 94 94 93 90 91 93 94 94 94 95 96 96 99 100 100 100 100 99 95 96 96 100 99 98 97 100 98 96 99 100 100 96 98 96 94 96 97
91 92 92 92 92 93 94 93 94 93 93 94 96 96 96 95 96 99 99 98 98 99 99 100 100 100 100 100 100 100 100 100 99 98 97 100 100 100 100 98 98 96 96
91 91 93 93 94 93 94 94 95 94 96 96 97 97 96 95 97 99 100 99 100 100 100 100 99 100 100 98 98 100 100 100 99 99 99 99 100 100 99 100 98 97 95

GFSGL_sfc_rhum_117.txt.gz
RH
83 78 78 83 84 88 88 86 79 82 82 84 90 97 97 94 88 88 85 84 81 88 89 89 92 94 97 98 98 98 98 97 97 90 97 96 94 94 89 86 86 90 90
79 77 78 82 86 89 90 85 86 94 92 92 93 94 94 97 92 92 92 87 84 91 92 92 94 94 94 93 96 96 96 96 96 96 98 97 96 93 91 89 81 83 85
84 79 82 82 90 91 86 91 90 93 96 97 97 98 99 95 95 93 91 91 91 91 89 90 89 93 95 96 96 97 98 99 99 99 99 96 96 93 90 86 86 87 73
88 74 81 83 91 91 91 92 92 92 98 97 96 97 99 98 96 95 94 94 95 95 94 93 93 95 95 99 99 99 98 98 97 97 97 97 95 95 91 86 84 83 87
90 82 80 85 91 92 94 92 95 93 93 94 96 98 98 99 98 98 98 98 98 98 98 96 98 97 97 98 98 98 96 96 96 96 97 94 94 91 89 83 82 83 90
90 83 80 91 92 93 95 96 96 96 94 96 98 99 99 99 100 100 98 97 96 96 97 96 95 95 94 94 92 92 94 94 96 93 94 95 96 89 84 80 77 71 68
90 81 82 91 94 95 94 95 97 98 96 98 98 98 98 99 99 98 98 96 96 96 96 95 94 91 90 88 89 88 87 86 89 90 95 91 88 82 74 69 65 55 46
90 83 86 88 93 94 97 98 98 98 98 98 98 98 97 98 97 97 95 94 96 96 95 94 95 95 91 90 90 92 91 87 84 79 83 80 73 64 58 61 62 59 42
94 87 83 83 94 98 98 98 98 97 97 97 97 97 97 98 96 95 93 94 95 97 94 93 93 94 87 83 88 90 88 87 77 75 73 75 77 78 71 70 62 61 58
95 88 84 86 96 97 97 97 97 95 97 97 97 96 96 97 95 94 90 92 95 96 95 95 90 92 82 78 81 82 87 74 64 67 73 75 67 72 75 64 66 74 60
98 97 98 96 97 96 97 95 95 96 95 97 97 96 95 94 96 91 88 86 89 89 90 93 92 86 83 78 77 79 81 77 83 73 66 64 58 49 50 51 55 65 64
97 97 98 97 96 96 96 96 95 96 97 97 97 97 96 95 90 88 88 89 87 89 93 93 90 84 83 82 82 84 84 78 76 71 68 70 67 51 42 41 41 42 42
96 98 96 96 97 96 97 98 96 94 95 96 96 96 97 94 94 89 90 89 87 90 89 89 87 85 86 87 84 83 83 83 85 81 69 56 48 44 40 47 44 42 46
95 98 100 98 98 98 96 97 96 96 96 95 95 95 95 94 94 93 92 90 88 91 93 90 89 90 88 86 86 84 74 66 65 65 61 50 47 52 54 51 56 54 62
91 95 95 95 94 94 94 95 94 97 94 92 91 90 92 94 94 89 89 92 93 92 91 90 91 87 82 79 74 63 58 57 66 65 62 57 54 52 56 58 58 57 63
90 90 94 95 96 93 93 97 93 93 92 90 86 87 91 90 90 91 91 92 92 90 83 82 87 83 78 75 75 70 64 64 62 63 69 66 68 67 67 64 63 67 69
92 91 93 94 95 91 90 89 94 96 94 94 93 92 90 93 92 94 94 89 77 68 80 80 86 82 76 67 67 66 71 69 66 67 71 74 74 69 72 69 68 68 68
94 92 93 94 93 92 92 93 92 92 94 96 94 93 93 93 92 87 82 75 74 68 67 74 78 75 66 60 60 62 64 71 71 69 76 79 82 76 77 72 70 79 73
93 95 95 95 95 94 94 94 93 91 91 93 93 94 90 82 80 74 67 71 70 68 63 65 71 68 66 64 78 79 81 82 82 84 81 78 85 77 76 72 74 79 76
94 95 93 92 92 92 92 92 92 92 91 91 90 88 82 76 85 86 83 83 77 69 68 65 66 68 74 76 83 84 84 83 82 78 85 85 85 81 80 79 80 80 70
90 92 92 89 90 91 90 92 91 91 91 90 90 85 74 76 80 81 80 82 78 76 77 72 76 78 77 78 72 80 77 84 80 80 80 78 85 83 76 77 78 74 71
87 88 89 90 89 91 91 91 92 89 85 86 87 84 80 81 79 79 80 84 85 78 75 76 74 73 73 72 76 83 82 84 83 81 80 79 77 77 79 79 80 81 76
87 90 90 89 90 92 92 86 88 88 85 83 79 79 80 85 84 81 85 87 81 83 80 80 83 81 82 85 82 77 79 79 80 84 84 82 77 78 83 83 81 82 82
89 91 88 91 90 87 90 91 86 80 81 84 86 85 84 86 88 88 90 90 89 90 88 86 80 78 84 85 81 80 75 82 80 78 80 83 80 77 81 80 80 84 84
87 89 90 89 88 91 91 86 85 85 85 85 87 86 82 85 84 89 90 89 88 88 87 86 84 84 83 83 82 79 86 84 81 90 78 82 83 86 83 82 85 82 83
83 84 86 86 87 86 86 87 87 85 86 86 86 86 85 85 85 88 88 86 86 86 85 87 85 82 76 75 74 78 85 86 83 86 83 79 83 82 82 83 82 84 83

GFSGL_sfc_rhum_120.txt.gz
RH
83 88 80 74 67 69 78 77 78 84 89 95 96 96 95 91 87 87 91 83 72 70 69 68 71 79 88 89 90 86 85 84 92 99 96 96 95 95 91 92 90 88 86
84 88 84 75 64 68 69 68 70 70 70 74 83 92 98 94 92 88 86 79 72 69 72 75 76 83 87 91 92 85 94 93 93 93 97 97 96 95 93 92 90 84 84
85 88 87 79 66 70 66 70 81 83 82 88 89 92 92 95 97 94 85 83 82 77 76 76 81 86 92 94 93 94 95 97 97 98 99 96 98 95 95 91 91 88 74
90 90 89 76 66 65 66 78 84 84 84 93 92 92 96 97 98 94 93 90 89 88 88 87 90 91 89 94 94 93 96 99 99 98 98 98 96 96 91 91 90 89 81
94 93 85 71 72 68 73 81 81 83 88 88 88 92 98 99 99 96 95 96 97 98 98 98 99 99 99 99 99 99 99 98 98 97 97 95 95 93 90 79 72 79 81
95 92 76 71 73 71 75 83 88 90 91 93 93 96 97 96 100 100 98 97 97 97 97 97 96 96 96 96 96 96 97 97 98 96 94 95 96 92 86 83 81 74 74
94 92 77 68 70 73 75 81 93 97 96 98 98 97 97 97 98 98 96 95 96 96 97 96 95 94 92 92 93 92 91 91 91 91 94 89 86 79 72 73 65 53 53
92 94 80 71 72 70 80 91 97 96 97 97 98 97 97 96 96 95 94 94 96 95 96 97 96 96 95 93 90 91 90 85 81 76 81 78 69 58 58 59 61 55 42
92 94 84 77 79 84 95 96 96 97 97 96 96 97 96 97 94 93 91 94 95 97 95 96 95 95 90 84 87 89 86 85 75 75 76 76 74 73 63 62 62 63 58
94 96 88 81 90 96 96 97 95 96 96 95 96 96 96 96 95 93 89 90 96 95 95 96 89 88 81 78 79 78 85 81 71 66 69 67 57 55 54 47 50 62 50
94 95 93 92 96 94 96 95 95 97 97 97 97 97 96 94 97 91 88 88 90 91 90 91 88 78 75 72 69 72 76 74 74 69 61 57 49 46 43 41 40 50 52
95 96 99 97 95 94 96 96 95 96 97 97 97 97 96 96 92 90 89 87 85 89 92 91 85 77 77 77 79 79 78 77 78 75 72 58 45 40 36 35 36 36 36
96 97 97 97 97 95 97 98 97 94 95 96 96 96 97 94 94 89 87 86 85 88 87 85 80 80 84 85 81 82 82 80 81 75 55 42 38 37 34 41 38 37 41
100 100 100 100 99 99 98 98 98 98 97 97 97 97 96 94 94 92 91 90 88 90 91 88 89 93 89 86 83 81 78 71 63 58 52 41 39 45 47 44 48 46 56
96 99 98 99 97 97 96 96 96 96 93 94 93 92 94 95 94 88 88 91 91 90 92 93 92 80 71 66 60 54 51 52 62 59 56 50 47 47 48 50 50 50 56
90 94 95 96 97 96 95 97 96 94 96 95 94 91 95 92 91 88 88 91 92 92 88 90 79 72 64 58 62 61 57 58 58 58 63 59 59 60 58 57 56 61 61
93 93 95 94 96 94 94 93 96 96 93 94 94 94 91 94 93 92 92 92 91 78 79 82 89 82 71 59 59 62 66 63 58 59 64 67 65 61 64 62 62 63 62
94 95 93 96 96 93 93 93 89 89 93 96 95 94 94 93 92 93 90 74 66 62 62 70 74 69 58 51 52 55 57 63 63 62 70 73 74 69 70 64 63 74 67
92 94 96 96 96 95 95 95 94 94 93 94 94 94 94 92 81 64 54 59 59 56 53 56 60 56 55 53 71 74 77 77 76 77 74 71 80 69 69 66 67 71 69
94 94 93 92 93 93 92 92 92 92 92 91 89 89 85 69 79 81 76 75 70 61 60 55 55 60 68 70 79 80 80 78 77 71 80 80 81 75 72 71 72 72 63
86 89 92 90 91 91 92 92 92 92 90 89 89 79 66 69 74 75 73 75 70 68 70 64 70 72 72 72 66 72 69 77 72 72 72 72 80 77 69 70 71 66 63
85 85 87 88 87 90 89 87 88 87 84 78 80 78 72 76 73 73 73 79 80 73 69 70 67 65 65 64 68 77 75 78 75 74 74 72 70 71 71 72 73 74 69
86 88 87 85 86 90 90 86 88 81 80 80 75 76 76 80 78 74 80 82 76 77 73 75 77 74 73 74 71 69 70 72 73 76 77 76 70 71 76 74 72 74 75
86 90 84 88 90 89 89 85 81 76 78 81 83 82 80 82 84 82 83 82 80 82 80 78 72 71 74 77 73 70 67 73 72 71 68 76 73 68 73 70 70 75 77
90 91 91 88 85 84 83 78 80 81 81 82 82 82 77 80 79 83 82 80 79 82 79 76 75 75 77 77 76 73 85 80 77 88 73 72 75 76 76 73 75 73 75
80 82 82 81 82 82 82 82 83 81 82 82 82 82 80 79 78 82 81 79 79 78 76 78 77 76 70 70 71 78 74 72 77 74 78 72 75 74 73 74 73 75 73

GFSGL_sfc_rhum_123.txt.gz
RH
67 74 83 90 87 78 70 72 71 75 73 85 92 94 95 94 93 94 95 92 90 84 73 71 70 66 63 65 70 70 79 75 78 96 93 95 95 96 94 92 90 90 90
74 76 79 88 90 80 74 64 68 69 74 88 94 93 93 93 94 92 92 91 89 84 78 74 71 67 77 78 80 83 80 78 84 94 96 96 96 95 96 95 89 80 85
72 83 83 88 89 83 77 70 77 73 68 75 79 86 96 95 94 93 90 90 89 84 78 72 67 68 80 84 84 88 87 96 93 96 98 97 98 97 98 96 93 88 75
80 90 87 89 88 82 72 74 80 72 67 67 71 72 81 92 92 94 94 94 91 89 87 79 72 77 80 86 89 93 98 99 99 98 98 98 97 97 97 94 94 91 84
82 90 90 89 92 79 78 80 79 77 72 77 84 90 90 92 92 95 93 94 94 89 93 95 94 94 98 98 96 98 98 99 99 98 98 98 97 97 95 92 87 87 77
85 88 90 92 88 80 83 82 82 80 78 83 86 95 95 92 100 100 100 99 100 98 98 98 98 98 98 98 97 98 100 99 100 96 96 95 97 96 91 90 91 92 87
86 83 87 90 85 76 80 80 82 87 92 96 97 95 96 96 98 98 97 97 97 98 98 98 98 99 97 95 96 94 94 94 96 94 96 95 95 87 80 80 75 69 61
86 84 86 90 82 71 81 86 96 95 97 97 98 96 96 94 96 95 94 94 96 99 99 100 97 98 97 95 94 94 94 90 86 79 84 82 76 68 68 70 74 68 61
85 85 87 94 76 72 92 98 96 96 97 97 97 97 96 96 94 93 90 92 95 97 97 97 96 96 94 92 91 91 89 90 81 83 84 79 70 65 64 73 82 80 52
87 90 89 94 78 87 98 97 97 96 97 97 97 96 95 95 93 90 87 89 95 95 95 96 94 94 92 86 83 83 90 88 81 72 65 64 63 58 58 55 58 62 60
88 91 89 91 94 92 96 96 97 97 97 98 97 98 96 94 96 91 87 86 90 91 91 92 89 79 75 72 69 70 71 68 70 60 56 55 50 44 42 39 42 56 52
92 94 95 98 98 95 95 97 97 97 97 97 97 97 97 97 94 92 90 88 86 90 92 87 81 76 75 75 74 73 72 74 76 75 62 56 51 44 38 37 38 38 35
96 98 98 97 99 97 97 98 97 97 96 97 96 97 97 95 95 91 90 89 86 87 82 77 77 79 78 78 77 78 80 83 84 76 59 42 38 37 36 39 38 40 42
98 100 100 99 100 100 99 99 99 98 97 97 97 97 97 95 94 92 91 90 86 86 85 87 87 86 86 89 87 85 78 64 57 54 47 40 39 44 46 44 48 49 55
97 98 100 98 97 97 97 97 98 99 94 96 95 93 95 96 96 91 89 91 90 89 89 89 89 87 90 85 69 55 50 49 54 52 50 46 44 46 49 52 52 51 54
97 97 98 97 97 96 94 97 96 93 92 92 89 88 93 92 90 89 89 90 90 91 91 93 94 90 72 56 60 58 56 57 55 56 60 57 59 61 59 57 56 60 61
95 96 96 97 96 95 95 92 94 96 93 92 92 90 88 92 93 93 93 94 94 91 93 94 89 82 75 62 59 58 63 61 57 60 65 66 64 62 64 61 62 62 62
95 96 96 96 97 96 96 96 94 92 94 96 95 94 93 93 93 94 94 90 92 88 86 84 75 67 56 50 52 56 58 62 63 63 71 72 72 68 68 62 63 72 67
95 95 96 96 96 96 95 95 95 94 94 94 94 94 94 93 94 94 88 82 72 63 56 59 65 60 59 58 74 76 77 76 75 76 73 72 77 65 67 64 65 72 69
95 94 92 94 95 94 94 94 94 94 93 94 93 94 93 91 94 93 85 81 75 65 64 57 55 61 70 72 80 82 80 77 76 72 78 78 77 69 69 68 70 69 61
87 91 92 91 91 92 93 94 94 94 94 92 95 94 82 82 84 83 79 80 76 72 74 66 71 73 72 72 66 70 69 75 71 71 71 72 76 73 66 66 67 64 61
86 88 89 90 92 92 92 91 92 92 91 90 92 83 75 81 78 78 76 80 82 73 68 70 69 66 64 65 69 76 74 76 73 71 73 69 68 68 68 68 69 70 67
85 89 88 87 89 92 93 91 93 91 85 82 77 79 81 85 83 79 84 84 75 78 74 75 76 74 72 73 70 68 69 71 74 74 74 72 67 70 74 71 68 70 72
86 86 83 89 90 89 93 94 91 77 77 82 86 85 83 84 84 83 85 82 81 81 78 77 72 71 73 76 72 69 69 76 69 73 71 74 70 67 72 68 68 70 72
89 91 91 90 91 91 89 87 83 80 80 82 85 84 77 79 78 82 81 80 79 80 77 78 76 75 81 82 83 86 81 80 80 85 72 68 68 70 72 70 72 69 70
87 84 80 80 81 80 80 81 81 80 81 81 81 81 79 78 78 80 78 77 77 76 76 77 75 73 72 72 75 84 80 79 78 78 77 71 72 71 70 72 70 72 70

GFSGL_sfc_rhum_126.txt.gz
RH
68 78 81 83 89 91 90 84 78 86 87 90 92 92 94 96 96 97 96 97 97 91 94 92 89 90 87 82 82 84 76 73 96 98 97 96 97 96 94 92 91 91 88
66 72 82 87 89 92 91 89 90 86 88 90 91 93 94 94 95 96 96 94 97 95 93 96 93 88 86 88 92 91 87 85 90 97 98 98 98 97 95 95 88 81 87
67 77 85 86 88 91 92 89 86 85 87 89 91 95 95 94 95 93 92 93 94 95 93 91 90 90 82 84 93 94 95 93 89 96 98 97 98 96 98 96 95 95 83
70 74 83 90 88 89 93 90 90 87 84 84 91 93 94 94 93 93 91 92 92 93 94 94 89 89 85 88 92 94 95 96 94 96 98 99 98 99 95 97 98 94 85
74 76 78 85 89 94 95 91 90 88 83 81 85 87 91 94 93 93 92 93 93 94 96 96 96 95 98 92 90 96 94 99 97 98 99 99 99 98 97 97 95 94 82
74 79 77 82 88 95 96 93 90 90 88 90 91 96 99 99 100 100 98 95 94 93 96 100 99 99 99 99 99 99 98 98 100 99 99 98 99 97 95 95 95 95 94
72 76 76 81 88 94 93 93 92 94 98 99 98 97 98 98 100 100 100 99 99 99 99 99 100 100 98 98 97 96 97 97 99 100 99 96 96 95 93 96 95 87 71
74 73 75 80 85 90 95 94 98 98 99 99 99 98 98 97 98 97 96 96 98 99 100 100 100 100 100 97 96 95 96 96 96 94 94 95 92 83 77 74 78 76 61
75 76 77 82 86 90 96 98 98 98 98 99 98 97 97 98 95 94 92 94 97 98 99 100 99 99 99 94 94 94 94 96 92 92 91 86 76 71 76 84 86 85 85
80 81 81 83 88 92 97 98 98 98 98 98 98 97 96 97 95 93 90 92 97 97 96 97 96 96 97 94 93 92 93 94 90 90 88 85 84 83 74 71 79 89 84
81 83 85 84 90 94 99 98 98 98 98 98 98 98 97 95 96 91 89 90 92 93 94 95 94 92 92 91 89 87 88 86 84 69 57 54 52 52 53 61 63 76 80
84 88 90 90 93 99 98 98 98 97 97 98 97 98 98 98 94 90 89 87 86 91 94 91 88 85 82 79 78 76 71 69 66 65 63 61 60 57 52 51 48 46 47
89 92 96 93 96 98 99 98 98 98 97 97 97 97 98 97 96 92 90 88 86 89 87 86 85 82 83 85 82 76 74 71 72 72 66 57 52 50 46 52 54 50 53
95 96 99 100 97 98 98 100 99 99 98 97 97 97 98 97 96 93 92 90 87 89 89 87 85 86 83 88 85 78 73 67 64 63 59 54 53 60 61 65 71 80 92
95 95 96 96 97 96 96 98 99 99 96 96 96 95 96 97 96 90 89 91 90 90 88 86 88 88 85 78 70 64 62 61 67 65 64 60 58 61 66 82 81 80 81
95 94 96 95 97 98 95 96 95 95 95 94 92 90 94 91 89 87 88 88 87 83 84 90 93 92 92 93 92 86 77 70 67 68 74 74 79 84 87 85 84 91 92
96 95 95 96 96 97 97 94 95 96 94 93 91 89 86 90 90 89 87 86 86 82 91 94 95 95 94 85 76 74 78 76 74 77 82 86 89 86 88 83 88 88 89
96 96 95 95 96 97 97 97 95 93 93 96 94 93 93 94 94 95 94 92 95 94 93 94 94 90 85 78 71 72 75 80 81 84 88 92 92 92 93 87 88 94 93
96 96 96 95 96 96 96 96 95 95 94 95 95 95 96 95 95 95 94 93 94 94 94 91 79 70 70 71 83 85 87 88 87 88 91 94 94 90 92 92 94 85 89
95 95 95 95 95 95 95 94 94 95 95 95 95 96 96 93 94 96 96 95 95 92 87 80 76 80 87 90 91 88 88 88 90 89 94 96 95 93 94 93 92 93 92
94 94 94 93 94 94 95 95 95 95 95 95 96 96 95 93 95 95 95 95 90 87 86 84 86 86 84 85 84 85 85 89 90 92 91 95 95 94 93 93 92 92 92
94 94 94 94 94 94 94 94 94 94 94 94 95 95 95 94 94 93 91 90 89 85 82 82 81 82 82 82 84 86 87 90 92 90 94 92 93 94 92 92 94 92 93
94 95 94 94 93 94 94 94 94 94 94 94 94 94 92 92 91 90 91 93 91 89 86 87 88 88 86 85 84 86 88 93 92 93 94 94 94 94 94 94 92 93 94
92 93 92 93 94 94 94 95 94 91 92 91 92 91 91 92 93 93 92 90 90 90 88 87 87 85 85 86 88 93 92 93 90 92 91 92 94 93 94 93 92 90 92
92 93 93 93 92 93 94 94 94 94 93 91 91 91 90 91 91 91 92 90 88 89 88 89 89 89 92 91 91 91 90 93 91 94 96 88 88 85 91 92 91 92 90
90 91 92 93 94 94 93 93 92 90 90 90 89 89 88 89 89 89 88 87 89 89 90 88 85 85 87 91 90 93 89 91 93 88 95 95 92 94 95 94 90 95 92

GFSGL_sfc_rhum_129.txt.gz
RH
79 82 85 84 87 94 96 97 95 92 91 93 93 95 95 96 95 98 96 95 98 97 95 95 93 87 88 97 86 75 74 69 92 99 97 96 97 97 95 90 86 86 85
82 84 84 86 86 92 95 94 95 94 92 94 94 95 94 95 96 97 97 96 98 97 95 98 93 92 89 90 98 82 81 85 91 97 97 99 97 96 95 94 88 84 84
80 82 83 84 84 89 93 94 96 97 94 94 94 95 94 95 97 97 95 96 97 94 92 95 95 93 91 94 98 93 87 88 92 97 98 98 99 97 97 95 95 94 86
82 84 85 84 84 85 88 91 95 96 95 94 94 94 93 94 94 94 95 96 94 96 91 92 90 92 90 95 98 98 93 95 96 97 98 98 98 99 97 97 98 91 86
76 80 83 83 82 82 86 92 94 96 95 95 95 95 94 94 94 96 95 96 96 95 96 92 92 94 98 98 96 98 96 95 97 98 98 99 98 98 98 97 95 94 84
77 77 74 79 80 83 87 89 95 96 96 96 97 97 97 97 100 100 98 96 96 96 98 99 95 99 100 100 100 100 95 94 97 98 98 98 98 98 98 96 95 95 95
75 75 73 76 79 81 79 89 95 97 96 98 99 99 99 99 100 100 100 98 98 98 98 100 100 100 99 100 99 99 99 98 93 99 100 99 98 95 94 97 96 95 90
75 76 77 78 80 82 84 90 93 99 99 99 99 99 99 98 99 99 99 99 99 100 100 100 100 100 100 100 100 99 98 98 100 98 98 97 95 95 92 93 92 77 60
78 80 78 79 82 84 88 91 92 99 99 99 99 99 98 99 98 98 97 98 98 99 100 100 100 100 99 97 98 96 96 98 97 95 95 94 94 94 90 85 87 86 94
80 82 80 82 86 87 89 92 95 99 98 98 99 98 98 98 96 95 94 95 98 97 98 98 98 99 100 94 95 94 94 97 95 95 95 95 91 90 88 80 82 91 92
81 83 83 83 88 89 92 95 99 99 98 98 98 98 98 96 97 92 91 94 95 96 96 97 96 97 98 99 95 94 94 94 95 92 90 88 84 79 69 64 71 82 82
85 86 86 88 90 88 97 99 99 99 98 98 98 98 98 99 94 92 91 91 90 94 97 95 94 91 92 93 92 91 91 91 91 89 85 78 71 64 58 52 50 50 50
88 89 90 92 92 93 99 99 100 99 99 97 97 97 98 98 97 92 90 90 89 92 90 91 90 90 89 88 85 80 74 73 75 77 73 63 57 56 51 53 51 46 47
93 94 95 96 95 95 95 100 100 100 100 98 97 97 98 98 97 94 94 93 90 90 91 90 88 88 84 79 76 72 72 73 74 72 69 63 58 62 64 66 73 74 79
93 95 96 96 96 96 96 99 98 99 100 100 95 96 97 98 97 91 90 92 90 90 90 90 88 82 79 73 74 76 80 75 74 75 78 77 70 64 68 77 72 64 72
94 95 96 96 96 97 96 95 97 96 96 97 96 95 96 92 90 89 88 87 86 83 85 88 87 85 85 86 90 92 89 80 80 82 84 78 77 79 80 79 76 81 83
96 96 96 96 96 96 96 97 95 97 93 93 94 95 92 92 92 90 89 88 86 80 88 90 93 93 92 92 93 90 90 89 85 83 82 83 82 82 84 85 85 87 87
96 96 96 96 97 96 96 97 97 96 95 96 95 93 93 91 92 91 90 87 93 92 93 94 95 95 94 93 92 90 90 91 88 85 87 88 88 87 86 86 88 94 94
95 96 96 96 96 96 96 96 96 96 96 95 96 97 96 95 94 94 93 93 93 93 93 94 94 94 94 93 93 92 91 91 89 89 88 85 89 86 92 93 92 89 88
95 96 96 95 95 95 95 95 95 96 95 96 95 96 96 94 94 96 95 95 94 94 94 93 94 94 94 92 92 90 89 90 90 89 92 91 93 89 89 89 91 90 89
95 95 95 94 95 95 96 95 95 95 95 95 96 96 96 94 95 95 95 95 95 95 95 93 92 92 91 90 88 90 89 91 90 90 89 90 90 93 93 91 90 92 89
95 94 94 95 94 95 95 94 94 94 94 94 95 95 94 94 94 95 95 95 95 93 91 91 92 92 91 89 89 90 91 91 88 88 89 92 89 91 93 92 93 94 95
95 95 94 94 95 95 95 95 95 95 95 95 94 95 94 95 95 95 94 94 93 94 93 91 92 93 93 93 91 90 90 93 94 92 92 90 92 93 94 93 95 96 96
93 94 93 95 95 95 95 95 95 94 94 95 95 95 95 95 95 94 94 94 94 94 94 94 92 92 93 94 93 93 92 92 91 91 90 91 92 92 94 95 96 95 96
94 95 95 95 95 95 95 95 95 95 95 95 95 95 94 93 93 94 94 93 93 93 94 93 92 92 92 91 91 90 91 95 91 92 94 91 90 92 96 98 98 97 97
94 94 95 94 95 95 94 95 95 95 95 94 94 94 93 93 93 93 92 92 93 92 91 92 92 91 89 88 88 92 89 88 88 92 97 96 95 96 95 97 94 98 98